[[{"header":{"parameterUnit":"m.s-1","parameterCategory":1,"la1":30.6,"la2":28.766,"lo1":-90.7593,"lo2":-88.6598,"dy":0.0162,"dx":0.0183,"nx":116,"ny":114,"refTime":"2024-03-01T18:00:00:Z","depth":0,"parameterNumber":2,"parameterNumberName":"U-component_of_WINDS"},"data":[0.0,0.0,0.0,0.0,0.0,0.0,0.0,0.0,0.0,0.0,0.0,0.0,0.0,0.0,0.0,0.0,0.0,0.0,0.0,0.0,0.0,0.0,0.0,0.0,0.0,0.0,0.0,0.0,0.0,0.0,0.0,0.0,0.0,0.0,0.0,0.0,0.0,0.0,0.0,0.0,0.0,0.0,0.0,0.0,0.0,0.0,0.0,0.0,0.0,0.0,0.0,0.0,0.0,0.0,0.0,0.0,0.0,0.0,0.0,0.0,0.0,0.0,0.0,0.0,0.0,0.0,0.0,0.0,0.0,0.0,0.0,0.0,0.0,0.0,0.0,0.0,0.0,0.0,0.0,0.0,0.0,0.0,0.0,0.0,0.0,0.0,0.0,0.0,0.0,0.0,0.0,0.0,0.0,0.0,0.0,0.0,0.0,0.0,0.0,0.0,0.0,0.0,0.0,0.0,0.0,0.0,0.0,0.0,0.0,0.0,0.0,0.0,0.0,0.0,0.0,0.0,0.0,0.0,0.0,0.0,0.0,0.0,0.0,0.0,0.0,0.0,0.0,0.0,0.0,0.0,0.0,0.0,0.0,0.0,0.0,0.0,0.0,0.0,0.0,0.0,0.0,0.0,0.0,0.0,0.0,0.0,0.0,0.0,0.0,0.0,0.0,0.0,0.0,0.0,0.0,0.0,0.0,0.0,0.0,0.0,0.0,0.0,0.0,0.0,0.0,0.0,0.0,0.0,0.0,0.0,0.0,0.0,0.0,0.0,0.0,0.0,0.0,0.0,0.0,0.0,0.0,0.0,0.0,0.0,0.0,0.0,0.0,0.0,0.0,0.0,0.0,0.0,0.0,0.0,0.0,0.0,0.0,0.0,0.0,0.0,0.0,0.0,0.0,0.0,0.0,0.0,0.0,0.0,0.0,0.0,0.0,0.0,0.0,0.0,0.0,0.0,0.0,0.0,0.0,0.0,0.0,0.0,0.0,0.0,0.0,0.0,0.0,0.0,0.0,0.0,0.0,0.0,0.0,0.0,0.0,0.0,0.0,0.0,0.0,0.0,0.0,0.0,0.0,0.0,0.0,0.0,0.0,0.0,0.0,0.0,0.0,0.0,0.0,0.0,0.0,0.0,0.0,0.0,0.0,0.0,0.0,0.0,0.0,0.0,0.0,0.0,0.0,0.0,0.0,0.0,0.0,0.0,0.0,0.0,0.0,0.0,0.0,0.0,0.0,0.0,0.0,0.0,0.0,0.0,0.0,0.0,0.0,0.0,0.0,0.0,0.0,0.0,0.0,0.0,0.0,0.0,0.0,0.0,0.0,0.0,0.0,0.0,0.0,0.0,0.0,0.0,0.0,0.0,0.0,0.0,0.0,0.0,0.0,0.0,0.0,0.0,0.0,0.0,0.0,0.0,0.0,0.0,0.0,0.0,0.0,0.0,0.0,0.0,0.0,0.0,0.0,0.0,0.0,0.0,0.0,0.0,0.0,0.0,0.0,0.0,0.0,0.0,0.0,0.0,0.0,0.0,0.0,0.0,0.0,0.0,0.0,0.0,0.0,0.0,0.0,0.0,0.0,0.0,0.0,0.0,0.0,0.0,0.0,0.0,0.0,0.0,0.0,0.0,0.0,0.0,0.0,0.0,0.0,0.0,0.0,0.0,0.0,0.0,0.0,0.0,0.0,0.0,0.0,0.0,0.0,0.0,0.0,0.0,0.0,0.0,0.0,0.0,0.0,0.0,0.0,0.0,0.0,0.0,0.0,0.0,0.0,0.0,0.0,0.0,0.0,0.0,0.0,0.0,0.0,0.0,0.0,0.0,0.0,0.0,0.0,0.0,0.0,0.0,0.0,0.0,0.0,0.0,0.0,0.0,0.0,0.0,0.0,0.0,0.0,0.0,0.0,0.0,0.0,0.0,0.0,0.0,0.0,0.0,0.0,0.0,0.0,0.0,0.0,0.0,0.0,0.0,0.0,0.0,0.0,0.0,0.0,0.0,0.0,0.0,0.0,0.0,0.0,0.0,0.0,0.0,0.0,0.0,0.0,0.0,0.0,0.0,0.0,0.0,0.0,0.0,0.0,0.0,0.0,0.0,0.0,0.0,0.0,0.0,0.0,0.0,0.0,0.0,0.0,0.0,0.0,0.0,0.0,0.0,0.0,0.0,0.0,0.0,0.0,0.0,0.0,0.0,0.0,0.0,0.0,0.0,0.0,0.0,0.0,0.0,0.0,0.0,0.0,0.0,0.0,0.0,0.0,0.0,0.0,0.0,0.0,0.0,0.0,0.0,0.0,0.0,0.0,0.0,0.0,0.0,0.0,0.0,0.0,0.0,0.0,0.0,0.0,0.0,0.0,0.0,0.0,0.0,0.0,0.0,0.0,0.0,0.0,0.0,0.0,0.0,0.0,0.0,0.0,0.0,0.0,0.0,0.0,0.0,0.0,0.0,0.0,0.0,0.0,0.0,0.0,0.0,0.0,0.0,0.0,0.0,0.0,0.0,0.0,0.0,0.0,0.0,0.0,0.0,0.0,0.0,0.0,0.0,0.0,0.0,0.0,0.0,0.0,0.0,0.0,0.0,0.0,0.0,0.0,0.0,0.0,0.0,0.0,0.0,0.0,0.0,0.0,0.0,0.0,0.0,0.0,0.0,0.0,0.0,0.0,0.0,0.0,0.0,0.0,0.0,0.0,0.0,0.0,0.0,0.0,0.0,0.0,0.0,0.0,0.0,0.0,0.0,0.0,0.0,0.0,0.0,0.0,0.0,0.0,0.0,0.0,0.0,0.0,0.0,0.0,0.0,0.0,0.0,0.0,0.0,0.0,0.0,0.0,0.0,0.0,0.0,0.0,0.0,0.0,0.0,0.0,0.0,0.0,0.0,0.0,0.0,0.0,0.0,0.0,0.0,0.0,0.0,0.0,0.0,0.0,0.0,0.0,0.0,0.0,0.0,0.0,0.0,0.0,0.0,0.0,0.0,0.0,0.0,0.0,0.0,0.0,0.0,0.0,0.0,0.0,0.0,0.0,0.0,0.0,0.0,0.0,0.0,0.0,0.0,0.0,0.0,0.0,0.0,0.0,0.0,0.0,0.0,0.0,0.0,0.0,0.0,0.0,0.0,0.0,0.0,0.0,0.0,0.0,0.0,0.0,0.0,0.0,0.0,0.0,0.0,0.0,0.0,0.0,0.0,0.0,0.0,0.0,0.0,0.0,0.0,0.0,0.0,0.0,0.0,0.0,0.0,0.0,0.0,0.0,0.0,0.0,0.0,0.0,0.0,0.0,0.0,0.0,0.0,0.0,0.0,0.0,0.0,0.0,0.0,0.0,0.0,0.0,0.0,0.0,0.0,0.0,0.0,0.0,0.0,0.0,0.0,0.0,0.0,0.0,0.0,0.0,0.0,0.0,0.0,0.0,0.0,0.0,0.0,0.0,0.0,0.0,0.0,0.0,0.0,0.0,0.0,0.0,0.0,0.0,0.0,0.0,0.0,0.0,0.0,0.0,0.0,0.0,0.0,0.0,0.0,0.0,0.0,0.0,0.0,0.0,0.0,0.0,0.0,0.0,0.0,0.0,0.0,0.0,0.0,0.0,0.0,0.0,0.0,0.0,0.0,0.0,0.0,0.0,0.0,0.0,0.0,0.0,0.0,0.0,0.0,0.0,0.0,0.0,0.0,0.0,0.0,0.0,0.0,0.0,0.0,0.0,0.0,0.0,0.0,0.0,0.0,0.0,0.0,0.0,0.0,0.0,0.0,0.0,0.0,0.0,0.0,0.0,0.0,0.0,0.0,0.0,0.0,0.0,0.0,0.0,0.0,0.0,0.0,0.0,0.0,0.0,0.0,0.0,0.0,0.0,0.0,0.0,0.0,0.0,0.0,0.0,0.0,0.0,0.0,0.0,0.0,0.0,0.0,0.0,0.0,0.0,0.0,0.0,0.0,0.0,0.0,0.0,0.0,0.0,0.0,0.0,0.0,0.0,0.0,0.0,0.0,0.0,0.0,0.0,0.0,0.0,0.0,0.0,0.0,0.0,0.0,0.0,0.0,0.0,0.0,0.0,0.0,0.0,0.0,0.0,0.0,0.0,0.0,0.0,0.0,0.0,0.0,0.0,0.0,0.0,0.0,0.0,0.0,0.0,0.0,0.0,0.0,0.0,0.0,0.0,0.0,0.0,0.0,0.0,0.0,0.0,0.0,0.0,0.0,0.0,0.0,0.0,0.0,0.0,0.0,0.0,0.0,0.0,0.0,0.0,0.0,0.0,0.0,0.0,0.0,0.0,0.0,0.0,0.0,0.0,0.0,0.0,0.0,0.0,0.0,0.0,0.0,0.0,0.0,0.0,0.0,0.0,0.0,0.0,0.0,0.0,0.0,0.0,0.0,0.0,0.0,0.0,0.0,0.0,0.0,0.0,0.0,0.0,0.0,0.0,0.0,0.0,0.0,0.0,0.0,0.0,0.0,0.0,0.0,0.0,0.0,0.0,0.0,0.0,0.0,0.0,0.0,0.0,0.0,0.0,0.0,0.0,0.0,0.0,0.0,0.0,0.0,0.0,0.0,0.0,0.0,0.0,0.0,0.0,0.0,0.0,0.0,0.0,0.0,0.0,0.0,0.0,0.0,0.0,0.0,0.0,0.0,0.0,0.0,0.0,0.0,0.0,0.0,0.0,0.0,0.0,0.0,0.0,0.0,0.0,0.0,0.0,0.0,0.0,0.0,0.0,0.0,0.0,0.0,0.0,0.0,0.0,0.0,0.0,0.0,0.0,0.0,0.0,0.0,0.0,0.0,0.0,0.0,0.0,0.0,0.0,0.0,0.0,0.0,0.0,0.0,0.0,0.0,0.0,0.0,0.0,0.0,0.0,0.0,0.0,0.0,0.0,0.0,0.0,0.0,0.0,0.0,0.0,0.0,0.0,0.0,0.0,0.0,0.0,0.0,0.0,0.0,0.0,0.0,0.0,0.0,0.0,0.0,0.0,0.0,0.0,0.0,0.0,0.0,0.0,0.0,0.0,0.0,0.0,0.0,0.0,0.0,0.0,0.0,0.0,0.0,0.0,0.0,0.0,0.0,0.0,0.0,0.0,0.0,0.0,0.0,0.0,0.0,0.0,0.0,0.0,0.0,0.0,0.0,0.0,0.0,0.0,0.0,0.0,0.0,0.0,0.0,0.0,0.0,0.0,0.0,0.0,0.0,0.0,0.0,0.0,0.0,0.0,0.0,0.0,0.0,0.0,0.0,0.0,0.0,0.0,0.0,0.0,0.0,0.0,0.0,0.0,0.0,0.0,0.0,0.0,0.0,0.0,0.0,0.0,0.0,0.0,0.0,0.0,0.0,0.0,0.0,0.0,0.0,0.0,0.0,0.0,0.0,0.0,0.0,0.0,0.0,0.0,0.0,0.0,0.0,0.0,0.0,0.0,0.0,0.0,0.0,0.0,0.0,0.0,0.0,0.0,0.0,0.0,0.0,0.0,0.0,0.0,0.0,0.0,0.0,0.0,0.0,0.0,0.0,0.0,0.0,0.0,0.0,0.0,0.0,0.0,0.0,0.0,0.0,0.0,0.0,0.0,0.0,0.0,0.0,0.0,0.0,0.0,0.0,0.0,0.0,0.0,0.0,0.0,0.0,0.0,0.0,0.0,0.0,0.0,0.0,0.0,0.0,0.0,0.0,0.0,0.0,0.0,0.0,0.0,0.0,0.0,0.0,0.0,0.0,0.0,0.0,0.0,0.0,0.0,0.0,0.0,0.0,0.0,0.0,0.0,0.0,0.0,0.0,0.0,0.0,0.0,0.0,0.0,0.0,0.0,0.0,0.0,0.0,0.0,0.0,0.0,0.0,0.0,0.0,0.0,0.0,0.0,0.0,0.0,0.0,0.0,0.0,0.0,0.0,0.0,0.0,0.0,0.0,0.0,0.0,0.0,0.0,0.0,0.0,0.0,0.0,0.0,0.0,0.0,0.0,0.0,0.0,0.0,0.0,0.0,0.0,0.0,0.0,0.0,0.0,0.0,0.0,0.0,0.0,0.0,0.0,0.0,0.0,0.0,0.0,0.0,0.0,0.0,0.0,0.0,0.0,0.0,0.0,0.0,0.0,0.0991,0.0,0.0,0.0,0.0,0.0,0.0,0.0,0.0,0.0,0.0,0.0,0.0,0.0,0.0,0.0,0.0,0.0,0.0,0.0,0.0,0.0,0.0,0.0,0.0,0.0,0.0,0.0,0.0,0.0,0.0,0.0,0.0,0.0,0.0,0.0,-0.4577,-0.4866,-0.5036,-0.5073,-0.5242,-0.5314,-0.5319,-0.5115,-0.4792,-0.439,0.0,0.0,0.0,0.0,0.0,0.0,0.0,0.0,0.0,0.0,0.0,0.0,0.0,0.0,0.0,0.0,0.0,0.0,0.0,0.0,0.0,0.0,0.0,0.0,0.0,0.0,0.0,0.0,0.0,0.0,0.0,0.0,0.0,0.0,0.0,0.0,0.0,0.0,0.0,0.0,0.0,0.0,0.0,0.0,0.0,0.0,0.0,0.0,0.0,0.0,0.0,0.0,0.0,0.0,0.0,0.0,0.0,0.0,0.0,0.0,0.0,0.0,0.0,0.0,0.0,0.0,0.0,0.0,0.0,0.0,0.0,0.1022,0.0,0.0,0.0,0.0,0.0,0.0,0.0,0.0,0.0,0.0,0.0,0.0,0.0,0.0,0.0,0.0,0.0,0.0,0.0,0.0,0.0,0.0,0.0,-0.3868,-0.3943,-0.4154,-0.4191,-0.4248,0.0,0.0,0.0,0.0,-0.4867,-0.5021,-0.5177,-0.557,-0.5787,-0.5787,-0.6014,-0.6126,-0.615,-0.615,-0.575,-0.5052,-0.4908,0.0,0.0,0.0,0.0,0.0,0.0,0.0,0.0,0.0,0.0,0.0,0.0,0.0,0.0,0.0,0.0,0.0,0.0,0.0,0.0,0.0,0.0,0.0,0.0,0.0,0.0,0.0,0.0,0.0,0.0,0.0,0.0,0.0,0.0,0.0,0.0,0.0,0.0,0.0,0.0,0.0,0.0,0.0,0.0,0.0,0.0,0.0,0.0,0.0,0.0,0.0,0.0,0.0,0.0,0.0,0.0,0.0,0.0,0.0,0.0,0.0,0.0,0.0,-0.0096,0.0025,0.0176,0.0428,0.0554,0.0601,0.0724,0.0886,0.1094,0.0,0.0,0.0,0.0,0.0,0.0,0.0,0.0,0.0,0.0,0.0,0.0,0.0,0.0,0.0,0.0,0.0,0.0,0.0,0.0,0.0,0.0,-0.4102,-0.4221,-0.4432,-0.4556,-0.4743,-0.5052,0.0,-0.5215,-0.5538,-0.5573,-0.568,-0.5867,-0.6035,-0.6138,-0.6138,-0.6388,-0.6573,-0.6689,-0.6689,-0.6645,-0.6497,-0.6016,-0.5827,-0.5793,0.0,0.0,0.0,0.0,0.0,0.0,0.0,0.0,0.0,0.0,0.0,0.0,0.0,0.0,0.0,0.0,0.0,0.0,0.0,0.0,0.0,0.0,0.0,0.0,0.0,0.0,0.0,0.0,0.0,0.0,0.0,0.0,0.0,0.0,0.0,0.0,0.0,0.0,0.0,0.0,0.0,-0.2444,-0.2355,0.0,0.0,0.0,0.0,0.0,0.0,0.0,0.0,0.0,0.0,0.0,0.0,0.0,0.0,-0.0845,-0.0671,-0.0498,-0.0375,-0.0225,-0.01,0.0025,0.0176,0.0378,0.0604,0.0617,0.0,0.1029,0.1273,0.0,0.0,0.0,0.0,0.0,0.0,0.0,0.0,0.0,0.0,0.0,0.0,0.0,0.0,0.0,0.0,0.0,0.0,0.0,0.0,0.0,-0.4467,-0.4591,-0.4878,-0.5055,-0.5237,-0.546,-0.558,-0.5737,-0.5981,-0.5986,-0.6105,-0.6326,-0.6509,-0.6779,-0.7157,-0.743,-0.7579,-0.7655,-0.7655,-0.7655,-0.7628,-0.741,-0.6974,-0.6436,-0.6356,0.0,0.0,0.0,0.0,0.0,0.0,0.0,0.0,0.0,0.0,0.0,0.0,0.0,0.0,0.0,0.0,0.0,0.0,0.0,0.0,0.0,0.0,0.0,0.0,0.0,0.0,0.0,0.0,0.0,0.0,0.0,0.0,0.0,0.0,0.0,0.0,0.0,0.0,0.0,-0.2929,-0.2778,-0.2739,-0.2601,-0.2473,0.0,0.0,0.0,0.0,0.0,0.0,0.0,0.0,0.0,-0.1363,-0.1235,-0.1109,-0.0958,-0.0857,-0.0713,-0.052,-0.0442,-0.0315,-0.0107,0.0027,0.0188,0.0375,0.0563,0.0724,0.0855,0.1077,0.1287,0.1489,0.0,0.0,0.0,0.0,0.0,0.252,0.0,0.0,0.0,0.0,0.0,0.0,0.0,0.0,0.0,0.0,0.0,0.0,-0.4782,-0.488,-0.5014,-0.5306,-0.5502,-0.5677,-0.5813,-0.5966,-0.6152,-0.6392,-0.645,-0.6609,-0.6932,-0.7141,-0.7525,-0.8046,-0.8259,-0.8381,-0.8404,-0.8404,-0.8404,-0.8404,-0.8404,-0.7958,-0.7189,-0.7126,-0.7068,-0.6999,0.0,0.0,0.0,0.0,0.0,0.0,0.0,0.0,0.0,0.0,0.0,0.0,0.0,0.0,0.0,0.0,0.0,0.0,0.0,0.0,0.0,0.0,0.0,0.0,0.0,0.0,0.0,0.0,0.0,0.0,0.0,0.0,0.0,0.0,0.0,0.0,0.0,-0.3293,-0.3178,-0.3106,-0.3044,-0.2923,0.0,0.0,0.0,0.0,0.0,0.0,-0.192,-0.1885,-0.1789,-0.1578,-0.1512,-0.1385,-0.1172,-0.1146,-0.0999,-0.0776,-0.0721,-0.059,-0.0345,-0.0173,0.0,0.0173,0.046,0.0633,0.0716,0.0945,0.1184,0.1422,0.1568,0.1732,0.192,0.2184,0.237,0.253,0.0,0.0,0.0,0.0,0.0,0.0,0.0,0.0,0.0,0.0,0.0,-0.4812,-0.5132,-0.5348,-0.5522,-0.5664,-0.5862,-0.6038,-0.6169,-0.618,-0.6427,-0.6932,-0.7134,-0.7415,-0.7829,-0.8103,-0.8311,-0.8463,-0.8475,-0.8569,-0.8681,-0.8681,-0.8681,-0.8681,-0.8681,-0.8498,-0.8224,-0.8022,-0.7786,-0.7549,-0.7289,0.0,0.0,0.0,0.0,0.0,0.0,0.0,0.0,0.0,0.0,0.0,0.0,0.0,0.0,0.0,0.0,0.0,0.0,0.0,0.0,0.0,0.0,0.0,0.0,0.0,0.0,0.0,0.0,0.0,0.0,0.0,0.0,0.0,0.0,0.0,0.0,0.0,0.0,-0.3412,-0.3318,0.0,0.0,0.0,0.0,-0.2595,-0.2574,-0.245,-0.2197,-0.2298,-0.2277,-0.2073,-0.2014,-0.1862,-0.1678,-0.1526,-0.1406,-0.1257,-0.1074,-0.0921,-0.0768,-0.043,-0.0184,0.0031,0.0154,0.0399,0.0736,0.1068,0.1288,0.1409,0.163,0.1893,0.2199,0.2414,0.2568,0.2721,0.0,0.0,0.0,0.0,0.0,0.0,0.0,0.0,-0.4342,-0.4571,-0.4838,-0.512,-0.5363,-0.5525,-0.5741,-0.6002,-0.6244,-0.6424,-0.6505,-0.6923,-0.7236,-0.7438,-0.7779,-0.8063,-0.8282,-0.8646,-0.8925,-0.9134,-0.9433,-0.9699,-0.9923,-1.0054,-1.0119,-1.0119,-1.0119,-1.0054,-0.99,-0.9016,-0.8655,-0.8676,-0.8459,-0.8306,0.0,0.0,0.0,0.0,0.0,0.0,0.0,0.0,0.0,0.0,0.0,0.0,0.0,0.0,0.0,0.0,0.0,0.0,0.0,0.0,0.0,0.0,0.0,0.0,0.0,0.0,0.0,0.0,0.0,0.0,0.0,0.0,0.0,0.0,0.0,0.0,0.0,-0.3801,-0.3851,0.0,-0.3536,-0.3578,-0.3498,-0.3193,-0.3049,-0.2913,-0.2738,-0.2651,-0.2518,-0.2365,-0.2207,-0.2065,-0.191,-0.1725,-0.1571,-0.1419,-0.1265,-0.1112,-0.0927,-0.071,-0.0463,-0.0185,0.0,0.0185,0.0402,0.0779,0.1082,0.1277,0.1506,0.1696,0.191,0.2188,0.2405,0.2622,0.0,0.0,0.0,0.0,0.0,0.0,0.0,0.0,-0.4476,-0.4701,-0.5017,-0.5299,-0.5595,-0.5774,-0.6002,-0.6328,-0.6668,-0.6886,-0.7025,-0.7494,-0.7824,-0.7966,-0.8346,-0.8716,-0.9052,-0.9344,-0.9632,-0.9972,-1.0284,-1.0532,-1.0714,-1.0845,-1.088,-1.088,-1.088,-1.0955,-1.0938,-1.0085,-0.9665,-0.9554,-0.9433,-0.926,-0.9047,0.0,0.0,0.0,0.0,0.0,0.0,0.0,0.0,0.0,0.0,0.0,0.0,0.0,0.0,0.0,0.0,0.0,0.0,0.0,0.0,0.0,0.0,0.0,0.0,0.0,0.0,0.0,0.0,0.0,0.0,0.0,0.0,0.0,0.0,0.0,-0.4494,-0.4349,-0.4413,-0.4349,-0.405,-0.4041,-0.3969,-0.3694,-0.3477,-0.3324,-0.3171,-0.3018,-0.2849,-0.2722,-0.2559,-0.235,-0.2129,-0.2001,-0.1842,-0.1619,-0.1558,-0.1368,-0.1081,-0.0954,-0.0732,-0.0446,-0.0223,0.0,0.0162,0.0494,0.0826,0.1112,0.1346,0.1558,0.1811,0.2098,0.2351,0.264,0.0,0.0,0.0,0.0,0.0,0.0,0.0,-0.4229,-0.45,-0.4776,-0.5048,-0.5397,-0.5864,-0.6089,-0.6364,-0.6704,-0.7072,-0.7428,-0.7689,-0.7852,-0.812,-0.854,-0.8926,-0.9466,-1.0207,-1.0219,-1.0451,-1.0899,-1.0933,-1.0933,-1.094,-1.0946,-1.0946,-1.0946,-1.0946,-1.1043,-1.1222,-1.1222,-1.0828,-1.0162,-1.0149,-0.981,-0.9333,0.0,0.0,0.0,0.0,0.0,0.0,0.0,0.0,0.0,0.0,0.0,0.0,0.0,0.0,0.0,0.0,0.0,0.0,0.0,0.0,0.0,0.0,0.0,0.0,0.0,0.0,0.0,0.0,0.0,0.0,0.0,0.0,0.0,-0.5482,-0.531,-0.5159,-0.5038,-0.4999,-0.4884,-0.4549,-0.4348,-0.4173,-0.4044,-0.383,-0.3681,-0.3532,-0.3471,-0.3331,-0.3135,-0.3055,-0.2831,-0.243,-0.243,-0.226,-0.1922,-0.1922,-0.1719,-0.1314,-0.1179,-0.1012,-0.0778,-0.0439,-0.0206,0.0,0.021,0.0534,0.0906,0.1205,0.1551,0.1922,0.2126,0.2427,0.2804,0.0,0.0,0.0,0.0,0.0,0.0,-0.4238,-0.4394,-0.4621,-0.5034,-0.5456,-0.5823,-0.6094,-0.6374,-0.6709,-0.711,-0.7411,-0.7656,-0.783,-0.8322,-0.888,-0.9494,-0.9778,-1.0073,-1.0486,-1.0629,-1.0871,-1.1179,-1.1327,-1.1501,-1.1702,-1.1847,-1.1919,-1.1919,-1.1919,-1.1956,-1.1992,-1.1992,-1.1779,-1.1393,-1.1046,-1.0672,-1.0283,0.0,0.0,0.0,0.0,0.0,0.0,0.0,0.0,0.0,0.0,0.0,0.0,0.0,0.0,0.0,0.0,0.0,0.0,0.0,0.0,0.0,0.0,0.0,0.0,0.0,0.0,0.0,0.0,0.0,0.0,0.0,-0.6476,-0.6284,-0.5819,-0.5662,-0.5498,-0.5305,-0.5288,-0.5199,-0.4945,-0.4974,-0.4861,-0.4526,-0.444,-0.4351,-0.4176,-0.4,-0.3806,-0.3629,-0.3441,-0.324,-0.2997,-0.2889,-0.2673,-0.2423,-0.2316,-0.214,-0.1856,-0.1535,-0.1285,-0.1071,-0.0678,-0.0394,-0.018,0.0144,0.0434,0.0728,0.104,0.1391,0.1784,0.1964,0.239,0.296,0.0,0.0,0.0,0.0,0.0,0.0,-0.4319,-0.4452,-0.4675,-0.5182,-0.5615,-0.5986,-0.6261,-0.6545,-0.6858,-0.7268,-0.7589,-0.7881,-0.8132,-0.8769,-0.9404,-0.9983,-1.014,-1.0454,-1.1016,-1.1128,-1.1368,-1.1725,-1.1995,-1.217,-1.2342,-1.2581,-1.2685,-1.2679,-1.2748,-1.2786,-1.2817,-1.2764,-1.2651,-1.2503,-1.206,-1.155,-1.0988,-1.0725,-1.049,-1.0203,-0.994,-0.9721,-0.9544,-0.9428,0.0,0.0,0.0,0.0,0.0,0.0,0.0,0.0,0.0,0.0,0.0,0.0,0.0,0.0,0.0,0.0,0.0,0.0,0.0,0.0,0.0,0.0,0.0,0.0,-0.7022,-0.6985,-0.6604,-0.6314,-0.6069,-0.5954,-0.5953,-0.5822,-0.555,-0.5503,-0.5393,-0.5044,-0.4971,-0.4867,-0.4651,-0.4473,-0.4256,-0.407,-0.3781,-0.3527,-0.3312,-0.3169,-0.2987,-0.2767,-0.2584,-0.2402,-0.2223,-0.1786,-0.1495,0.0,-0.0911,-0.0623,-0.0407,-0.0074,0.0224,0.0,0.0,0.0,0.0,0.0,0.2531,0.3036,0.0,0.0,0.0,0.0,0.0,0.0,-0.4319,-0.4471,-0.4719,-0.5229,-0.566,-0.6033,-0.6369,-0.66,-0.6884,-0.7295,-0.7722,-0.8144,-0.8581,-0.9219,-0.9776,-1.0238,-1.0315,-1.0769,-1.1618,-1.1667,-1.1913,-1.2351,-1.2656,-1.2842,-1.2876,-1.3119,-1.3246,-1.3286,-1.347,-1.3541,-1.3521,-1.3491,-1.3435,-1.3379,-1.3061,-1.2363,-1.1511,-1.1511,-1.1364,-1.1075,-1.0845,-1.0474,-1.0028,-0.9778,0.0,0.0,0.0,0.0,0.0,0.0,0.0,0.0,0.0,0.0,0.0,0.0,0.0,0.0,0.0,0.0,0.0,0.0,0.0,0.0,0.0,0.0,0.0,0.0,-0.7735,-0.782,-0.7614,-0.7169,-0.6823,-0.6791,-0.6749,-0.6603,-0.6205,-0.5964,-0.5755,-0.5581,-0.5449,-0.5277,-0.5064,0.0,0.0,0.0,0.0,-0.3814,-0.3593,-0.3416,-0.3233,-0.3086,-0.2827,-0.2607,-0.2424,-0.1985,-0.1692,-0.1508,-0.1103,-0.0819,-0.0608,-0.038,-0.0038,0.0391,0.0786,0.125,0.1802,0.2388,0.2758,0.0,0.0,0.0,0.0,0.0,0.0,0.0,-0.4319,-0.4552,-0.4823,-0.5251,-0.57,-0.6098,-0.6369,-0.672,-0.7086,-0.7417,-0.8022,-0.8634,-0.9267,-0.9784,-1.0211,-1.0517,-1.1055,-1.1508,-1.1918,-1.2071,-1.2328,-1.2697,-1.2757,-1.2981,-1.3374,-1.3435,-1.3548,-1.3752,-1.3831,-1.3824,-1.3824,-1.3807,-1.3631,-1.34,-1.3337,-1.2907,-1.2284,-1.2284,-1.2096,-1.1817,-1.1755,-1.1506,-1.1171,-1.1019,-1.0615,-1.0154,-0.9853,-0.9636,0.0,0.0,0.0,0.0,0.0,0.0,0.0,0.0,0.0,0.0,0.0,0.0,0.0,0.0,0.0,0.0,0.0,0.0,0.0,-0.8432,-0.8364,-0.8283,-0.8213,-0.8003,-0.7673,-0.7226,-0.7038,-0.6849,-0.6603,-0.6353,-0.6131,-0.5912,-0.5831,-0.5708,-0.5484,-0.5287,0.0,-0.4895,-0.4632,-0.444,-0.4246,-0.402,-0.3829,-0.3635,0.0,0.0,-0.2709,-0.2476,-0.2168,-0.1783,-0.1395,-0.1087,-0.0819,-0.0468,0.0039,0.0589,0.105,0.1472,0.1899,0.2361,0.2755,0.3157,0.0,0.0,0.0,0.0,0.0,0.0,-0.437,-0.4585,-0.4862,-0.5332,-0.5739,-0.6092,-0.6369,-0.6745,-0.7137,-0.7471,-0.8176,-0.8854,-0.9448,-0.9799,-1.0215,-1.0729,-1.1153,-1.1644,-1.2144,-1.2268,-1.2445,-1.2784,-1.3047,-1.3355,-1.3768,-1.4,-1.4157,-1.4326,-1.4455,-1.4496,-1.4481,-1.4452,-1.4241,-1.394,-1.3775,-1.343,-1.2964,-1.2777,-1.2515,-1.2249,-1.2249,-1.2045,-1.1724,-1.1471,-1.1189,-1.0905,-1.0605,-1.0333,-1.0151,0.0,0.0,0.0,0.0,0.0,0.0,0.0,0.0,0.0,0.0,0.0,0.0,0.0,0.0,-0.9097,-0.907,0.0,-0.9013,-0.8885,-0.8862,-0.879,-0.8574,-0.854,-0.8333,-0.7761,-0.7535,-0.7335,-0.7113,-0.6889,-0.6632,-0.6332,-0.6287,-0.6096,-0.575,-0.567,-0.5476,-0.5162,-0.4968,-0.4735,-0.4543,-0.4348,-0.4155,-0.396,-0.3763,-0.3489,-0.3137,-0.2705,-0.2393,-0.2159,-0.165,-0.1335,-0.1061,-0.051,0.0079,0.068,0.092,0.135,0.1928,0.2267,0.2755,0.3238,0.0,0.0,0.0,0.0,0.0,0.0,0.0,-0.4623,-0.4901,-0.5433,-0.5764,-0.6067,-0.6363,-0.6732,-0.7161,-0.7614,-0.8291,-0.8915,-0.9433,-0.9759,-1.0227,-1.093,-1.1214,-1.1622,-1.2291,-1.2305,-1.2489,-1.286,-1.3274,-1.3692,-1.4123,-1.4552,-1.4783,-1.4866,-1.5041,-1.5173,-1.5151,-1.4957,-1.4765,-1.4482,-1.4114,-1.3784,-1.3455,-1.3119,-1.2891,-1.2678,-1.2678,-1.2473,-1.2134,-1.1847,-1.1685,-1.1505,-1.1259,-1.1045,-1.087,-1.087,-1.0481,0.0,0.0,0.0,0.0,0.0,0.0,0.0,0.0,-0.9729,-0.9817,-0.9569,-0.9702,-0.9799,-0.9675,-0.9645,-0.9556,-0.9275,-0.9337,-0.928,-0.8938,-0.902,-0.8946,-0.8398,-0.8074,-0.7851,-0.7649,-0.7425,-0.7169,-0.6848,-0.6773,-0.6574,-0.6139,-0.61,-0.5894,-0.5475,-0.5274,-0.5068,-0.4815,-0.4618,-0.4423,-0.4196,-0.396,-0.3763,-0.3526,-0.2902,-0.2589,-0.2472,-0.1855,-0.1504,-0.1266,-0.0636,0.0,0.0574,0.0655,0.1134,0.1836,0.2113,0.2697,0.3318,0.0,0.0,0.0,0.0,0.0,0.0,0.0,0.0,-0.4901,-0.5433,-0.5631,-0.5912,-0.6347,-0.665,-0.7188,-0.8122,-0.8513,-0.889,-0.9371,-1.0046,-1.0629,-1.1149,-1.1578,-1.1971,-1.2291,-1.2305,-1.252,-1.2968,-1.3352,-1.3852,-1.4536,-1.4898,-1.5131,-1.5298,-1.534,-1.5389,-1.5367,-1.5039,-1.4765,-1.4482,-1.4114,-1.3784,-1.3492,-1.3455,-1.3397,-1.3404,-1.3404,-1.3157,-1.288,-1.2704,-1.2248,-1.1743,-1.1512,-1.1276,-1.1059,-1.1059,-1.0874,-1.0696,-1.0696,-1.0604,-1.0555,-1.0704,-1.074,-1.0678,0.0,-1.0473,-1.0422,-1.0083,-1.0037,-1.0096,-1.0109,-1.0113,-1.0109,-1.0064,-0.9938,-0.9771,-0.9545,-0.9589,-0.9526,-0.9189,-0.8692,-0.8245,-0.8063,-0.7847,-0.7673,-0.7579,-0.7394,-0.7226,-0.6976,-0.673,-0.6467,-0.6098,-0.5891,-0.5631,-0.5243,-0.5043,-0.4849,-0.4623,-0.4233,-0.396,-0.3763,-0.3256,-0.2826,-0.2474,-0.1848,-0.1501,-0.1259,-0.0829,-0.0377,0.0126,0.0545,0.0963,0.1419,0.1882,0.2595,0.339,0.0,0.0,0.0,0.0,0.0,0.0,0.0,0.0,0.0,-0.5328,-0.5567,-0.5853,-0.6241,-0.6764,-0.741,-0.8231,-0.856,-0.8907,-0.9382,-0.9901,-1.0411,-1.0894,-1.1353,-1.175,-1.2044,-1.2218,-1.252,-1.3006,-1.3296,-1.3751,-1.4338,-1.4601,-1.4787,-1.4867,-1.4867,-1.4867,-1.486,-1.4721,-1.4479,-1.421,-1.4192,-1.3978,-1.3681,-1.3819,-1.3848,-1.3811,-1.3564,-1.3404,0.0,-1.3004,-1.2722,-1.2434,-1.2179,-1.1961,-1.1795,-1.1795,-1.1664,-1.1459,-1.136,-1.1283,-1.1242,-1.1095,-1.1052,-1.1024,-1.0817,-1.0902,-1.0945,-1.0668,-1.0754,-1.0785,-1.0605,-1.0549,-1.051,0.0,-1.0218,-1.0041,-1.0028,-0.994,-0.9814,-0.9712,-0.9363,-0.9021,-0.8667,-0.832,-0.811,-0.793,-0.769,-0.7488,-0.7281,-0.7071,-0.6795,-0.6487,-0.6276,-0.6044,-0.5785,-0.5543,-0.53,-0.5097,-0.4814,-0.4489,-0.4121,-0.384,-0.3311,-0.2576,-0.2066,-0.1659,-0.1328,-0.088,-0.0424,0.0043,0.0515,0.0951,0.1395,0.1895,0.2486,0.3091,0.0,0.0,0.0,0.0,0.0,0.0,0.0,0.0,0.0,0.0,-0.5524,-0.5837,-0.6213,-0.689,-0.752,-0.806,-0.8409,-0.8827,-0.9331,-0.9711,-1.0194,-1.0745,-1.1122,-1.1483,-1.1899,-1.215,-1.2509,-1.2958,-1.332,-1.3672,-1.4093,-1.4382,-1.4511,-1.4511,-1.4511,-1.4511,-1.4504,-1.4447,-1.4316,-1.4088,-1.4186,-1.411,-1.3891,-1.4029,-1.4093,-1.4057,-1.3775,-1.3674,-1.3637,-1.3392,-1.3258,-1.3112,-1.2799,-1.2599,-1.2424,-1.2357,-1.2221,-1.2072,-1.1943,-1.193,-1.1881,-1.165,-1.1607,-1.1537,-1.1249,-1.1339,-1.1444,-1.1227,-1.1346,-1.1372,-1.1037,-1.0962,-1.0887,-1.0625,-1.0538,-1.0461,-1.0406,-1.0385,-1.0295,-1.0182,-1.0089,-0.9876,-0.9414,-0.8916,-0.8579,-0.8455,-0.8166,-0.796,-0.775,-0.7537,-0.7262,-0.6972,-0.6756,-0.653,-0.6284,-0.6037,-0.5746,-0.5496,-0.5282,-0.4991,-0.4573,-0.4243,-0.3617,-0.2778,-0.237,-0.1994,-0.157,-0.1068,-0.0606,-0.0132,0.0307,0.0797,0.1253,0.1808,0.2367,0.29,0.0,0.0,0.0,0.0,0.0,0.0,0.0,0.0,0.0,0.0,0.0,0.0,0.0,-0.6939,-0.7398,-0.7594,-0.8051,-0.8581,-0.9259,-0.9554,-1.0089,-1.0936,-1.1002,-1.1276,-1.1893,-1.209,-1.2427,-1.2914,-1.344,-1.3793,-1.4004,-1.4318,-1.4511,-1.4511,-1.4511,-1.4511,-1.4489,-1.4364,-1.4306,-1.4298,-1.4181,-1.4101,-1.4093,-1.4093,-1.4093,-1.4093,-1.4093,-1.4093,-1.4093,-1.4086,-1.3843,-1.3549,-1.3352,-1.3058,-1.2762,-1.2552,-1.239,-1.2326,-1.2459,-1.2466,-1.2501,-1.254,-1.2572,-1.2462,-1.205,-1.1983,-1.1916,-1.1731,-1.17,-1.1632,-1.1409,-1.1372,-1.126,-1.085,-1.0997,-1.1018,-1.064,-1.096,-1.1086,-1.0637,-1.0803,-1.0766,0.0,-0.9672,-0.9255,-0.927,-0.9026,-0.8759,-0.8575,-0.8313,-0.7977,-0.7599,-0.7385,-0.7102,-0.6702,-0.6488,-0.6156,-0.5707,-0.5496,-0.5282,-0.5072,-0.4411,-0.3701,-0.2992,-0.2841,-0.2519,-0.2044,-0.1554,-0.1119,-0.0627,-0.0179,0.0314,0.0807,0.1524,0.2284,0.2955,0.0,0.0,0.0,0.0,0.0,0.0,0.0,0.0,0.0,0.0,0.0,0.0,0.0,0.0,0.0,0.0,-0.8033,-0.8496,-0.8943,-0.9439,-0.9907,-1.037,-1.0788,-1.1082,-1.1283,-1.1682,-1.2109,-1.2635,-1.292,-1.3259,-1.366,-1.377,-1.3821,-1.3821,-1.3821,-1.3895,-1.4044,-1.397,-1.4065,-1.4188,-1.4255,-1.4142,-1.3933,-1.4038,-1.3967,-1.3763,0.0,-1.3747,-1.3663,-1.3435,-1.3442,-1.3507,-1.3437,-1.354,-1.3623,-1.3418,-1.3241,-1.3085,-1.2978,-1.2963,-1.2955,-1.2835,-1.2783,-1.2716,-1.2452,-1.2415,-1.2305,-1.1966,-1.1892,-1.1855,-1.1632,-1.1484,-1.1396,-1.1473,-1.1313,-1.1263,-1.152,-1.1546,-1.1508,-1.1336,-1.1246,0.0,0.0,0.0,0.0,-0.9515,-0.9305,-0.9038,-0.8819,-0.8596,-0.8301,-0.8028,-0.7814,-0.753,-0.7217,-0.6993,-0.6734,-0.6437,-0.5866,-0.5515,-0.5257,-0.4559,-0.4079,-0.3818,-0.3139,-0.2795,-0.2573,-0.1744,-0.1211,-0.0897,-0.0269,0.0269,0.0762,0.1345,0.1929,0.2556,0.0,0.0,0.0,0.0,0.0,0.0,0.0,0.0,0.0,0.0,0.0,0.0,0.0,0.0,0.0,0.0,0.0,-0.8272,-0.8769,-0.916,-0.9603,-1.0077,-1.0474,-1.0775,-1.0989,-1.1376,-1.1792,-1.2312,-1.2486,-1.2768,-1.3148,-1.3148,-1.3148,-1.3148,-1.3148,-1.3254,-1.3439,-1.3509,-1.3643,-1.3847,-1.4022,-1.3951,-1.3747,-1.3884,-1.3783,0.0,-1.3449,-1.3386,-1.333,-1.3264,-1.3372,-1.3538,-1.3592,-1.3825,-1.4057,-1.3964,-1.3746,-1.3572,-1.3455,-1.3346,-1.3273,-1.3046,-1.301,-1.2936,-1.2746,-1.2709,-1.2599,-1.2268,-1.2224,-1.212,-1.1855,-1.1706,-1.169,-1.1915,-1.1729,-1.1704,-1.2046,-1.2022,-1.1891,-1.1811,-1.1602,-1.1338,0.0,0.0,0.0,-0.9864,-0.9646,-0.9432,-0.917,-0.8947,-0.8727,-0.8464,-0.8248,-0.8028,-0.7768,-0.7496,-0.7231,-0.6881,-0.6169,-0.5722,-0.5502,-0.4832,-0.4476,-0.4253,-0.3494,-0.3047,-0.2823,-0.2017,-0.148,-0.1121,-0.0493,0.0045,0.0538,0.1076,0.1615,0.2199,0.0,0.0,0.0,0.0,0.0,0.0,0.0,0.0,0.0,0.0,0.0,0.0,0.0,0.0,0.0,0.0,0.0,0.0,-0.8705,-0.8769,-0.9166,-1.0017,-1.0057,-1.0361,-1.0935,-1.1145,-1.1501,-1.1955,-1.2166,-1.2342,-1.2485,-1.2485,-1.2485,-1.2485,-1.2526,-1.2627,-1.2837,-1.3039,-1.3173,-1.3341,-1.3518,-1.3576,-1.3553,-1.3553,-1.3545,-1.3522,-1.3179,-1.3068,-1.3116,-1.3425,-1.3578,-1.3583,-1.3741,-1.3944,-1.4106,-1.4122,-1.3964,-1.3826,-1.3826,-1.3681,-1.3455,-1.3273,-1.3229,-1.3156,-1.2973,-1.2936,-1.2856,-1.2673,-1.2599,-1.2489,-1.2114,-1.2003,-1.2032,-1.2184,-1.223,-1.2258,-1.2317,-1.2367,-1.2326,0.0,0.0,0.0,0.0,0.0,0.0,-1.0381,0.0,-0.9907,-0.9646,-0.9432,-0.9218,-0.8911,-0.8727,-0.8504,-0.8241,-0.8028,-0.7632,-0.7095,-0.6435,-0.5991,-0.5719,-0.5233,-0.4788,-0.43,-0.3855,-0.3361,-0.2911,-0.2422,-0.193,-0.139,-0.0897,-0.0403,0.009,0.0807,0.1391,0.1887,0.0,0.0,0.0,0.0,0.0,0.0,0.0,0.0,0.0,0.0,0.0,0.0,0.0,0.0,0.0,0.0,0.0,0.0,-0.8035,-0.8532,-0.8935,-0.9267,-0.9621,-0.9967,-1.0334,-1.0526,-1.0975,-1.1633,-1.1838,-1.2118,-1.2485,-1.2485,-1.2485,-1.2526,-1.2661,-1.2837,-1.3039,-1.3173,-1.3367,-1.3526,-1.3584,-1.3433,-1.3219,-1.3219,-1.3084,-1.2845,-1.2758,-1.2734,-1.2742,-1.2829,-1.3028,-1.3322,-1.385,-1.3956,-1.394,-1.424,-1.4173,-1.4029,-1.4029,-1.3891,-1.3717,-1.3645,-1.3535,-1.3382,-1.3156,-1.3119,-1.3083,-1.2856,-1.2709,-1.2562,-1.2489,-1.2187,-1.207,-1.2292,-1.2426,0.0,-1.2523,-1.2752,0.0,-1.2369,-1.224,-1.2118,-1.1866,-1.165,0.0,0.0,-1.0722,-1.0337,-0.9907,-0.9864,-0.965,-0.9218,-0.9126,-0.8903,-0.8504,-0.8116,-0.7632,-0.7095,-0.6918,-0.6567,-0.5991,-0.5677,-0.5275,-0.4788,-0.4344,-0.3853,-0.3406,-0.2914,-0.2331,-0.166,-0.1166,-0.0583,0.0045,0.0583,0.1132,0.1653,0.0,0.0,0.0,0.0,0.0,0.0,0.0,0.0,0.0,0.0,0.0,0.0,0.0,0.0,0.0,0.0,0.0,0.0,0.0,-0.8201,-0.8614,-0.8989,-0.9321,-0.9626,-0.992,-1.0045,-1.0358,-1.0874,-1.1139,-1.1485,-1.1889,-1.2036,-1.2102,-1.2102,-1.2265,-1.246,-1.2662,-1.2792,-1.2978,0.0,0.0,-1.3052,-1.2893,-1.2893,-1.2766,-1.259,-1.259,-1.259,-1.259,-1.259,-1.2829,-1.3187,-1.3711,-1.3913,-1.3998,-1.4395,-1.4353,-1.4245,-1.4245,-1.4065,-1.3928,-1.3928,-1.3783,-1.3608,-1.3492,-1.3382,-1.3273,-1.3083,-1.2936,-1.2826,-1.2746,-1.2489,-1.2361,-1.2629,-1.2694,-1.2787,-1.2899,-1.3094,-1.3094,-1.2753,-1.2619,-1.2454,-1.2203,-1.1952,-1.178,0.0,-1.1127,-1.0689,-1.0342,-1.0299,-1.0081,-0.9607,-0.9607,-0.934,-0.8727,-0.8376,-0.7981,-0.758,-0.7272,-0.6922,-0.6523,-0.5944,-0.5542,-0.5275,0.0,-0.4166,-0.3853,-0.3181,-0.2599,-0.2064,-0.148,-0.0852,-0.0224,0.0362,0.087,0.1436,0.0,0.0,0.0,0.0,0.0,0.0,0.0,0.0,0.0,0.0,-0.5865,0.0,0.0,0.0,0.0,0.0,0.0,0.0,0.0,0.0,-0.8216,-0.8832,-0.8988,-0.9251,-0.9619,-0.9626,-0.9784,-1.007,-1.0371,-1.0713,-1.1019,-1.1327,-1.1459,-1.1459,-1.1644,-1.1798,-1.1989,-1.2134,-1.2287,-1.2447,-1.2447,-1.2447,-1.2447,0.0,-1.2447,-1.2455,-1.2503,-1.2519,-1.2527,-1.2574,-1.2797,-1.3076,-1.3442,-1.3759,-1.4109,-1.4431,-1.4466,-1.4433,-1.4433,-1.4281,-1.4129,-1.4129,-1.4,-1.3826,-1.3826,-1.3681,-1.3492,-1.3309,-1.3236,-1.3163,-1.2973,-1.2783,-1.2725,-1.2903,-1.2939,-1.3008,-1.3215,-1.3336,-1.3311,-1.3179,-1.2924,-1.2662,-1.2491,-1.2246,-1.2037,-1.2037,-1.1483,-1.1046,-1.0771,-1.0727,-1.0516,-1.0038,-0.9994,-0.9694,-0.8999,-0.8771,-0.8504,-0.8245,-0.758,-0.7183,-0.7051,-0.6251,-0.5808,-0.563,0.0,0.0,-0.421,-0.336,-0.2825,-0.2469,-0.1749,-0.1168,-0.0677,0.0092,0.065,0.1169,0.0,0.0,0.0,0.0,0.0,0.0,0.0,0.0,0.0,0.0,-0.6085,-0.6367,0.0,0.0,0.0,0.0,0.0,0.0,0.0,0.0,0.0,-0.8146,-0.8306,-0.8652,-0.9277,-0.9291,-0.9489,-0.9933,-1.0097,-1.0299,-1.0538,-1.0704,-1.0755,-1.0784,-1.1074,-1.1255,-1.1284,-1.1535,-1.1649,-1.1678,-1.1678,-1.1678,-1.1678,-1.1678,0.0,0.0,-1.2003,-1.2115,-1.2154,-1.2495,-1.263,-1.275,-1.3068,-1.3402,-1.3743,-1.4101,-1.4375,-1.4569,-1.4569,-1.4461,-1.4353,-1.4353,-1.4209,-1.4057,-1.4057,-1.3891,-1.3754,-1.3717,-1.3419,-1.3193,-1.3163,-1.2973,-1.2804,-1.2705,-1.2852,-1.2965,-1.2962,-1.3168,-1.3304,-1.3366,-1.3137,-1.3009,-1.2966,-1.2583,0.0,0.0,0.0,-1.1645,-1.1241,-1.1041,-1.0743,-1.025,-1.0081,-0.982,-0.9471,-0.9038,-0.8732,-0.8504,-0.8153,-0.7669,-0.7095,-0.6918,-0.6432,-0.5675,0.0,0.0,-0.4255,-0.3719,-0.3227,-0.2778,-0.2018,-0.1451,-0.0921,-0.0185,0.0378,0.0973,0.0,0.0,0.0,0.0,0.0,0.0,0.0,-0.5263,-0.5604,-0.5861,-0.6198,-0.6395,-0.6395,-0.6395,-0.6395,0.0,0.0,0.0,0.0,0.0,0.0,0.0,-0.8022,-0.8388,-0.8784,-0.8911,-0.9133,-0.9439,0.0,-0.9974,-1.015,-1.0457,-1.0587,-1.0616,-1.0958,-1.1099,-1.1128,-1.1382,-1.1487,-1.1487,-1.1487,-1.1487,-1.1487,-1.1487,0.0,0.0,-1.1751,-1.1844,-1.1928,-1.24,-1.2552,-1.2619,-1.298,-1.3195,-1.3433,-1.3958,-1.4193,-1.4375,-1.4557,-1.4569,-1.4497,-1.4497,-1.4389,-1.4245,-1.4245,-1.4101,-1.3928,-1.3826,-1.3645,-1.3499,-1.3382,-1.3193,-1.301,-1.2936,-1.2965,-1.3038,-1.3192,-1.3333,-1.3459,-1.3529,-1.3483,-1.3355,-1.3264,-1.2966,-1.2753,0.0,0.0,-1.2032,-1.1682,-1.1338,-1.0992,-1.0651,-1.0472,-1.0207,-0.982,-0.9602,-0.9213,-0.8771,-0.8504,-0.8113,-0.7496,-0.7228,-0.6738,-0.603,-0.5722,0.0,-0.461,-0.4166,-0.3585,-0.3002,-0.2377,-0.1817,-0.1204,-0.0421,0.0144,0.0688,0.0,0.0,0.0,0.0,0.0,0.0,0.0,-0.5402,-0.5718,-0.604,-0.6276,-0.6395,-0.6395,-0.6395,-0.6395,0.0,0.0,0.0,0.0,0.0,0.0,0.0,0.0,0.0,-0.8277,0.0,0.0,-0.886,-0.9348,0.0,0.0,0.0,0.0,0.0,-1.0718,-1.0864,-1.0885,-1.1162,-1.13,0.0,0.0,-1.13,0.0,0.0,0.0,0.0,0.0,-1.1603,-1.1715,-1.2208,-1.2439,-1.2575,-1.2873,-1.306,-1.3227,-1.3735,-1.3997,-1.4172,-1.4415,-1.455,-1.4605,-1.4605,-1.4533,-1.4425,-1.4425,-1.4317,-1.4137,-1.3964,-1.3863,-1.3761,-1.3608,-1.3382,-1.3236,-1.32,-1.3096,-1.3154,-1.3526,-1.3554,-1.3633,-1.3818,-1.3773,-1.3652,-1.3476,-1.3264,0.0,0.0,0.0,0.0,-1.2043,-1.1639,-1.1332,-1.1089,-1.0906,-1.0598,-1.0168,-1.0038,-0.9689,-0.913,-0.8815,-0.8464,-0.8028,-0.7496,-0.7007,-0.6517,-0.5985,0.0,0.0,-0.452,-0.3898,-0.3227,-0.2781,-0.2186,-0.1493,-0.0758,-0.0145,0.0446,0.0,0.0,0.0,0.0,0.0,0.0,0.0,-0.5578,-0.5784,-0.6286,-0.6377,-0.6395,-0.6395,-0.6395,-0.6395,0.0,0.0,0.0,0.0,0.0,0.0,0.0,0.0,0.0,0.0,0.0,0.0,-0.8461,-0.8984,0.0,0.0,0.0,0.0,0.0,0.0,-1.009,-1.0116,-1.0454,0.0,0.0,0.0,0.0,0.0,0.0,0.0,0.0,0.0,-1.1312,-1.1469,-1.1839,-1.2204,-1.2513,-1.255,-1.2905,-1.326,-1.3196,-1.3624,-1.4117,-1.4148,-1.4359,-1.4605,-1.4605,-1.4605,-1.4569,-1.4569,-1.4461,-1.4353,-1.4361,-1.4036,-1.379,-1.3797,-1.3608,-1.3419,-1.3236,-1.3185,-1.3338,-1.3733,-1.3601,-1.3715,-1.4288,-1.3942,-1.3695,-1.3652,-1.3483,0.0,0.0,0.0,0.0,0.0,-1.1957,-1.1731,-1.1284,-1.1241,-1.1068,-1.0641,-1.0212,-0.9951,-0.9907,-0.9213,-0.8775,-0.8504,-0.8028,-0.7544,-0.7007,0.0,0.0,0.0,-0.4612,-0.3987,-0.3497,-0.3047,-0.2434,-0.1713,-0.1191,-0.0586,0.0151,0.0,0.0,0.0,0.0,0.0,0.0,-0.5541,-0.573,-0.5973,-0.634,-0.6395,-0.6395,-0.6395,-0.6395,-0.6395,-0.6395,0.0,0.0,0.0,0.0,0.0,0.0,0.0,0.0,0.0,0.0,-0.811,-0.811,-0.8666,0.0,0.0,0.0,0.0,0.0,0.0,0.0,-1.0025,-1.0368,0.0,0.0,0.0,0.0,0.0,0.0,0.0,0.0,0.0,0.0,-1.1273,-1.1703,-1.1948,-1.2142,-1.2501,-1.2754,-1.2995,-1.3147,-1.3413,-1.3636,-1.3777,-1.3894,-1.4005,-1.4005,-1.4164,-1.4288,-1.4288,-1.4419,-1.4497,-1.4425,-1.4289,-1.408,-1.3826,-1.3717,-1.3608,-1.3419,-1.3273,-1.3377,-1.3928,-1.3817,-1.3841,-1.4323,-1.423,0.0,0.0,0.0,0.0,0.0,0.0,0.0,0.0,-1.2375,-1.2075,-1.1731,-1.1602,-1.1381,-1.1068,-1.0776,-1.0391,-0.9994,-0.9689,-0.9209,-0.8592,-0.842,-0.7889,-0.7098,0.0,0.0,0.0,-0.4966,-0.4342,-0.3717,-0.327,-0.2667,-0.2004,-0.1526,-0.088,-0.0152,0.0,0.0,0.0,0.0,0.0,-0.5292,-0.556,-0.5821,-0.6094,-0.6359,-0.6395,-0.6395,-0.6395,-0.6395,-0.6395,-0.6395,-0.6395,0.0,0.0,0.0,0.0,0.0,0.0,0.0,0.0,0.0,-0.7772,-0.7772,-0.847,-0.8806,0.0,0.0,0.0,0.0,0.0,0.0,0.0,0.0,0.0,0.0,0.0,0.0,0.0,0.0,0.0,0.0,0.0,0.0,0.0,0.0,0.0,-1.1882,-1.2299,-1.2611,-1.2827,-1.3124,-1.3291,-1.342,-1.3501,-1.3571,-1.3651,-1.3618,-1.3775,-1.3958,-1.3958,-1.4148,-1.4288,-1.419,-1.4198,-1.4134,-1.3848,-1.3795,-1.3761,-1.3608,-1.3419,-1.3496,-1.4129,-1.402,-1.4088,-1.4539,0.0,-1.4356,0.0,0.0,0.0,0.0,0.0,0.0,0.0,-1.2839,-1.2454,-1.2123,-1.1995,-1.1731,-1.1419,-1.1214,-1.0781,-1.0212,-1.0081,-0.9598,-0.8811,-0.8679,-0.8153,-0.7319,0.0,0.0,0.0,-0.5322,-0.4699,-0.3983,-0.3494,-0.2897,-0.2241,-0.1765,-0.1124,-0.0455,0.0,0.0,0.0,0.0,0.0,0.0,-0.556,-0.5821,-0.6094,-0.6359,-0.6395,-0.6395,-0.6395,-0.6395,-0.6395,-0.6395,-0.6395,0.0,0.0,0.0,0.0,0.0,0.0,0.0,0.0,0.0,-0.7513,-0.7513,-0.8383,-0.8806,-0.8813,-0.934,-0.9588,-0.9614,0.0,0.0,0.0,0.0,0.0,0.0,0.0,0.0,0.0,0.0,0.0,0.0,0.0,0.0,0.0,0.0,0.0,0.0,0.0,-1.2372,-1.2998,-1.3011,-1.3298,-1.3546,-1.3372,-1.3558,-1.3784,-1.3618,-1.3584,-1.3618,-1.3618,-1.3626,-1.3592,-1.3592,-1.3692,-1.3789,-1.3797,-1.3808,-1.3797,-1.3797,-1.3645,-1.3718,-1.4416,-1.4262,-1.4334,0.0,0.0,-1.4398,-1.4398,0.0,0.0,0.0,0.0,0.0,0.0,-1.3185,-1.2881,-1.2406,-1.2406,-1.2155,-1.1699,-1.1419,-1.1068,-1.0684,-1.0212,-0.9733,-0.9257,-0.8815,-0.8332,0.0,0.0,0.0,0.0,-0.5594,-0.4968,-0.4255,-0.3765,-0.3172,-0.2525,-0.2003,-0.1369,-0.0707,0.0,0.0,0.0,0.0,0.0,0.0,0.0,-0.5821,-0.6094,-0.6359,-0.6395,-0.6395,-0.6395,-0.6395,-0.6395,-0.6395,-0.6395,0.0,0.0,0.0,0.0,0.0,0.0,0.0,0.0,-0.7014,-0.7161,-0.7161,-0.7856,-0.8285,-0.8472,-0.9061,-0.9424,-0.9614,-0.9888,0.0,0.0,0.0,0.0,0.0,0.0,0.0,0.0,0.0,0.0,0.0,0.0,0.0,0.0,0.0,0.0,0.0,0.0,0.0,0.0,-1.2855,-1.3184,-1.3347,-1.3161,-1.3173,-1.3232,-1.3106,-1.3228,-1.3372,-1.3283,-1.3458,-1.3618,-1.3618,-1.3828,-1.397,-1.3824,-1.4013,-1.4109,-1.3826,-1.3761,-1.3874,-1.4416,-1.4426,0.0,-1.5052,-1.4699,-1.4398,0.0,0.0,0.0,0.0,0.0,0.0,0.0,-1.3398,-1.3179,-1.2881,-1.2577,-1.224,-1.1914,-1.1693,-1.1348,-1.0916,-1.0603,-1.0207,-0.9781,-0.9301,0.0,0.0,0.0,0.0,0.0,-0.5811,-0.5191,-0.4525,-0.3985,-0.3446,-0.281,-0.2289,-0.1761,-0.1263,0.0,0.0,0.0,0.0,0.0,0.0,0.0,-0.585,-0.6179,-0.6338,-0.6407,-0.6425,-0.6425,-0.641,-0.6395,-0.6395,-0.6395,0.0,0.0,0.0,0.0,0.0,0.0,0.0,-0.6694,-0.6907,-0.7,-0.7,-0.7709,-0.8128,-0.8325,-0.9032,-0.9438,-0.9614,-0.9888,-0.9999,0.0,0.0,0.0,0.0,0.0,0.0,-1.0172,0.0,0.0,0.0,0.0,0.0,0.0,0.0,0.0,0.0,0.0,0.0,0.0,0.0,-1.2833,-1.3186,-1.3139,-1.3111,-1.308,-1.2928,-1.3037,-1.3137,-1.3011,-1.314,-1.3292,-1.3227,-1.3576,-1.3876,-1.3732,-1.4097,-1.4325,-1.408,-1.3899,-1.3992,-1.4493,0.0,0.0,-1.5052,0.0,0.0,0.0,0.0,0.0,0.0,0.0,0.0,0.0,0.0,-1.3549,-1.3228,-1.2747,-1.2412,-1.216,-1.1914,-1.1564,-1.1127,-1.0819,-1.0424,-0.9994,-0.9519,0.0,0.0,0.0,0.0,0.0,-0.6033,-0.5455,-0.4746,-0.4253,-0.3675,-0.3097,-0.2527,-0.2053,-0.1516,0.0,0.0,0.0,0.0,0.0,0.0,0.0,-0.5875,-0.6245,-0.629,-0.6416,-0.6501,-0.652,-0.6453,-0.641,-0.641,0.0,0.0,0.0,0.0,0.0,0.0,0.0,0.0,-0.6708,-0.6907,-0.7013,-0.7033,-0.7866,-0.8304,-0.836,-0.9181,-0.9592,-0.9614,-0.9888,-0.9999,-1.0028,-0.9925,-0.9898,-0.9866,-0.9533,-0.9475,0.0,0.0,0.0,0.0,0.0,0.0,0.0,0.0,0.0,0.0,0.0,0.0,0.0,0.0,0.0,0.0,0.0,-1.3285,-1.3272,-1.308,-1.3019,-1.2989,-1.2836,-1.2805,0.0,-1.2652,-1.314,-1.3618,-1.3618,-1.406,-1.4425,-1.4389,-1.408,-1.4022,0.0,-1.4626,0.0,0.0,-1.509,0.0,0.0,0.0,0.0,0.0,0.0,0.0,0.0,0.0,-1.3957,-1.3436,-1.2973,-1.2619,-1.2406,-1.2118,-1.1774,-1.1327,-1.0852,-1.0424,-1.0038,-0.9519,0.0,0.0,0.0,0.0,0.0,-0.6305,-0.568,-0.4966,-0.452,-0.3952,-0.3383,-0.281,-0.2197,-0.1566,0.0,0.0,0.0,0.0,0.0,0.0,0.0,0.0,0.0,0.0,-0.6327,-0.6413,-0.6619,-0.6553,-0.6483,0.0,0.0,0.0,0.0,0.0,0.0,0.0,0.0,0.0,-0.6851,-0.6943,-0.7134,-0.7383,-0.78,-0.8236,-0.87,-0.9105,-0.9402,-0.9614,-0.9888,-1.0128,-1.0362,-1.0032,-0.9898,-0.9866,-0.9533,-0.9475,0.0,0.0,0.0,0.0,-1.0545,-1.0755,0.0,0.0,0.0,0.0,0.0,0.0,0.0,0.0,-1.1943,-1.2225,-1.29,0.0,-1.3437,-1.3263,-1.3241,-1.318,0.0,-1.2867,-1.2805,-1.2775,-1.3204,-1.3618,-1.3618,-1.413,-1.4533,-1.4425,-1.4325,-1.4346,-1.4641,0.0,0.0,-1.5325,0.0,0.0,0.0,0.0,0.0,0.0,0.0,0.0,0.0,0.0,-1.4047,-1.3709,-1.3243,-1.2796,-1.2406,-1.2118,-1.1866,-1.1607,-1.0992,-1.0641,-1.0516,-0.9694,0.0,0.0,0.0,0.0,-0.701,-0.652,-0.5944,-0.5238,-0.4792,-0.4231,-0.3623,-0.3097,-0.2588,-0.2119,0.0,0.0,0.0,0.0,0.0,0.0,0.0,0.0,0.0,0.0,0.0,-0.6393,-0.654,-0.6584,0.0,0.0,0.0,0.0,0.0,0.0,0.0,0.0,0.0,-0.6836,-0.6893,-0.6964,-0.7168,-0.7513,-0.7882,-0.8341,-0.8813,-0.9206,-0.946,-0.9614,-0.9888,-1.0154,-1.0387,-0.9882,-0.9684,-0.9636,-0.9128,0.0,0.0,0.0,0.0,0.0,-1.0061,-1.0294,0.0,-1.0891,-1.1019,-1.1053,0.0,0.0,0.0,0.0,-1.1678,-1.1943,-1.2552,-1.298,-1.3275,-1.3364,-1.3376,-1.3346,-1.3172,-1.308,-1.3038,-1.3016,-1.3381,-1.3732,-1.3799,-1.4233,-1.4569,-1.4497,-1.4566,0.0,0.0,0.0,-1.5389,-1.5389,0.0,0.0,0.0,0.0,0.0,0.0,0.0,0.0,0.0,0.0,-1.4479,-1.3818,-1.3529,-1.3133,-1.2534,-1.2166,-1.1957,-1.1828,-1.1079,-1.0684,-1.0684,-0.9738,0.0,0.0,0.0,0.0,-0.7224,-0.665,-0.6077,-0.5502,-0.5013,-0.4524,-0.4,-0.3419,-0.2914,-0.2444,0.0,0.0,0.0,0.0,0.0,0.0,0.0,0.0,0.0,0.0,0.0,0.0,0.0,0.0,0.0,0.0,0.0,0.0,0.0,0.0,0.0,0.0,-0.6787,-0.6893,-0.6914,-0.6964,-0.7194,-0.7558,-0.8068,-0.85,-0.8858,-0.9361,-0.9614,-0.9647,-0.9888,-1.0102,-1.0269,-0.9652,-0.9398,-0.9334,-0.8672,0.0,0.0,0.0,0.0,0.0,0.0,0.0,0.0,-1.055,-1.0704,-1.0764,-1.1181,0.0,0.0,0.0,0.0,0.0,-1.2278,-1.2666,-1.2988,-1.3408,-1.3511,-1.348,-1.3354,-1.3302,-1.3319,-1.3362,-1.3615,-1.3855,-1.4114,-1.4403,-1.4621,0.0,0.0,0.0,-1.534,-1.5416,-1.5423,0.0,0.0,0.0,0.0,0.0,0.0,0.0,0.0,0.0,0.0,0.0,0.0,-1.3887,-1.383,-1.3455,-1.2711,-1.2246,-1.2,-1.2,-1.1165,-1.0733,-1.0684,-0.9825,-0.9345,0.0,0.0,0.0,-0.7489,-0.6782,-0.6166,-0.5722,-0.5186,-0.4759,-0.4308,-0.3688,-0.3184,-0.2656,0.0,0.0,0.0,0.0,0.0,0.0,0.0,0.0,0.0,0.0,0.0,0.0,0.0,0.0,0.0,0.0,0.0,0.0,0.0,0.0,0.0,-0.6829,-0.6872,-0.6929,-0.6985,-0.7006,-0.7279,-0.7832,-0.8156,-0.8581,-0.9141,-0.9462,-0.9647,-0.9766,-0.9921,-1.0102,-1.0269,-0.9652,-0.9398,-0.9334,-0.8672,0.0,0.0,0.0,0.0,0.0,0.0,0.0,0.0,-1.0465,-1.0704,-1.0764,-1.1181,0.0,0.0,0.0,0.0,0.0,-1.2201,-1.246,-1.2646,-1.3339,-1.3511,-1.348,-1.348,-1.3385,-1.3411,-1.3741,-1.3802,-1.3922,-1.4302,-1.4473,-1.47,0.0,0.0,-1.5707,0.0,0.0,0.0,0.0,0.0,0.0,0.0,0.0,0.0,0.0,0.0,0.0,0.0,0.0,0.0,-1.4263,-1.3932,-1.3455,-1.2711,-1.2246,-1.2,-1.2,-1.1305,-1.0868,-1.0684,-1.0125,-0.9694,0.0,0.0,-0.8245,-0.7764,-0.7058,-0.6482,-0.5949,-0.5277,-0.4759,-0.4354,-0.3878,-0.3426,-0.2902,0.0,0.0,0.0,0.0,0.0,0.0,0.0,0.0,0.0,0.0,0.0,0.0,0.0,0.0,0.0,0.0,0.0,0.0,0.0,0.0,-0.695,-0.695,-0.695,-0.6964,-0.7,-0.7181,-0.7482,-0.7905,-0.8349,-0.8795,-0.9211,-0.9484,-0.9647,-0.9706,-0.9921,-1.0051,-1.0115,-0.9605,-0.9398,-0.9334,0.0,0.0,0.0,0.0,0.0,0.0,0.0,0.0,0.0,0.0,-1.0226,-1.0448,-1.0857,0.0,0.0,0.0,0.0,0.0,-1.2184,-1.2389,-1.2569,-1.3322,-1.3511,-1.3511,-1.3511,-1.3621,-1.3831,-1.4099,-1.4297,-1.4451,-1.462,-1.4715,-1.4932,-1.5401,0.0,0.0,0.0,0.0,0.0,0.0,0.0,0.0,0.0,0.0,0.0,0.0,0.0,0.0,0.0,0.0,0.0,0.0,-1.4148,-1.3649,-1.2711,-1.2369,-1.2118,-1.2,-1.1311,-1.0873,-1.0684,-1.0212,-0.9733,-0.9257,0.0,-0.8332,-0.7856,-0.7234,-0.67,-0.621,-0.5633,-0.5129,-0.465,-0.3863,-0.3184,-0.2557,0.0,0.0,0.0,0.0,0.0,0.0,0.0,0.0,0.0,0.0,0.0,0.0,0.0,0.0,0.0,0.0,0.0,0.0,0.0,-0.7,-0.7,-0.7,-0.7,-0.7,-0.7,-0.7337,-0.7638,-0.7953,-0.8511,-0.8968,-0.9283,-0.9517,-0.9588,-0.9614,-0.9888,-0.9999,-0.9979,-0.9581,-0.9398,-0.9334,0.0,0.0,0.0,0.0,0.0,0.0,0.0,0.0,0.0,0.0,0.0,0.0,0.0,0.0,0.0,-1.1301,-1.1301,-1.1464,-1.2184,-1.2389,-1.2569,-1.3322,-1.3511,-1.3528,-1.3622,-1.3879,-1.4198,-1.4536,-1.474,-1.4939,-1.5005,-1.5109,0.0,-1.5744,-1.5992,0.0,0.0,0.0,0.0,0.0,0.0,0.0,0.0,0.0,0.0,0.0,0.0,0.0,0.0,0.0,0.0,0.0,-1.4321,-1.378,-1.2711,-1.2491,-1.2283,-1.2,-1.144,-1.1003,-1.0684,-1.0299,-0.982,-0.9257,-0.8903,-0.842,-0.7852,-0.7408,-0.6874,-0.6343,-0.5897,-0.5337,-0.4755,-0.3809,-0.3087,-0.2409,0.0,0.0,0.0,0.0,0.0,0.0,0.0,0.0,0.0,0.0,0.0,0.0,0.0,0.0,0.0,0.0,0.0,0.0,0.0,-0.7,-0.7,-0.7,-0.7,-0.7,-0.7,-0.7337,-0.7684,-0.8089,-0.856,-0.9062,-0.9562,-0.9588,-0.9588,-0.9614,-0.9888,-0.9999,-0.9979,-0.9581,-0.9398,-0.9334,-0.8672,0.0,0.0,0.0,0.0,0.0,0.0,0.0,0.0,0.0,0.0,0.0,0.0,0.0,-1.1301,-1.1301,-1.1301,-1.1464,-1.2184,-1.2389,-1.2569,-1.3322,-1.3511,-1.3605,-1.3973,-1.4076,-1.4298,-1.4993,-1.5019,-1.5008,-1.5394,-1.5692,-1.5968,-1.6142,0.0,0.0,0.0,0.0,0.0,0.0,0.0,0.0,0.0,0.0,0.0,0.0,0.0,0.0,0.0,0.0,0.0,0.0,0.0,-1.378,-1.2711,-1.2491,-1.2283,-1.2,-1.1742,-1.1305,-1.0684,-1.0593,-1.0077,-0.9305,-0.9262,-0.8732,-0.7896,-0.758,-0.7048,-0.6343,-0.5897,-0.5205,-0.439,-0.3926,-0.3474,-0.2952,0.0,0.0,0.0,0.0,0.0,0.0,0.0,0.0,0.0,0.0,0.0,0.0,0.0,0.0,0.0,0.0,0.0,0.0,0.0,-0.7,-0.7,-0.7,-0.7,-0.7048,-0.7118,-0.7365,-0.7706,-0.8112,-0.8816,-0.9324,-0.9588,-0.9588,-0.9647,-0.9732,-0.9921,-1.0076,-1.0141,-0.9628,-0.9398,-0.9334,-0.8672,-0.8394,0.0,0.0,0.0,0.0,0.0,0.0,0.0,0.0,-0.9619,-1.014,-1.0285,-1.0779,-1.1301,-1.1301,-1.1301,-1.1464,-1.2184,-1.2389,-1.2569,-1.3322,-1.3691,-1.3913,-1.4067,-1.429,-1.4607,-1.5112,-1.5334,-1.5545,-1.5827,0.0,-1.6338,-1.6388,0.0,0.0,0.0,0.0,0.0,0.0,0.0,0.0,0.0,0.0,0.0,0.0,0.0,0.0,0.0,0.0,0.0,0.0,0.0,-1.3869,-1.2973,-1.2705,-1.2369,-1.2,-1.1785,-1.1348,-1.0684,-1.0684,-1.0168,-0.9305,-0.9305,-0.8775,-0.79,-0.7808,-0.7228,-0.634,-0.5542,-0.4992,-0.4501,-0.3948,-0.3458,-0.2995,0.0,0.0,0.0,0.0,0.0,0.0,0.0,0.0,0.0,0.0,0.0,0.0,0.0,0.0,0.0,0.0,0.0,0.0,-0.7133,-0.7133,-0.7133,-0.7133,-0.7133,-0.7181,-0.7251,-0.7408,-0.7724,-0.8223,-0.9055,-0.951,-0.9588,-0.9588,-0.9673,-0.9799,-0.9947,-1.0102,-1.0269,-0.9652,-0.9398,-0.9334,-0.8672,-0.8394,0.0,0.0,0.0,0.0,0.0,0.0,0.0,0.0,-0.9423,-0.9961,-1.008,-1.0583,-1.1147,-1.1267,-1.1301,-1.1464,-1.2184,-1.2389,-1.2569,-1.3322,-1.3802,-1.4127,-1.4256,-1.4572,-1.4958,-1.5326,-1.5703,-1.6095,-1.6375,-1.6517,0.0,0.0,0.0,0.0,0.0,0.0,0.0,0.0,0.0,0.0,0.0,0.0,0.0,0.0,0.0,0.0,0.0,0.0,0.0,0.0,0.0,-1.3913,-1.3107,-1.2833,-1.2454,-1.2,-1.1871,-1.1392,-1.0684,-1.0684,-1.0207,-0.9388,-0.9345,-0.8863,-0.8116,-0.794,-0.7319,-0.634,-0.5542,-0.5055,-0.4714,-0.4129,-0.3653,-0.32,0.0,0.0,0.0,0.0,0.0,0.0,0.0,0.0,0.0,0.0,0.0,0.0,0.0,0.0,0.0,0.0,0.0,0.0,-0.7398,-0.7398,-0.7398,-0.7398,-0.7398,-0.7398,-0.7398,-0.7398,-0.7766,-0.8499,-0.9249,-0.9607,-0.9588,-0.9614,-0.9673,-0.9799,-0.9947,-1.0102,-1.0269,-0.9652,-0.9398,-0.9334,-0.8672,-0.8394,-0.8435,0.0,0.0,0.0,0.0,0.0,0.0,0.0,-0.926,-0.9666,-1.0004,-1.0379,-1.0772,-1.119,-1.1301,-1.1464,-1.2184,-1.2389,-1.2569,-1.3322,-1.381,-1.4204,-1.4598,-1.4958,-1.5326,-1.572,-1.6141,-1.6556,-1.7113,-1.7004,0.0,0.0,0.0,0.0,0.0,0.0,0.0,0.0,0.0,0.0,0.0,0.0,0.0,0.0,0.0,0.0,0.0,0.0,0.0,0.0,0.0,0.0,-1.31,-1.2833,-1.2454,-1.2,-1.2,-1.1559,-1.0684,-1.0684,-1.0294,-0.9602,-0.9388,-0.9038,-0.8548,-0.8072,-0.7319,-0.6343,-0.5897,-0.5408,-0.4933,-0.4537,-0.4167,-0.3728,0.0,0.0,0.0,0.0,0.0,0.0,0.0,0.0,0.0,0.0,0.0,0.0,0.0,0.0,0.0,0.0,0.0,0.0,-0.7398,-0.7398,-0.7398,-0.7398,-0.7398,-0.7412,-0.7461,-0.7802,-0.8141,-0.8499,-0.9045,-0.9409,-0.9614,-0.9706,-0.9818,-0.9947,-1.0136,-1.029,-1.0397,-0.97,-0.9398,-0.9334,-0.8672,-0.8427,-0.848,0.0,0.0,0.0,0.0,0.0,0.0,0.0,0.0,0.0,-1.0004,-1.0379,-1.0772,-1.119,-1.1301,-1.1464,-1.2184,-1.2389,-1.2569,-1.3322,-1.4016,-1.4538,-1.4658,-1.4958,-1.5403,-1.6089,-1.6733,-1.7209,-1.7393,-1.7403,0.0,0.0,0.0,0.0,0.0,0.0,0.0,0.0,0.0,0.0,0.0,0.0,0.0,0.0,0.0,0.0,0.0,0.0,0.0,0.0,0.0,0.0,-1.3313,-1.2918,-1.2454,-1.2,-1.2,-1.1613,-1.0916,-1.0776,-1.0381,-0.9864,-0.9476,-0.9038,-0.8548,-0.7672,-0.6962,-0.6343,-0.5897,-0.5408,-0.4924,-0.4508,-0.4167,-0.3881,0.0,0.0,0.0,0.0,0.0,0.0,0.0,0.0,0.0,0.0,-0.5671,-0.5624,0.0,0.0,0.0,0.0,0.0,0.0,0.0,-0.7524,-0.7524,-0.7524,-0.7524,-0.7538,-0.7572,-0.7859,-0.8121,-0.8388,-0.8924,-0.9313,-0.9515,-0.9706,-0.9929,-1.0136,-1.0239,-1.0368,-1.0456,-0.9851,-0.9525,-0.935,-0.8867,-0.8617,-0.8521,0.0,0.0,0.0,0.0,0.0,0.0,0.0,0.0,0.0,-1.0004,-1.0379,-1.0772,-1.119,-1.1301,-1.1464,-1.2184,-1.2389,-1.2569,-1.3322,-1.4101,-1.4794,-1.506,-1.5403,-1.584,-1.6484,-1.7093,-1.7557,-1.7663,-1.7717,0.0,0.0,0.0,0.0,0.0,0.0,0.0,0.0,0.0,0.0,0.0,0.0,0.0,0.0,0.0,0.0,0.0,0.0,0.0,0.0,0.0,0.0,-1.3398,-1.2918,-1.2454,-1.2,-1.2,-1.1699,-1.1094,-1.0819,-1.0467,-1.0081,-0.9519,-0.8907,-0.8288,-0.7672,-0.7098,-0.652,-0.6118,-0.5675,-0.523,-0.4743,-0.44,-0.4121,0.0,0.0,-0.5982,-0.5912,0.0,0.0,0.0,0.0,0.0,0.0,-0.5811,-0.5842,0.0,0.0,0.0,0.0,0.0,0.0,0.0,-0.7712,-0.7712,-0.7712,-0.7719,-0.7719,-0.7712,-0.7712,-0.7858,-0.8173,-0.8827,-0.92,-0.9352,-0.9649,-0.9961,-1.0244,-1.0308,-1.0393,-1.0472,-1.0081,-0.9724,-0.9389,-0.9187,-0.8874,-0.8561,-0.881,0.0,0.0,0.0,0.0,0.0,0.0,0.0,0.0,-1.0004,-1.0379,-1.0772,-1.119,-1.1301,-1.1464,-1.2211,-1.2417,-1.2597,-1.3352,-1.4165,-1.4947,-1.566,-1.615,-1.6536,-1.685,-1.7235,-1.7629,-1.7931,0.0,0.0,0.0,0.0,0.0,0.0,0.0,0.0,0.0,0.0,0.0,0.0,0.0,0.0,0.0,0.0,0.0,0.0,0.0,0.0,0.0,0.0,0.0,-1.3398,-1.2918,-1.2454,0.0,-1.2,-1.1742,-1.1305,-1.0862,-1.0511,-1.0164,-0.9563,-0.8775,-0.794,-0.79,-0.7459,-0.6792,-0.652,-0.6118,-0.563,-0.5188,-0.4757,-0.439,0.0,0.0,-0.599,-0.5982,0.0,0.0,0.0,0.0,0.0,0.0,0.0,0.0,0.0,0.0,0.0,0.0,0.0,0.0,0.0,-0.7891,-0.7857,-0.7857,-0.7753,-0.7753,-0.7857,-0.7857,-0.7929,-0.8051,-0.8401,-0.8692,-0.8945,-0.9469,-0.9753,-0.986,-1.0267,-1.047,-1.0472,-1.0081,-0.9779,-0.9528,-0.9217,-0.8988,-0.883,-0.8879,-0.8932,0.0,0.0,0.0,0.0,0.0,0.0,0.0,-1.0004,-1.0379,-1.0772,-1.119,-1.1301,-1.149,-1.2328,-1.2555,-1.2765,-1.3658,-1.451,-1.5261,-1.5896,-1.6557,-1.6995,-1.6939,-1.741,-1.7897,-1.7983,0.0,0.0,0.0,0.0,0.0,0.0,0.0,0.0,0.0,0.0,0.0,0.0,0.0,0.0,0.0,0.0,0.0,0.0,0.0,0.0,0.0,0.0,-1.3455,-1.3398,-1.2918,-1.2454,0.0,-1.2,-1.1742,-1.1305,-1.0862,-1.0255,-0.9519,-0.9345,-0.8863,-0.8113,-0.7984,-0.7544,-0.701,-0.6564,-0.6118,-0.563,-0.5188,-0.4848,-0.457,0.0,0.0,0.0,0.0,0.0,0.0,0.0,0.0,0.0,0.0,0.0,0.0,0.0,0.0,0.0,0.0,-0.785,0.0,0.0,0.0,-0.7946,-0.7946,-0.7891,-0.787,-0.7946,-0.7946,-0.7966,-0.8,-0.8198,-0.8449,-0.8754,-0.9229,-0.9572,-0.9816,-1.0096,-1.0329,-1.048,-1.0339,-1.01,-0.9841,-0.9801,-0.9509,-0.9152,-0.9203,-0.9125,-0.8996,-0.8996,0.0,0.0,0.0,0.0,0.0,0.0,0.0,-1.1052,-1.1316,-1.1402,-1.1592,-1.2455,-1.2693,-1.3002,-1.4254,-1.4888,-1.5351,-1.6026,-1.6727,-1.7165,-1.7061,-1.7548,-1.8,0.0,0.0,0.0,0.0,0.0,0.0,0.0,0.0,0.0,0.0,0.0,0.0,0.0,0.0,0.0,0.0,0.0,0.0,0.0,0.0,0.0,0.0,-1.373,-1.3398,-1.3398,-1.2918,-1.2454,-1.2,-1.2,-1.165,-1.0997,-1.0819,-1.0255,-0.9432,-0.9349,-0.8951,-0.8372,-0.8028,-0.7676,-0.7234,-0.6789,-0.6343,-0.5985,-0.5497,-0.5144,-0.4759,0.0,0.0,0.0,0.0,0.0,0.0,0.0,0.0,0.0,0.0,0.0,0.0,0.0,0.0,-0.7664,0.0,0.0,0.0,0.0,0.0,0.0,-0.8,-0.8,-0.8021,-0.8021,-0.8041,-0.8041,-0.8062,-0.818,-0.837,-0.8665,-0.8994,-0.9353,-0.9723,-0.9874,-1.0114,-1.0426,-1.0643,-1.0506,-1.0197,-1.0407,-1.0115,-0.9536,-0.9649,-0.9474,-0.9192,-0.9192,-0.9192,-0.9243,-0.9568,0.0,0.0,0.0,0.0,-1.1352,-1.1477,-1.1528,-1.1745,-1.2627,-1.2965,-1.3446,-1.4921,-1.5287,-1.545,-1.6199,-1.6836,-1.7241,-1.7203,-1.7627,0.0,0.0,0.0,0.0,0.0,0.0,0.0,0.0,0.0,0.0,0.0,0.0,0.0,0.0,0.0,0.0,0.0,0.0,0.0,0.0,0.0,-1.4335,-1.4095,-1.3652,-1.3398,-1.3398,-1.2918,-1.2454,-1.2,-1.1914,-1.1472,-1.0684,-1.0684,-1.0294,-0.9602,-0.9388,-0.9038,-0.8592,-0.816,-0.7812,-0.7507,-0.7061,-0.6656,-0.634,-0.5852,-0.5453,-0.5022,0.0,0.0,0.0,0.0,0.0,0.0,0.0,0.0,0.0,0.0,-0.7202,-0.7336,0.0,0.0,0.0,-0.8257,-0.8321,-0.8353,-0.8353,0.0,0.0,-0.8,-0.8,-0.8049,-0.8167,-0.8167,-0.8229,-0.8353,-0.8373,-0.8397,-0.8452,-0.878,-0.8971,-0.9064,-0.9747,-1.0092,-1.0181,-1.0655,-1.0714,-1.0455,-1.0488,-1.0299,-1.0015,-1.0038,-0.999,-0.9961,-0.9961,-0.9961,-0.9947,-1.0029,-1.0303,0.0,0.0,0.0,-1.1477,-1.1494,-1.1578,-1.1872,-1.2797,-1.3639,-1.4501,-1.5405,-1.5624,-1.5802,-1.6423,-1.7017,-1.74,0.0,0.0,0.0,0.0,0.0,0.0,0.0,0.0,0.0,0.0,0.0,0.0,0.0,0.0,0.0,0.0,0.0,0.0,0.0,0.0,0.0,0.0,-1.4532,-1.4128,-1.4088,-1.3652,-1.3398,-1.3398,-1.2918,-1.2454,-1.2,-1.1613,-1.1127,-1.0684,-1.0684,-1.0294,-0.9602,-0.9388,-0.913,-0.8823,-0.8332,-0.8025,-0.7812,-0.7275,-0.6786,-0.634,-0.5852,-0.5544,-0.5285,0.0,0.0,0.0,0.0,0.0,0.0,0.0,0.0,0.0,0.0,0.0,-0.7935,0.0,0.0,0.0,-0.8553,-0.8508,-0.8447,-0.8394,-0.834,-0.8291,-0.8221,-0.8221,-0.8242,-0.8311,-0.8311,-0.8332,-0.8394,-0.8427,-0.8467,-0.8467,-0.8691,-0.8877,-0.903,-0.9652,-1.0041,-1.0254,-1.0789,-1.0931,-1.083,-1.0913,-1.0733,-1.0439,-1.0439,-1.0303,-1.0092,-1.0092,-1.0092,-1.0126,-1.0371,-1.0606,-1.0859,-1.109,0.0,0.0,0.0,-1.1778,-1.2023,-1.2959,-1.3835,-1.4698,-1.5487,-1.5689,-1.59,-1.6613,-1.6956,-1.72,-1.7356,0.0,0.0,0.0,0.0,0.0,0.0,0.0,0.0,0.0,0.0,0.0,0.0,0.0,0.0,0.0,0.0,0.0,0.0,0.0,0.0,-1.4951,-1.4402,-1.4046,-1.3864,-1.3568,-1.3355,-1.3228,-1.2875,-1.2454,-1.2,-1.1527,-1.1084,-1.0684,-1.0684,-1.0381,-0.982,-0.9432,-0.9218,-0.9087,-0.8464,-0.8069,-0.7856,-0.7455,-0.7058,-0.6567,-0.621,-0.5855,-0.55,0.0,0.0,0.0,0.0,0.0,0.0,0.0,0.0,0.0,0.0,0.0,0.0,0.0,0.0,0.0,0.0,-0.8602,-0.8521,-0.8475,-0.8475,-0.8475,-0.8475,-0.8475,-0.8475,-0.8475,-0.8475,-0.8475,-0.8475,-0.8521,-0.8553,-0.8553,-0.8683,-0.8861,-0.9065,-0.9614,-0.9993,-1.0259,-1.088,-1.115,-1.115,-1.1251,-1.1105,-1.0841,-1.0841,-1.0661,-1.0405,-1.0452,-1.0452,-1.0518,-1.0834,-1.1011,-1.1151,-1.1465,-1.1653,0.0,0.0,0.0,-1.2413,-1.3104,-1.3892,-1.4698,-1.5487,-1.5689,-1.59,-1.6725,0.0,-1.707,0.0,0.0,0.0,0.0,0.0,0.0,0.0,0.0,0.0,0.0,0.0,0.0,0.0,0.0,0.0,0.0,0.0,0.0,0.0,0.0,-1.4979,-1.4706,-1.4328,-1.3997,-1.3695,-1.3483,-1.3307,-1.3094,-1.2711,-1.2332,-1.2,-1.1527,-1.1084,-1.0684,-1.0684,-1.0424,-0.9994,-0.9563,-0.9345,-0.9262,-0.8644,-0.8201,-0.794,-0.768,-0.7282,-0.6836,-0.6609,-0.621,-0.5766,0.0,0.0,0.0,0.0,0.0,0.0,0.0,0.0,0.0,0.0,0.0,0.0,-0.8695,-0.8695,-0.8695,-0.8695,-0.8695,-0.8683,-0.8675,-0.8675,-0.8675,-0.8675,-0.8675,0.0,-0.8675,-0.8675,-0.8675,-0.8675,-0.8683,-0.8683,-0.8704,-0.8822,-0.8908,-0.8938,-0.9653,-1.0012,-1.0071,-1.0943,-1.1301,-1.1293,-1.1301,-1.1293,-1.1267,-1.1267,-1.1258,-1.1266,-1.1391,-1.1441,0.0,0.0,0.0,0.0,0.0,-1.1778,-1.1902,0.0,0.0,0.0,-1.3286,-1.3892,-1.4698,-1.5487,-1.5689,-1.59,0.0,0.0,0.0,0.0,0.0,0.0,0.0,0.0,0.0,0.0,0.0,0.0,0.0,0.0,0.0,0.0,0.0,0.0,0.0,0.0,0.0,0.0,0.0,-1.4706,-1.4692,-1.4328,-1.3997,-1.3695,-1.3483,-1.3307,-1.3094,-1.2381,-1.2043,-1.2,-1.1527,-1.1084,-1.0684,-1.0684,-1.0424,-0.9994,-0.9689,-0.9476,-0.9262,-0.8999,-0.86,-0.8157,-0.794,-0.7544,-0.7051,-0.6836,-0.6482,-0.6038,0.0,0.0,0.0,0.0,0.0,0.0,0.0,0.0,0.0,0.0,0.0,0.0,0.0,-0.8895,-0.8895,-0.8895,-0.8862,-0.8793,-0.8695,-0.8695,-0.8695,-0.8695,-0.8695,-0.8695,-0.8695,-0.8695,-0.8695,-0.8695,-0.8793,-0.8822,-0.8822,-0.8923,-0.8964,-0.8998,-0.9746,-1.0055,-1.0129,-1.0951,-1.1352,-1.1427,-1.1427,-1.1477,-1.1553,-1.1553,-1.1553,-1.1553,-1.1619,0.0,0.0,0.0,0.0,0.0,0.0,-1.1927,-1.2072,-1.2353,-1.282,-1.3351,-1.3607,-1.4084,-1.4643,-1.5175,-1.5505,-1.5835,-1.6404,-1.6558,0.0,0.0,0.0,0.0,0.0,0.0,0.0,0.0,0.0,0.0,0.0,0.0,0.0,0.0,0.0,0.0,0.0,0.0,0.0,0.0,0.0,0.0,-1.4692,-1.4328,-1.3913,-1.3525,-1.344,-1.3222,-1.2833,-1.2295,-1.2,-1.2,-1.1527,-1.1176,-1.0873,-1.0776,-1.0511,-1.0164,-0.9951,-0.965,-0.9262,-0.8999,-0.8644,-0.8201,-0.8113,-0.7808,-0.7323,-0.7102,-0.6792,-0.6482,0.0,0.0,0.0,0.0,0.0,0.0,0.0,0.0,0.0,-0.9237,0.0,0.0,0.0,0.0,-0.9096,-0.9076,-0.8984,-0.8903,-0.8805,-0.8805,-0.8805,-0.8805,-0.8805,-0.8805,-0.8805,-0.8805,-0.8805,-0.8805,-0.8883,-0.8952,-0.9013,-0.9044,-0.9145,-0.9341,-0.9951,-1.0205,-1.0211,-1.1073,-1.1502,-1.1578,-1.1578,-1.1628,-1.1703,-1.1703,-1.1703,0.0,0.0,0.0,0.0,0.0,0.0,0.0,0.0,-1.2118,-1.2349,-1.2615,-1.3084,-1.3552,-1.3837,-1.4194,-1.4607,-1.5001,-1.5395,-1.5799,-1.6221,0.0,0.0,0.0,0.0,0.0,0.0,0.0,0.0,0.0,0.0,0.0,0.0,0.0,0.0,0.0,0.0,0.0,0.0,0.0,0.0,0.0,0.0,0.0,-1.4692,-1.4328,-1.387,-1.3398,-1.3264,-1.3009,-1.2705,-1.2246,-1.2,-1.2,-1.1527,-1.1181,-1.1008,-1.0776,-1.0554,-1.0294,-1.0081,-0.9777,-0.9388,-0.913,-0.8775,-0.842,-0.8245,-0.8025,-0.768,-0.7367,-0.7102,-0.6836,0.0,0.0,0.0,0.0,0.0,0.0,0.0,0.0,-0.9299,-0.9299,0.0,0.0,0.0,0.0,0.0,-0.9217,-0.9076,-0.9016,-0.9016,-0.9016,-0.9016,-0.9016,-0.9016,-0.9016,-0.9016,-0.9016,-0.9016,-0.9016,-0.9016,-0.9076,-0.9197,-0.9197,-0.9447,-0.9919,-1.033,-1.044,-1.0379,-1.1317,-1.1703,-1.1703,-1.1703,-1.1712,-1.1721,-1.1721,-1.1746,0.0,-1.1888,-1.1929,0.0,-1.2088,0.0,0.0,0.0,-1.2404,-1.2707,-1.2726,-1.3286,-1.3882,0.0,0.0,0.0,-1.4983,-1.5377,-1.578,-1.6202,0.0,0.0,0.0,0.0,0.0,0.0,0.0,0.0,0.0,0.0,0.0,0.0,0.0,0.0,0.0,0.0,0.0,0.0,0.0,0.0,0.0,0.0,-1.4692,-1.4692,-1.4328,-1.387,-1.3398,-1.296,-1.2705,-1.2705,-1.2246,-1.2,-1.2,-1.1527,-1.1181,-1.1008,-1.0776,-1.0554,-1.0294,-1.0081,-0.9864,-0.9602,-0.9388,-0.913,-0.8867,-0.8376,-0.8201,-0.8157,-0.768,-0.7367,-0.7098,0.0,0.0,0.0,0.0,0.0,-0.9594,-0.9594,-0.9506,-0.9446,0.0,0.0,0.0,-0.9299,-0.9299,-0.9299,-0.9268,-0.9239,-0.9228,-0.9228,-0.9228,-0.9228,-0.9228,-0.9228,-0.9228,-0.9228,-0.9228,-0.9228,-0.9228,-0.9228,-0.9228,-0.9268,-0.9268,-0.95,-0.9927,-1.0418,-1.0795,-1.1039,-1.1514,-1.1753,-1.1852,-1.1852,-1.2074,-1.2421,0.0,0.0,0.0,0.0,-1.2903,-1.293,0.0,-1.2983,-1.2983,0.0,-1.303,-1.3203,-1.3488,-1.3736,-1.3947,-1.4258,0.0,0.0,0.0,0.0,0.0,-1.5771,-1.59,0.0,0.0,0.0,0.0,0.0,0.0,0.0,0.0,0.0,0.0,0.0,0.0,0.0,0.0,0.0,0.0,0.0,0.0,0.0,0.0,-1.495,-1.4692,-1.4692,-1.411,-1.3695,-1.3398,-1.3137,-1.2881,-1.2705,-1.2246,-1.2,-1.2,-1.1527,-1.1267,-1.1224,-1.0862,-1.0641,-1.0554,-1.0168,-0.9951,-0.9864,-0.9476,-0.913,-0.8867,-0.8604,-0.838,-0.8197,-0.8069,-0.7764,-0.737,0.0,0.0,-0.9862,-0.9832,-0.9812,-0.9812,-0.9812,-0.9851,-0.9881,0.0,0.0,0.0,-0.9963,-0.9912,-0.9879,-0.9879,-0.9828,-0.9807,-0.9807,-0.9644,-0.9556,-0.9556,-0.9388,-0.9299,-0.9299,-0.9299,-0.9299,-0.9299,-0.9299,-0.9328,-0.9377,-0.9557,-0.9873,-1.0341,-1.0827,-1.1258,-1.1649,-1.1803,-1.1902,-1.1995,-1.2175,-1.2436,0.0,-1.2882,-1.3111,0.0,0.0,0.0,-1.3296,-1.3296,-1.3296,0.0,0.0,0.0,-1.3608,-1.3837,-1.4011,-1.4194,-1.4442,-1.4515,-1.4515,-1.4515,0.0,0.0,-1.5597,-1.5695,-1.582,0.0,0.0,0.0,0.0,0.0,0.0,0.0,0.0,0.0,0.0,0.0,0.0,0.0,0.0,0.0,0.0,0.0,0.0,-1.5069,-1.4607,-1.4233,-1.4077,-1.3745,-1.3435,-1.3226,-1.3165,-1.2966,-1.2705,-1.2246,-1.2,-1.2,-1.1527,-1.1305,-1.1305,-1.0954,-1.0776,-1.0684,-1.0294,-1.0081,-0.9951,-0.9602,-0.9345,-0.9174,-0.8823,-0.8648,-0.8464,-0.8288,-0.8025,-0.7764,0.0,0.0,-1.0,-1.0,-1.0038,-1.0066,-1.0066,-1.0315,-1.0505,0.0,-1.0767,-1.0945,-1.0945,-1.0834,-1.0767,-1.0745,-1.0633,-1.0566,-1.0543,-1.0201,-1.0014,-1.0014,-0.9659,-0.9446,-0.941,-0.941,-0.9384,-0.9348,-0.9348,-0.9435,-0.9596,-0.9959,-1.0422,-1.0984,-1.1347,-1.1733,-1.2126,-1.2126,-1.2153,-1.2252,-1.2577,-1.2744,0.0,0.0,-1.3387,-1.3433,-1.3433,-1.3433,-1.3433,-1.3433,-1.3433,0.0,0.0,0.0,0.0,0.0,-1.4222,-1.4515,-1.4515,-1.4515,-1.4515,-1.4515,-1.4772,0.0,-1.5588,-1.5659,-1.5767,0.0,0.0,0.0,0.0,0.0,0.0,0.0,0.0,0.0,0.0,0.0,0.0,0.0,0.0,0.0,0.0,-1.5111,-1.4925,-1.4543,-1.4059,-1.3627,-1.3206,-1.3252,-1.3186,-1.2975,-1.304,-1.2966,-1.2662,-1.2235,-1.2043,-1.2,-1.157,-1.1348,-1.1305,-1.1094,-1.0916,-1.0727,-1.0424,-1.0207,-0.9994,-0.9733,-0.9646,-0.9559,-0.913,-0.8955,-0.8911,-0.8464,-0.8245,-0.8201,-1.0108,-1.0088,-1.0069,-1.0,-1.0275,-1.0473,-1.0473,-1.0844,-1.1119,-1.1119,-1.1186,-1.1221,-1.1221,-1.1199,-1.1132,-1.1034,-1.099,-1.0945,-1.0834,-1.0739,-1.0693,-1.0693,-1.0642,-1.045,-1.0109,-1.01,-0.9944,-0.9614,-0.9614,-0.9798,-1.016,-1.0212,-1.0664,-1.1393,-1.1453,-1.1781,-1.2249,-1.2249,-1.251,-1.2896,-1.2765,-1.3084,-1.3681,-1.3736,-1.3983,-1.4277,-1.4277,-1.4277,-1.4277,-1.4277,-1.4277,-1.4277,0.0,0.0,0.0,-1.4387,0.0,0.0,0.0,0.0,0.0,0.0,0.0,0.0,-1.5524,-1.5452,-1.5415,0.0,0.0,0.0,0.0,0.0,0.0,0.0,0.0,0.0,0.0,0.0,0.0,0.0,0.0,0.0,0.0,-1.5111,-1.4925,-1.4543,-1.4059,-1.3627,-1.3206,-1.3227,-1.3054,-1.2694,-1.2921,-1.2812,-1.2391,-1.2348,-1.2203,-1.2,-1.1742,-1.1527,-1.1305,-1.1094,-1.0965,-1.0916,-1.0472,-1.0294,-1.0207,-0.9994,-0.9777,-0.9559,-0.9301,-0.9218,-0.9174,-0.8863,-0.864,-0.8504,-1.0273,-1.0449,-1.0576,-1.0465,-1.0812,-1.1091,-1.1091,-1.1413,-1.1646,-1.1646,-1.1792,-1.1892,-1.1892,-1.1892,-1.1869,-1.1799,-1.1799,-1.1776,-1.1705,-1.1518,-1.1406,-1.1406,-1.1223,-1.1016,-1.081,-1.081,-1.0707,-1.0501,-1.0501,-1.0604,-1.081,-1.1004,-1.1299,-1.171,-1.1906,-1.2145,-1.2416,-1.2613,-1.2968,-1.3389,-1.3257,0.0,-1.4175,-1.4371,-1.4557,-1.4771,-1.4967,-1.5172,-1.534,-1.534,-1.5287,0.0,0.0,-1.489,-1.4772,0.0,-1.4515,-1.4515,0.0,0.0,0.0,-1.4515,0.0,0.0,0.0,-1.5542,-1.559,0.0,0.0,0.0,0.0,0.0,0.0,0.0,0.0,0.0,0.0,0.0,0.0,0.0,0.0,0.0,0.0,-1.4606,-1.4381,-1.3906,-1.3551,-1.321,-1.2912,-1.2976,-1.2785,-1.2361,-1.2628,-1.2635,-1.2312,-1.2236,-1.2118,-1.2,-1.1785,-1.157,-1.1305,-1.1181,-1.1094,-1.1008,-1.0743,-1.0603,-1.0511,-1.0386,-1.0207,-0.9907,-0.9559,-0.9432,-0.9432,-0.9174,-0.9038,-0.8947,-1.0735,-1.1004,-1.1253,-1.1139,-1.1482,-1.179,-1.179,-1.2038,-1.2242,-1.2272,-1.2531,-1.2731,-1.2807,-1.2817,-1.2792,-1.2792,-1.2792,-1.2767,-1.2742,-1.2353,-1.2125,-1.2125,-1.174,-1.1496,-1.1411,-1.1411,-1.1373,-1.1309,-1.1309,-1.1334,-1.142,-1.1759,-1.1935,-1.203,-1.2353,-1.2567,-1.2672,-1.2995,-1.3449,-1.3897,0.0,-1.4136,-1.4554,-1.4962,-1.5123,-1.518,-1.5588,-1.5908,-1.6192,-1.6192,-1.6138,-1.5972,-1.5648,-1.5421,0.0,0.0,0.0,0.0,0.0,0.0,0.0,0.0,0.0,-1.5322,0.0,0.0,0.0,0.0,0.0,0.0,0.0,0.0,0.0,0.0,0.0,0.0,0.0,0.0,0.0,0.0,0.0,0.0,0.0,-1.4029,-1.3775,-1.3229,-1.301,-1.2826,-1.2599,-1.2682,-1.2513,-1.2101,-1.2342,-1.2397,-1.2202,-1.2099,-1.2051,-1.2012,-1.1849,-1.1613,-1.1397,-1.1305,-1.1224,-1.1051,-1.1008,-1.0916,-1.0733,-1.0727,-1.0554,-1.0337,-0.9903,-0.9689,-0.9646,-0.9432,-0.9345,-0.9345,-1.1855,-1.1852,-1.1893,-1.1871,-1.2202,-1.2494,-1.2494,-1.2755,-1.3061,-1.3285,-1.3348,-1.3523,-1.3866,-1.3915,-1.3888,-1.3818,-1.3818,-1.3765,-1.3659,-1.3207,-1.2969,-1.2969,-1.258,-1.2191,-1.1831,-1.1821,-1.1655,-1.1309,-1.1309,-1.1487,-1.1821,-1.1869,-1.2087,-1.2438,-1.2486,-1.2754,-1.3199,-1.3256,-1.3806,0.0,-1.4679,-1.4772,0.0,-1.5389,-1.5541,-1.5598,-1.5974,-1.6154,-1.6192,0.0,-1.6192,-1.6151,0.0,-1.6008,-1.589,-1.5843,0.0,0.0,0.0,0.0,0.0,0.0,-1.5588,0.0,0.0,0.0,0.0,0.0,0.0,0.0,0.0,0.0,0.0,0.0,0.0,0.0,0.0,0.0,0.0,0.0,0.0,0.0,0.0,0.0,-1.3455,-1.3229,-1.301,-1.2826,-1.2599,-1.2449,-1.224,-1.2018,-1.212,-1.206,-1.1852,-1.2124,-1.2165,-1.1992,-1.1972,-1.1871,-1.1656,-1.1397,-1.1305,-1.1262,-1.1094,-1.1008,-1.0965,-1.0776,-1.0684,-1.0641,-1.0337,-1.012,-0.9907,-0.9646,-0.9559,-0.9559,-1.2185,-1.2285,-1.2436,-1.2369,-1.2678,-1.2946,-1.2946,-1.3304,-1.3691,-1.4095,-1.4128,-1.4198,-1.4377,-1.4397,-1.4354,-1.424,0.0,-1.415,0.0,0.0,-1.3683,-1.3683,-1.3288,-1.3005,-1.2831,-1.259,-1.2401,-1.2241,-1.2241,-1.2304,-1.2464,-1.2464,-1.2561,-1.2735,-1.2986,-1.3214,-1.3458,0.0,-1.4398,0.0,0.0,0.0,0.0,-1.5814,-1.6201,-1.6664,-1.6838,-1.706,-1.7229,0.0,-1.7154,0.0,0.0,0.0,0.0,0.0,0.0,0.0,0.0,0.0,0.0,0.0,0.0,0.0,-1.6276,0.0,-1.6233,0.0,0.0,0.0,0.0,0.0,0.0,0.0,0.0,0.0,0.0,0.0,0.0,0.0,0.0,0.0,0.0,0.0,0.0,0.0,0.0,-1.2856,-1.2783,-1.2489,-1.2224,-1.2003,-1.1902,-1.186,-1.1798,-1.183,-1.189,-1.1981,-1.2015,-1.198,-1.1871,-1.1656,-1.1527,-1.1527,-1.1267,-1.1181,-1.1181,-1.1084,-1.0997,-1.0868,-1.0738,-1.0564,-1.0386,-1.0299,-1.0255,-1.0207,-1.2762,-1.2828,-1.2986,-1.2894,-1.3135,-1.333,-1.3427,-1.3856,-1.4311,-1.474,-1.479,-1.4841,-1.4945,-1.5056,0.0,0.0,-1.4922,-1.4877,0.0,0.0,-1.4424,0.0,0.0,0.0,0.0,-1.3414,-1.3164,-1.3047,-1.3047,-1.3023,-1.2905,-1.2905,-1.2964,-1.3091,-1.3369,-1.3633,-1.3896,0.0,-1.4853,-1.5019,-1.5791,-1.6232,-1.6457,-1.6457,-1.6926,-1.7549,-1.7549,-1.7754,-1.8008,-1.8008,-1.7896,0.0,-1.7427,0.0,0.0,0.0,0.0,0.0,-1.6333,0.0,0.0,0.0,0.0,0.0,0.0,0.0,0.0,0.0,0.0,0.0,0.0,0.0,0.0,-1.5103,0.0,0.0,0.0,0.0,0.0,0.0,0.0,0.0,0.0,0.0,0.0,0.0,-1.2849,-1.281,-1.2774,-1.2515,-1.2298,-1.2077,-1.1892,-1.1771,-1.1757,-1.1646,-1.1718,-1.1964,-1.1993,-1.2038,-1.208,-1.1866,-1.1785,-1.1785,-1.1564,-1.1483,-1.1483,-1.1483,-1.1397,-1.1267,-1.1267,-1.1176,-1.1035,-1.0771,-1.0684,-1.0684,-1.3954,-1.3732,-1.3566,-1.3566,-1.3586,-1.3693,-1.4036,-1.4461,0.0,0.0,0.0,0.0,0.0,0.0,0.0,0.0,0.0,-1.6336,-1.5875,0.0,-1.5255,0.0,0.0,-1.4364,0.0,0.0,-1.387,-1.3486,-1.3486,-1.3281,-1.2905,-1.2905,-1.3096,-1.3486,-1.3496,-1.3965,-1.4774,-1.4803,-1.5019,-1.543,-1.5909,-1.6604,-1.7376,0.0,-1.7607,-1.7988,-1.7988,0.0,0.0,-1.8008,-1.8008,0.0,0.0,0.0,0.0,0.0,0.0,0.0,0.0,0.0,0.0,-1.6897,0.0,0.0,0.0,0.0,-1.6542,0.0,0.0,0.0,0.0,0.0,-1.5548,-1.4821,-1.442,0.0,0.0,0.0,0.0,0.0,0.0,0.0,0.0,0.0,0.0,-1.2507,-1.2625,-1.2629,-1.2416,-1.2514,-1.2489,-1.2305,-1.2114,-1.1898,-1.1719,-1.1777,-1.1823,-1.1898,-1.1987,-1.2158,-1.2363,-1.2118,-1.2,-1.2,-1.2,-1.2,-1.2,-1.2,-1.1957,-1.1957,-1.1957,-1.1957,-1.1866,-1.0992,-1.0684,-1.0684,-1.4403,-1.4383,-1.4324,-1.4324,-1.4237,-1.441,0.0,-1.5295,0.0,0.0,0.0,0.0,0.0,-1.7226,-1.7216,0.0,0.0,-1.7083,-1.685,-1.6688,0.0,0.0,0.0,-1.5282,0.0,0.0,0.0,0.0,-1.423,-1.416,-1.4021,-1.4021,-1.41,-1.425,-1.454,-1.4839,0.0,0.0,0.0,0.0,0.0,-1.7623,-1.8095,0.0,0.0,-1.8008,-1.8008,-1.8008,0.0,-1.8008,-1.8008,-1.8008,-1.8008,-1.794,-1.7896,-1.7896,-1.7759,0.0,0.0,0.0,-1.7358,-1.7141,0.0,0.0,0.0,0.0,0.0,0.0,0.0,0.0,0.0,-1.5652,-1.5257,-1.4794,-1.4299,-1.3762,0.0,0.0,0.0,0.0,0.0,0.0,0.0,0.0,0.0,-1.2164,-1.2294,-1.2429,0.0,-1.2386,-1.2358,-1.2482,-1.215,-1.1966,-1.1892,-1.1808,-1.1864,-1.2086,-1.2131,-1.2282,-1.2577,-1.2369,-1.224,-1.224,-1.208,-1.2,-1.2,-1.2,-1.2,-1.2,-1.2,-1.2,-1.1957,-1.165,-1.1559,-1.1559,-1.5042,-1.5096,-1.5071,-1.496,0.0,0.0,0.0,0.0,0.0,0.0,-1.732,0.0,-1.7791,0.0,-1.7905,0.0,-1.7708,-1.7697,-1.745,-1.744,0.0,-1.7012,-1.6657,0.0,0.0,0.0,0.0,0.0,0.0,-1.477,-1.4609,-1.4609,-1.47,-1.4861,-1.5181,-1.5376,-1.553,-1.5973,-1.6326,0.0,0.0,-1.8137,0.0,0.0,-1.8449,-1.8449,0.0,-1.8537,-1.8666,-1.8596,-1.8562,-1.8562,-1.8467,-1.8467,-1.8467,-1.8467,-1.8387,-1.8238,-1.8168,-1.8107,0.0,-1.7781,-1.7572,0.0,-1.7269,0.0,0.0,0.0,0.0,0.0,0.0,0.0,-1.536,-1.4932,-1.4416,-1.3802,0.0,-1.2775,0.0,0.0,0.0,0.0,0.0,0.0,-1.2059,-1.1924,-1.2061,-1.2246,0.0,0.0,-1.2392,-1.2586,-1.2342,-1.215,-1.2003,-1.1855,-1.1948,-1.2176,-1.2276,-1.2516,-1.2783,-1.2711,-1.2668,-1.2625,-1.2375,-1.2246,-1.2246,-1.2246,-1.2246,-1.2246,-1.2246,-1.2295,-1.2381,-1.208,-1.2,-1.2,-1.5833,-1.5865,-1.581,0.0,-1.5898,0.0,0.0,0.0,-1.7549,0.0,-1.7976,-1.8182,-1.8133,-1.8512,-1.8543,-1.7937,-1.8279,-1.8331,-1.7864,-1.7833,0.0,0.0,-1.7605,-1.7318,-1.6838,0.0,0.0,0.0,0.0,-1.5151,-1.4679,-1.4679,-1.4928,-1.5353,-1.5363,-1.5598,-1.5974,-1.6456,-1.6678,-1.6779,-1.7607,-1.82,-1.863,-1.9052,0.0,-1.9284,-1.9264,-1.9505,-1.9883,-1.9677,-1.9604,-1.9568,-1.9396,-1.9323,-1.9323,-1.9323,-1.9323,-1.9251,-1.9078,-1.9004,-1.8968,-1.8765,0.0,0.0,0.0,0.0,-1.6919,0.0,0.0,0.0,0.0,0.0,-1.5904,-1.5309,-1.4756,-1.4029,-1.2989,0.0,0.0,0.0,0.0,0.0,0.0,-1.2027,-1.1833,-1.1802,-1.1934,-1.2061,0.0,0.0,-1.2671,-1.2629,-1.2636,-1.2415,-1.204,-1.204,-1.204,-1.2113,-1.2438,-1.2758,-1.2991,-1.3102,-1.31,-1.3094,-1.2833,-1.2747,-1.2747,-1.2747,-1.2747,-1.2747,-1.2747,-1.2875,-1.3015,-1.2338,-1.2086,-1.2086,-1.6247,-1.6645,-1.6988,0.0,-1.7341,-1.732,0.0,0.0,0.0,0.0,-1.8637,-1.8956,-1.9634,-1.9825,-1.994,-2.0152,-2.0244,0.0,0.0,0.0,0.0,-1.8247,-1.8184,-1.7946,-1.7472,-1.7431,0.0,-1.6578,0.0,-1.6341,-1.5938,-1.5938,-1.6,-1.6123,-1.6424,-1.661,-1.6754,-1.7236,-1.7616,-1.7987,-1.8563,-1.9068,0.0,0.0,-2.0041,-2.055,-1.9915,-1.9792,-1.9883,-1.9847,-1.9811,-1.9811,-1.9775,-1.9739,-1.9713,-1.9568,-1.9532,-1.9459,-1.9287,-1.9214,-1.9178,-1.8968,-1.8818,-1.8623,0.0,0.0,0.0,0.0,0.0,0.0,0.0,0.0,0.0,-1.5496,-1.4642,-1.3924,-1.3668,0.0,0.0,-1.2744,0.0,0.0,0.0,-1.2212,-1.2081,-1.1833,-1.1821,0.0,0.0,0.0,0.0,-1.3032,-1.29,-1.2709,-1.2452,-1.2452,-1.2384,-1.235,-1.2674,-1.2879,-1.2991,-1.3229,-1.3313,-1.3313,-1.3264,-1.3222,-1.3222,-1.3222,-1.3222,-1.3222,-1.3222,-1.3264,-1.3307,-1.31,-1.3058,-1.3058,-1.7142,-1.7608,0.0,-1.825,0.0,0.0,-1.8067,0.0,0.0,-1.9372,-1.962,0.0,-2.0689,-2.073,-2.0791,-2.0991,-2.0988,0.0,-2.0522,0.0,0.0,-1.9561,-1.9351,-1.8971,-1.8458,-1.8249,0.0,-1.7316,0.0,-1.7182,-1.6974,-1.6974,-1.6974,-1.6984,-1.7203,-1.7316,-1.7347,-1.7792,-1.8392,-1.9046,-1.9295,0.0,0.0,-2.0276,-2.0669,-2.1067,-2.0821,-2.0726,-2.0737,-2.0626,-2.0589,-2.0589,-2.0515,-2.0478,-2.0441,-2.0339,-2.0302,-2.0265,-2.0041,-2.0013,-1.9928,-1.9741,-1.9493,-1.9246,-1.9023,-1.876,-1.8405,0.0,0.0,0.0,0.0,0.0,0.0,-1.5599,-1.4972,-1.4446,0.0,0.0,0.0,0.0,0.0,0.0,0.0,0.0,-1.2212,-1.2027,0.0,0.0,0.0,0.0,0.0,-1.3178,-1.3083,-1.2936,-1.2716,-1.2716,-1.2651,-1.249,-1.2954,-1.3127,-1.3103,-1.3381,-1.3525,-1.3525,-1.344,-1.3398,-1.3398,-1.3398,-1.3398,-1.3398,-1.3483,-1.361,-1.3743,-1.3815,-1.3646,-1.3398,-1.8249,-1.8552,0.0,0.0,0.0,0.0,0.0,-1.9363,0.0,-2.0151,0.0,-2.111,-2.138,-2.1434,-2.1385,-2.1275,0.0,-2.1208,-2.1154,-2.1144,-2.1087,-2.0988,-2.0615,-2.0111,-1.9535,-1.9112,-1.8564,0.0,0.0,-1.7823,-1.7729,-1.7729,-1.7729,-1.7699,-1.7761,-1.7823,0.0,-1.8371,-1.9056,-1.9837,-1.9889,-2.018,-2.0627,-2.1032,-2.1229,-2.1333,-2.1738,-2.1845,-2.1769,-2.1617,-2.154,-2.1502,-2.132,-2.1282,-2.1282,-2.1244,-2.1244,-2.1205,-2.0984,-2.0945,-2.0906,-2.0693,-2.0264,-1.984,-1.9802,-1.9315,-1.8843,-1.8564,-1.821,0.0,0.0,0.0,0.0,-1.5703,0.0,0.0,0.0,0.0,0.0,0.0,0.0,0.0,0.0,0.0,0.0,0.0,0.0,0.0,0.0,0.0,0.0,-1.3288,-1.3273,0.0,-1.2936,0.0,-1.284,-1.2705,-1.3267,-1.349,-1.3366,-1.3662,-1.3822,-1.3815,-1.3646,-1.3561,-1.3561,-1.3561,-1.3561,-1.3603,-1.3773,-1.399,-1.4208,-1.4356,-1.4104,-1.3646,-1.9015,0.0,0.0,0.0,0.0,-2.0571,-2.0872,-2.0776,-2.0675,-2.0763,-2.12,-2.1647,-2.2067,-2.2121,-2.2273,-2.2607,-2.2629,0.0,0.0,0.0,0.0,-2.1034,-2.0913,-2.0658,-2.0133,-2.0048,-1.9581,0.0,0.0,0.0,-1.7946,-1.7946,-1.7853,-1.7719,-1.8102,-1.8475,-1.8901,-1.9357,0.0,-2.0065,-2.0408,-2.0898,-2.1464,-2.1549,-2.1834,-2.2173,-2.2258,-2.2063,-2.1807,-2.1769,-2.1731,-2.1731,-2.1693,-2.1693,-2.1655,-2.1502,-2.1436,-2.1387,-2.1205,-2.1138,-2.1089,-2.0906,-2.0769,-2.0594,-2.0275,-2.0101,-1.987,-1.925,-1.8967,-1.8657,-1.8249,0.0,0.0,0.0,0.0,0.0,0.0,0.0,0.0,0.0,0.0,0.0,0.0,0.0,0.0,0.0,0.0,0.0,0.0,0.0,0.0,0.0,0.0,0.0,0.0,0.0,-1.3174,-1.3247,-1.361,-1.387,-1.4135,-1.4407,-1.4524,-1.4524,-1.4482,-1.4482,-1.4482,-1.4482,-1.4482,-1.4489,-1.4524,-1.4566,-1.4615,-1.4608,-1.4699,-1.479,0.0,0.0,0.0,0.0,0.0,0.0,0.0,-2.1888,0.0,-2.1801,-2.1976,-2.227,-2.2619,-2.2673,-2.2761,-2.2979,-2.3001,-2.2866,-2.2552,-2.2505,-2.236,-2.206,-2.1786,0.0,-2.1171,-2.0936,-2.0559,-1.9977,0.0,0.0,-1.9177,-1.8923,-1.8786,-1.8711,-1.9195,-1.9658,0.0,0.0,0.0,-2.0935,-2.1157,-2.1564,-2.2062,-2.2062,-2.22,-2.2402,-2.2402,-2.241,-2.2436,-2.207,-2.1959,-2.1959,-2.1845,-2.1807,-2.1769,-2.1693,-2.183,-2.1976,-2.1781,-2.1713,-2.1674,-2.1479,-2.1231,-2.0984,-2.0664,-2.0625,-2.045,-1.9927,-1.9592,-1.9156,-1.8518,-1.7898,0.0,0.0,0.0,0.0,0.0,0.0,0.0,0.0,0.0,0.0,0.0,0.0,0.0,0.0,0.0,0.0,0.0,0.0,0.0,0.0,0.0,0.0,0.0,0.0,0.0,-1.3717,-1.3871,-1.4064,-1.4293,-1.4594,-1.4692,-1.4692,-1.4692,-1.4692,-1.4692,-1.4692,-1.4692,-1.4692,-1.4866,-1.495,-1.5068,-1.5193,-1.5409,-1.559,0.0,-2.1124,0.0,0.0,-2.2094,0.0,-2.2443,-2.2884,-2.3037,-2.2722,-2.2764,-2.2947,-2.3249,-2.3229,-2.3273,-2.3371,-2.3345,-2.3318,-2.3318,-2.3318,-2.3274,-2.3154,-2.2768,-2.2437,-2.2064,-2.1718,-2.1398,0.0,0.0,0.0,0.0,-2.0117,-1.9936,0.0,0.0,0.0,0.0,0.0,-2.1385,-2.1773,-2.188,-2.2173,-2.2526,-2.2633,-2.2665,-2.2676,-2.2831,-2.3071,-2.3328,-2.2751,-2.2509,-2.2433,-2.2279,-2.2241,-2.2241,-2.2241,-2.2462,-2.2685,-2.2527,-2.2448,-2.2368,-2.218,-2.1827,-2.1497,-2.1301,-2.1192,-2.1006,-2.0635,-2.0188,-1.9573,-1.8723,-1.8312,0.0,0.0,0.0,0.0,0.0,0.0,0.0,0.0,0.0,0.0,0.0,0.0,0.0,0.0,0.0,0.0,0.0,0.0,0.0,0.0,0.0,-1.4165,-1.4093,0.0,-1.4059,0.0,-1.436,-1.4522,-1.4677,-1.4919,-1.4992,-1.4992,-1.4992,-1.4992,-1.4992,-1.4992,-1.4992,-1.5033,-1.5208,-1.5416,-1.5567,-1.5775,-1.5989,-1.617,0.0,0.0,0.0,0.0,0.0,0.0,0.0,-2.3727,-2.3779,-2.2981,-2.3245,-2.3716,-2.4209,-2.4038,-2.41,-2.4581,-2.4452,-2.4344,-2.4344,-2.4344,-2.4148,-2.3651,-2.3585,-2.316,-2.2299,-2.2233,-2.1993,0.0,0.0,0.0,0.0,0.0,0.0,0.0,0.0,0.0,0.0,-2.1445,-2.1767,-2.2024,-2.2428,-2.2734,-2.297,-2.3417,-2.358,-2.3645,-2.4142,-2.4338,-2.4331,-2.4097,-2.3816,-2.3647,-2.3607,-2.3607,-2.3607,-2.3607,-2.3501,-2.3404,-2.3404,-2.3243,-2.3041,-2.2849,-2.2767,-2.2706,-2.2504,-2.211,-2.1729,-2.1511,-2.081,-2.0033,-1.9354,-1.9165,-1.8892,0.0,0.0,0.0,0.0,0.0,0.0,0.0,0.0,0.0,0.0,0.0,0.0,0.0,0.0,0.0,0.0,0.0,0.0,-1.4553,0.0,-1.4425,-1.4093,-1.437,0.0,-1.4995,-1.5291,-1.5632,-1.5918,-1.5948,-1.5963,-1.5963,-1.5963,-1.5963,-1.5963,-1.5963,-1.5963,-1.5963,-1.6004,-1.6004,-1.6046,-1.6278,-1.6484,-1.6648,0.0,0.0,0.0,0.0,0.0,0.0,0.0,-2.4499,-2.4597,-2.4588,-2.4408,-2.442,-2.4763,-2.4703,-2.4753,-2.4943,-2.4808,-2.4701,-2.4701,-2.4555,-2.4399,-2.4192,-2.4181,-2.3864,-2.3138,-2.3127,-2.2925,0.0,0.0,0.0,0.0,0.0,0.0,0.0,0.0,-2.1945,-2.2215,-2.241,-2.2696,-2.3052,-2.321,-2.3547,-2.3919,-2.4115,-2.4181,-2.4213,-2.441,-2.4661,-2.4891,-2.4839,-2.4443,-2.4025,-2.3855,-2.3815,-2.3825,-2.3836,-2.3958,-2.4099,-2.4099,-2.4018,-2.3946,-2.3721,-2.3473,-2.3194,-2.2869,-2.2646,-2.2362,-2.1879,-2.1204,-2.0537,-2.0159,-1.9764,-1.9373,0.0,0.0,0.0,0.0,0.0,0.0,0.0,0.0,0.0,0.0,0.0,0.0,0.0,0.0,0.0,0.0,0.0,0.0,-1.4955,0.0,-1.5024,-1.5134,-1.5131,-1.5368,-1.5764,-1.5786,-1.5913,-1.6087,-1.6087,-1.6087,-1.6087,-1.6087,-1.6087,-1.6128,-1.6245,-1.6278,-1.6319,-1.6574,-1.6689,-1.673,-1.6935,-1.7139,-1.7335,-2.3098,0.0,-2.3843,0.0,-2.4267,-2.4751,-2.5096,-2.5153,-2.5337,-2.5865,-2.5535,-2.529,-2.5498,-2.5442,-2.547,-2.5627,-2.5429,-2.5309,-2.5309,-2.5132,-2.4916,-2.4814,-2.4734,0.0,-2.3962,-2.3951,-2.3787,-2.3438,-2.311,0.0,0.0,0.0,0.0,0.0,-2.2892,-2.3132,-2.3438,-2.3438,-2.3635,-2.3951,-2.3951,-2.417,-2.4508,-2.4639,-2.4734,-2.4705,-2.4847,-2.5109,-2.5423,-2.5423,-2.5071,-2.4667,-2.4495,-2.4403,-2.4414,-2.4465,-2.4661,-2.4825,-2.4825,-2.4783,-2.4659,-2.4513,-2.423,-2.3906,-2.3588,-2.3361,-2.3063,-2.2321,-2.1679,-2.1134,-2.1006,-2.0536,-2.006,-1.9734,0.0,0.0,0.0,0.0,0.0,0.0,-1.7067,-1.6661,-1.6661,0.0,0.0,0.0,0.0,0.0,0.0,0.0,0.0,0.0,0.0,0.0,0.0,-1.5897,-1.6067,-1.6412,-1.6349,-1.6411,-1.65,-1.65,-1.65,-1.65,-1.65,-1.65,-1.65,-1.6648,-1.6722,-1.6804,-1.7131,-1.7294,-1.7383,-1.7627,-1.7829,-1.8014,-2.4074,-2.4568,-2.49,-2.49,-2.5337,-2.5693,-2.5704,-2.5704,-2.5888,-2.6432,-2.649,-2.649,-2.649,-2.6229,-2.6302,-2.6823,-2.6704,-2.658,-2.658,-2.6343,-2.5956,0.0,0.0,-2.4986,-2.4486,-2.4486,-2.4476,-2.4465,0.0,0.0,-2.3673,0.0,-2.3673,-2.3694,-2.4246,-2.4465,-2.4465,-2.4465,-2.4476,-2.4486,-2.4486,-2.4486,-2.4541,-2.4989,-2.5204,-2.527,-2.571,-2.5884,-2.5895,-2.5895,-2.5884,-2.5884,-2.5884,-2.5884,-2.5884,-2.5884,-2.5717,-2.5601,-2.5601,-2.5369,-2.5189,-2.5189,-2.5179,-2.5137,-2.4925,-2.4514,-2.3939,-2.3074,-2.2342,-2.1869,-2.1869,-2.1507,-2.1054,-2.0632,0.0,0.0,0.0,0.0,0.0,0.0,-1.7742,-1.7495,-1.7495,0.0,0.0,0.0,0.0,0.0,0.0,0.0,0.0,-1.6096,-1.6211,0.0,-1.6117,-1.6621,-1.6878,-1.6886,-1.721,-1.7392,-1.7392,-1.7392,-1.7392,-1.7392,-1.7392,-1.7392,-1.7392,-1.74,-1.7505,-1.77,-1.7691,-1.7821,-1.804,-1.8282,-1.8514,-1.8705,-2.513,-2.5348,-2.5463,-2.5463,-2.5601,-2.583,-2.6175,-2.626,-2.6404,-2.6921,-2.699,-2.699,-2.699,-2.6897,-2.6925,0.0,-2.6933,-2.6809,0.0,-2.6603,-2.6412,-2.6255,-2.6203,-2.5847,-2.5209,-2.5198,-2.4963,-2.4486,0.0,0.0,0.0,-2.4246,-2.4246,-2.4257,-2.4421,-2.4486,-2.4486,-2.4486,-2.4661,-2.4996,-2.4996,-2.5153,-2.5511,-2.5777,-2.5873,-2.5937,-2.6257,-2.6396,-2.6396,-2.6396,-2.6396,-2.6396,-2.6396,-2.6146,-2.5895,-2.5895,-2.5853,-2.5812,-2.5812,-2.5728,-2.5633,-2.5517,-2.5464,-2.5422,-2.5158,-2.4755,-2.4302,-2.3887,-2.3236,-2.2653,-2.2207,-2.1877,-2.1517,-2.1074,0.0,0.0,0.0,0.0,0.0,0.0,-1.9098,-1.8769,0.0,-1.8453,0.0,0.0,0.0,0.0,0.0,0.0,0.0,0.0,-1.7021,0.0,-1.745,-1.7618,-1.78,-1.794,-1.802,-1.8,-1.7797,-1.7797,-1.7797,-1.7797,-1.7797,-1.7797,-1.7838,-1.8,-1.8112,-1.8193,-1.8474,-1.8634,-1.8714,-1.8913,-1.9231,-1.9585,-2.5647,-2.5865,-2.6003,-2.6003,-2.6152,-2.6393,-2.6703,-2.6749,-2.6864,-2.7144,-2.719,-2.7259,-2.7495,-2.7518,0.0,-2.7201,-2.7108,-2.7015,-2.7015,-2.6809,-2.6727,-2.6727,-2.6644,-2.6375,-2.5898,0.0,0.0,-2.5293,-2.4996,-2.4869,-2.4869,-2.4789,-2.4749,-2.476,-2.4945,-2.5022,-2.5022,-2.5103,-2.5308,-2.5571,-2.5694,-2.5912,-2.6188,-2.6313,-2.6354,-2.6388,-2.6733,-2.6883,-2.6906,-2.7097,-2.7153,-2.7153,-2.7153,-2.6941,-2.6663,-2.6256,-2.6146,-2.6146,-2.6146,-2.6146,-2.6104,-2.5895,-2.5822,-2.5728,-2.5422,-2.5061,-2.4722,-2.4608,-2.4104,-2.3562,-2.313,-2.2689,-2.2251,-2.1963,-2.1504,-2.1142,-2.1066,0.0,0.0,0.0,0.0,0.0,0.0,-1.9256,0.0,0.0,0.0,0.0,0.0,0.0,0.0,-1.757,-1.7942,0.0,-1.8436,-1.8503,-1.8592,-1.8643,-1.8563,-1.8402,-1.8241,-1.8241,-1.8282,-1.8402,-1.8402,-1.8434,-1.8514,-1.8674,-1.8794,-1.8882,-1.9192,-1.939,-1.9508,-1.9696,-2.0145,-2.0682,-2.5819,-2.6198,0.0,0.0,-2.6909,0.0,-2.719,-2.7213,-2.7247,-2.7247,-2.727,-2.7506,-2.7977,-2.8035,-2.7839,-2.7328,0.0,0.0,0.0,-2.7129,-2.7035,-2.7035,-2.687,-2.6723,-2.6648,-2.6648,-2.6636,-2.6603,-2.5898,-2.5595,-2.5595,-2.5381,-2.5322,-2.5376,-2.5795,-2.6014,-2.6036,-2.6256,-2.6329,-2.634,-2.6621,-2.6704,-2.6704,-2.6704,-2.6704,-2.676,-2.7231,-2.7399,-2.7467,-2.797,-2.8128,-2.8128,-2.8128,-2.8128,-2.7936,-2.6973,-2.6704,-2.6704,-2.6704,-2.6704,-2.6662,-2.6382,-2.6307,-2.6148,-2.5738,-2.5464,-2.5285,-2.5242,-2.4891,-2.4571,-2.4498,-2.3785,-2.32,-2.3168,-2.2611,-2.2115,-2.1925,0.0,0.0,0.0,0.0,0.0,0.0,-2.0036,-2.0036,0.0,0.0,0.0,0.0,0.0,-1.8832,-1.8803,-1.8986,-1.9087,-1.9087,-1.9275,-1.9271,-1.9042,-1.8851,-1.8772,-1.8772,-1.8772,-1.8891,-1.9073,-1.9082,-1.9192,-1.9381,-1.9381,-1.9508,-1.9676,-1.9912,-2.0147,-2.0381,-2.0644,-2.1252,-2.2007,0.0,0.0,-2.7047,-2.7047,-2.7151,-2.719,-2.719,-2.7552,-2.7805,-2.7805,-2.8126,-2.8402,-2.8517,-2.8528,-2.8482,-2.8367,-2.8356,-2.8356,-2.8356,-2.8313,-2.8259,-2.8259,-2.8217,-2.7949,-2.7363,-2.7352,-2.7129,-2.6603,-2.6438,-2.6341,-2.6341,-2.63,-2.6459,-2.6796,-2.6908,-2.7207,-2.7563,-2.765,-2.765,-2.765,-2.7736,-2.7725,-2.7768,-2.7908,-2.7951,-2.8005,-2.8279,-2.8357,-2.8379,-2.8537,-2.8582,-2.8582,-2.8582,-2.8582,-2.845,-2.7878,-2.7725,-2.7725,-2.7725,-2.7725,-2.7725,-2.7693,-2.7327,-2.6905,-2.6485,-2.6146,-2.5937,-2.577,-2.5504,-2.5185,-2.4592,-2.4307,-2.4041,-2.3679,-2.3204,-2.2829,-2.2791,-2.2351,0.0,0.0,-2.1876,-2.1628,-2.1183,-2.1391,-2.1368,0.0,0.0,0.0,0.0,0.0,-2.0307,-1.971,-1.9889,-1.9994,-1.9994,-1.9855,-1.9745,-1.9706,-1.9627,-1.9636,-1.9636,-1.9636,-1.9627,-1.9706,-1.9912,-2.0029,-2.0069,-2.0216,-2.0333,-2.0411,-2.0731,-2.0935,-2.1081,-2.1791,-2.2405,-2.3005,-2.7133,-2.719,-2.719,-2.719,-2.7415,-2.7575,-2.7575,-2.7989,-2.831,-2.831,-2.854,-2.8792,-2.9045,-2.9068,-2.916,-2.9378,-2.8964,-2.87,-2.87,-2.87,-2.87,-2.87,-2.87,-2.852,-2.8117,-2.8117,-2.7895,-2.7561,-2.7488,-2.7403,-2.7403,-2.7318,-2.7422,-2.7691,-2.7691,-2.7837,-2.8128,-2.8215,-2.8258,-2.8258,-2.8334,-2.8366,-2.8366,-2.8507,-2.8551,-2.8573,-2.8932,-2.9068,-2.9102,-2.932,-2.9477,-2.9565,-2.9565,-2.9665,-2.972,-2.9512,-2.8916,-2.8366,-2.8366,-2.8366,-2.8366,-2.8258,-2.7969,-2.7613,-2.7332,-2.6981,-2.6657,-2.6572,-2.63,-2.5933,-2.5535,-2.5265,-2.5025,-2.4763,-2.4327,-2.3933,-2.3787,-2.3522,0.0,-2.2792,-2.2722,-2.2503,-2.1972,-2.2104,-2.2109,-2.1754,0.0,0.0,-2.1921,-2.1807,-2.139,-2.0587,-2.0652,-2.0693,-2.0693,-2.0489,-2.0372,-2.0372,-2.0255,-2.0216,-2.0216,-2.0216,-2.0284,-2.0362,-2.0615,-2.077,-2.0848,-2.1079,-2.1146,-2.1205,-2.1871,-2.2118,-2.2208,-2.3086,-2.3867,-2.4493,-2.7282,-2.7305,-2.7328,-2.7396,-2.7805,-2.8092,-2.8092,-2.8505,-2.8827,-2.8827,-2.8884,-2.9102,-2.9561,-2.9607,-2.9768,-3.0181,-2.9424,-2.893,-2.893,-2.893,-2.893,-2.893,-2.893,-2.8896,-2.8827,-2.8746,-2.87,-2.87,-2.8551,-2.8432,-2.8432,-2.8247,-2.8248,-2.8327,-2.8327,-2.8361,-2.8429,-2.8615,-2.8659,-2.8703,-2.8854,-2.893,-2.893,-2.893,-2.893,-2.8987,-2.9447,-2.9652,-2.9709,-3.0123,-3.0442,-3.0668,-3.0668,-3.0826,-3.0984,-3.0984,-3.0073,-2.906,-2.906,-2.906,-2.8962,-2.8688,-2.8491,-2.8337,-2.8226,-2.7802,-2.7433,-2.7355,-2.7007,-2.6693,-2.6614,-2.6214,-2.5934,-2.5934,-2.552,-2.5077,-2.475,0.0,-2.429,-2.3498,-2.3406,-2.3255,-2.2848,-2.2805,-2.2805,-2.2805,-2.2767,0.0,0.0,-2.2729,-2.2387,-2.1706,-2.1529,-2.1452,-2.1523,-2.1337,-2.126,-2.126,-2.1065,-2.0987,-2.0987,-2.0987,-2.1104,-2.126,-2.1513,-2.1706,-2.1899,-2.213,-2.2206,-2.2276,-2.3157,-2.3511,-2.3604,-2.4495,-2.5322,-2.6103,-2.7782,-2.7862,-2.7989,-2.8402,-2.854,-2.8586,-2.8586,-2.9033,-2.9378,-2.9378,-2.9722,-3.0009,-3.0089,-3.0101,-3.0135,-3.0204,-3.0078,-2.9975,-2.9975,-2.9975,-2.9975,-2.9975,-2.9975,-2.9791,-2.9378,-2.893,-2.87,-2.87,-2.8657,-2.8657,-2.8657,-2.8614,-2.8854,-2.9289,-2.9289,-2.9518,-2.9896,-2.9896,-2.9941,-2.9941,-2.9941,-2.9975,-2.9975,-2.9975,-2.9975,-2.9998,-3.0078,-3.0236,-3.0428,-3.0498,-3.0724,-3.0927,-3.0927,-3.0984,-3.0984,-3.0984,-3.0822,-3.0636,-3.0636,-3.0636,-3.0486,-2.9767,-2.9563,-2.936,-2.876,-2.8407,-2.8107,-2.7666,-2.7349,-2.7066,-2.667,-2.6535,-2.6479,-2.6479,-2.6024,-2.567,-2.559,0.0,-2.4932,-2.4815,-2.4804,-2.477,-2.4704,-2.4692,-2.4692,-2.4692,-2.4526,-2.442,-2.442,-2.4253,-2.4135,-2.3989,-2.3055,-2.2642,-2.2895,-2.2855,-2.2845,-2.2845,-2.2805,-2.2815,-2.2815,-2.2815,-2.2805,-2.2855,-2.3305,-2.3515,-2.3554,-2.3949,-2.4067,-2.4146,-2.4631,-2.4809,-2.4904,-2.5825,-2.65,-2.6971,-2.8322,-2.8367,-2.8436,-2.8666,-2.8941,-2.9125,-2.9125,-2.9561,-2.9883,-2.9883,-3.0078,-3.0216,-3.0216,-3.0216,-3.0216,-3.0216,-3.0216,-3.0216,-3.0216,-3.0216,-3.0216,-3.0216,-3.0216,-3.0112,-2.9894,-2.9642,-2.9515,-2.9515,-2.9515,-2.9515,-2.9515,-2.9515,-2.9642,-2.9883,-2.9883,-3.0009,-3.0216,-3.0216,-3.0216,-3.0216,-3.0216,-3.0216,-3.0216,-3.0216,-3.0306,-3.0442,-3.0442,-3.0589,-3.0826,-3.0826,-3.096,-3.1139,-3.1139,-3.1273,-3.1374,-3.1374,-3.1196,-3.0984,-3.0984,-3.0984,-3.0925,-3.0533,-3.0475,-3.0372,-3.0038,-2.9628,-2.9317,-2.9063,-2.868,-2.8303,-2.7808,-2.7704,-2.7582,-2.7172,-2.688,0.0,0.0,-2.6226,-2.5898,-2.5508,-2.5475,-2.5374,-2.5105,-2.5122,-2.5122,-2.5122,-2.4993,-2.4954,-2.4954,-2.4876,-2.4919,-2.5185,-2.4248,-2.3781,-2.3916,-2.3916,-2.3916,-2.3916,-2.3916,-2.3916,-2.3916,-2.3916,-2.3916,-2.3916,-2.4234,-2.4432,-2.4579,-2.4854,-2.506,-2.525,-2.5929,-2.6189,-2.6297,-2.7226,-2.7771,-2.8071,-2.8861,-2.8884,-2.8919,-2.9033,-2.9389,-2.9665,-2.9665,-2.9975,-3.0216,-3.0216,-3.0216,-3.0216,-3.0216,-3.0216,-3.0216,-3.0216,-3.0216,-3.0216,-3.0216,-3.0216,-3.0216,-3.0216,-3.0216,-3.0216,-3.0216,-3.0216,-3.0216,-3.0216,-3.0216,-3.0216,-3.0216,-3.0216,-3.0216,-3.0216,-3.0216,-3.0216,-3.0216,-3.0216,-3.0285,-3.0399,-3.0399,-3.0468,-3.0572,-3.0618,-3.0743,-3.0972,-3.1029,-3.1222,-3.1427,-3.1427,-3.1596,-3.1765,-3.1765,-3.1911,-3.209,-3.209,-3.1738,-3.1317,-3.1187,-3.1151,-3.1151,-3.1107,-3.1062,-3.1062,-3.1029,-3.0699,-3.0358,-3.024,-2.9887,-2.9421,-2.8969,-2.8863,-2.865,-2.8023,0.0,0.0,0.0,-2.7218,-2.6919,-2.637,-2.6284,-2.6166,-2.578,-2.5746,-2.5746,-2.5746,-2.5746,-2.5746,-2.5746,-2.5746,-2.5916,-2.6273,-2.5461,-2.4981,-2.4981,-2.4981,-2.4981,-2.4981,-2.5061,-2.5061,-2.5061,-2.509,-2.513,-2.513,-2.5328,-2.5554,-2.5729,-2.5963,-2.6182,-2.6485,-2.7211,-2.7521,-2.7647,-2.8433,-2.8895,-2.9118,-2.9343,-2.9435,-2.9573,-3.0032,-3.0135,-3.017,-3.017,-3.0193,-3.0216,-3.0216,-3.0216,-3.0216,-3.0216,-3.0216,-3.0216,-3.0216,-3.0216,-3.0216,-3.0216,-3.0216,-3.0216,-3.0216,-3.0216,-3.0216,-3.0216,-3.0216,-3.0216,-3.0216,-3.0216,-3.0216,-3.0216,-3.0216,-3.0216,-3.0216,-3.0216,-3.0216,-3.0216,-3.0216,-3.0503,-3.0962,-3.0962,-3.1237,-3.1698,-3.1912,-3.1948,-3.2042,-3.2277,-3.2511,-3.2745,-3.2745,-3.2908,-3.3164,-3.3164,-3.3176,-3.3176,-3.3176,-3.2827,-3.2277,-3.1761,-3.1661,-3.1572,-3.135,-3.1261,-3.1229,-3.1017,-3.0949,-3.0784,-3.0311,-3.0181,-2.9993,-2.9432,-2.9338,-2.9327,-2.928,0.0,0.0,-2.8556,-2.8146,-2.7788,-2.7753,-2.7753,-2.773,-2.7695,-2.7683,-2.7683,-2.7683,-2.7683,-2.7683,-2.7683,-2.7683,-2.7706,-2.7742,-2.6883,-2.6449,-2.6449,-2.6449,-2.6449,-2.6449,-2.6614,-2.6737,-2.6737,-2.6919,-2.6989,-2.703,-2.7204,-2.7435,-2.7613,-2.7888,-2.81,-2.8323,-2.8573,-2.8782,-2.8991,-2.925,-2.9625,-2.9998,-2.9906,-2.994,-2.9998,-3.0181,-3.0216,-3.0216,-3.0216,-3.0216,-3.0216,-3.0216,-3.0216,-3.0216,-3.0216,-3.0216,-3.0216,-3.0216,-3.0216,-3.0216,-3.0216,-3.0526,-3.056,-3.0227,-3.0537,-3.0709,-3.0709,-3.1019,-3.118,-3.118,-3.118,-3.118,-3.118,-3.118,-3.118,-3.118,-3.118,-3.118,-3.118,-3.1157,-3.1283,-3.1526,-3.1656,-3.1807,-3.2028,-3.2253,-3.2441,-3.2629,-3.2723,-3.2922,-3.3133,-3.3133,-3.3238,-3.3284,-3.3284,-3.3377,-3.3504,-3.371,-3.361,-3.3402,-3.3182,-3.2422,-3.1661,-3.1572,-3.1528,-3.1528,-3.1451,-3.1407,-3.1392,-3.1177,-3.1141,-3.0986,-3.0448,-3.031,-3.016,-2.9723,0.0,-2.9307,-2.9157,-2.8951,-2.8821,-2.8821,-2.8821,-2.8821,-2.8821,-2.858,-2.8404,-2.8404,-2.811,-2.7893,-2.7893,-2.7893,-2.7893,-2.7893,-2.7598,-2.7394,-2.7394,-2.7394,-2.7394,-2.7394,-2.7476,-2.7516,-2.7516,-2.7736,-2.7805,-2.7846,-2.8007,-2.8247,-2.8435,-2.8645,-2.8882,-2.9079,-2.947,-2.9638,-2.9767,-3.0101,-3.0305,-3.0495,-3.0216,-3.0216,-3.0216,-3.0216,-3.0216,-3.0216,-3.0216,-3.0216,-3.0216,-3.0216,-3.0216,-3.0216,-3.0216,-3.0216,-3.0285,-3.0457,-3.0468,-3.0526,-3.064,-3.1042,-3.1088,-3.0721,-3.1042,-3.1237,-3.1249,-3.1582,-3.1813,-3.1813,-3.1813,-3.1813,-3.1813,-3.1813,-3.1813,-3.1754,-3.1813,-3.1813,-3.1813,-3.1754,-3.1894,-3.2187,-3.2307,-3.2496,-3.2743,-3.3018,-3.3209,-3.3398,-3.3458,-3.3612,-3.3777,-3.3777,-3.3824,-3.3918,-3.3918,-3.4047,-3.4269,-3.4431,-3.4354,-3.4232,-3.4232,-3.3387,-3.2422,-3.2422,-3.2301,-3.2192,-3.2192,-3.2059,-3.1937,-3.1937,-3.1937,-3.1828,-3.1452,-3.1349,-3.1196,-3.0718,-3.047,-3.0308,-3.0126,-2.9971,-2.9851,-2.9851,-2.9851,-2.9851,-2.9851,-2.9541,-2.9338,-2.9338,-2.9003,-2.88,-2.88,-2.88,-2.88,-2.88,-2.88,-2.88,-2.88,-2.8277,-2.8042,-2.8082,-2.8151,-2.8191,-2.8191,-2.8379,-2.8498,-2.8486,-2.8697,-2.8895,-2.9131,-2.9326,-2.956,-2.9857,-3.0152,-3.0381,-3.0495,-3.0798,-3.0924,-3.1037,-3.0216,-3.0216,-3.0216,-3.0216,-3.0216,-3.0216,-3.0216,-3.0216,-3.0216,-3.0216,-3.0216,-3.0216,-3.0227,-3.0227,-3.0434,-3.0973,-3.1019,-3.1226,-3.1661,-3.1766,-3.1825,-3.1825,-3.1754,-3.1754,-3.1825,-3.1825,-3.1825,-3.1825,-3.1825,-3.1825,-3.1825,-3.1825,-3.1766,-3.1706,-3.1766,-3.1825,-3.1825,-3.1825,-3.2245,-3.2926,-3.2926,-3.3387,-3.4125,-3.4347,-3.4384,-3.4433,-3.4677,-3.4775,-3.4775,-3.4775,-3.4981,-3.5223,-3.5223,-3.5368,-3.562,-3.562,-3.5239,-3.4821,-3.4821,-3.4404,-3.4019,-3.4007,-3.358,-3.3211,-3.3211,-3.2793,-3.24,-3.24,-3.24,-3.24,-3.24,-3.24,-3.24,-3.24,-3.1945,-3.1601,-3.1601,-3.1151,-3.0836,-3.0836,-3.0836,-3.0836,-3.0836,-3.0823,-3.0823,-3.0823,-3.0811,-3.0811,-3.0811,-3.0811,-3.0811,-3.0811,-3.0811,-3.0811,-3.0811,-2.9068,-2.8311,-2.851,-2.8697,-2.8791,-2.8791,-2.9013,-2.9091,-2.9131,-2.9302,-2.956,-2.983,-3.0011,-3.0356,-3.0698,-3.0698,-3.0949,-3.131,-3.131,-3.1434,-3.1646,-3.0216,-3.0216,-3.0216,-3.0216,-3.0216,-3.0216,-3.0216,-3.0216,-3.0216,-3.0216,-3.0216,-3.0354,-3.0732,-3.0778,-3.0985,-3.149,-3.1536,-3.1754,-3.2225,-3.2271,-3.2443,-3.281,-3.2466,-3.2259,-3.2271,-3.2638,-3.2833,-3.2833,-3.2833,-3.2833,-3.2833,-3.2833,-3.2822,-3.2822,-3.2822,-3.2981,-3.3117,-3.3117,-3.3357,-3.373,-3.3915,-3.4107,-3.4347,-3.4592,-3.4677,-3.4677,-3.4775,-3.4775,-3.4835,-3.503,-3.5126,-3.5271,-3.562,-3.5824,-3.5908,-3.6133,-3.6056,-3.5931,-3.5931,-3.5806,-3.5388,-3.4283,-3.3884,-3.3773,-3.3773,-3.365,-3.3441,-3.3039,-3.2953,-3.2843,-3.2462,-3.24,-3.24,-3.24,-3.2265,-3.2154,-3.2154,-3.2007,-3.1939,-3.1939,-3.1939,-3.1939,-3.1939,-3.1594,-3.1373,-3.1373,-3.1004,-3.0811,-3.0811,-3.0811,-3.0811,-3.0811,-3.0811,-3.0865,-3.1001,-2.9984,-2.948,-2.956,-2.9196,-2.9079,-2.9223,-2.9495,-2.9663,-2.9805,-3.0011,-3.0216,-3.0432,-3.0647,-3.0874,-3.1136,-3.1261,-3.1485,-3.173,-3.1877,-3.233,-3.2904,-3.0216,-3.0216,-3.0216,-3.0216,-3.0216,-3.0216,-3.0216,-3.0216,-3.0296,-3.0503,-3.0537,-3.0732,-3.126,-3.1306,-3.1502,-3.2007,-3.2296,-3.2489,-3.2787,-3.2799,-3.2948,-3.3269,-3.2971,-3.2799,-3.2799,-3.312,-3.3281,-3.3281,-3.3281,-3.3281,-3.3281,-3.3281,-3.3281,-3.3281,-3.3431,-3.353,-3.3729,-3.3828,-3.4026,-3.4211,-3.4347,-3.4482,-3.458,-3.4738,-3.4775,-3.4775,-3.4775,-3.4884,-3.4969,-3.5126,-3.532,-3.5572,-3.6003,-3.6146,-3.6193,-3.637,-3.6405,-3.6405,-3.6405,-3.6405,-3.6147,-3.5192,-3.4764,-3.4615,-3.4615,-3.4442,-3.4206,-3.3851,-3.3789,-3.3677,-3.3355,-3.312,-3.2971,-3.2971,-3.2841,-3.2692,-3.2692,-3.2692,-3.2692,-3.2692,-3.2692,-3.2692,-3.2692,-3.2394,-3.2196,-3.2196,-3.1873,-3.1717,-3.1717,-3.1717,-3.1759,-3.1843,-3.1843,-3.1926,-3.2135,-3.1471,-3.1013,-3.072,-3.0411,-3.0355,-3.0461,-3.0643,-3.0774,-3.0918,-3.119,-3.1384,-3.1512,-3.1819,-3.2086,-3.2262,-3.2463,-3.2651,-3.2874,-3.3059,-3.3477,-3.389,-3.0216,-3.0216,-3.0216,-3.0216,-3.025,-3.0285,-3.0285,-3.0331,-3.0526,-3.1019,-3.1077,-3.1272,-3.1777,-3.1812,-3.2007,-3.2512,-3.3005,-3.3281,-3.3281,-3.3281,-3.3281,-3.3281,-3.3281,-3.3281,-3.3281,-3.3281,-3.3281,-3.3281,-3.3281,-3.3281,-3.3281,-3.3331,-3.3331,-3.3331,-3.363,-3.3729,-3.3779,-3.4026,-3.4261,-3.4433,-3.4433,-3.458,-3.4775,-3.4775,-3.4775,-3.4775,-3.4835,-3.4981,-3.5223,-3.5271,-3.562,-3.6098,-3.6323,-3.6405,-3.6405,-3.6405,-3.6405,-3.6405,-3.6405,-3.6405,-3.6405,-3.6405,-3.5994,-3.5571,-3.5571,-3.5182,-3.4851,-3.4756,-3.4756,-3.4776,-3.4726,-3.4311,-3.3972,-3.3972,-3.3558,-3.3219,-3.3219,-3.3181,-3.3156,-3.3156,-3.3106,-3.3124,-3.3124,-3.3124,-3.3111,-3.3111,-3.3154,-3.3154,-3.3154,-3.3154,-3.324,-3.3441,-3.3441,-3.3513,-3.3713,-3.3255,-3.2634,-3.1881,-3.2032,-3.2114,-3.2114,-3.2154,-3.2154,-3.2195,-3.2606,-3.2778,-3.2804,-3.3249,-3.3574,-3.3754,-3.3984,-3.4175,-3.4365,-3.4554,-3.4695,-3.4826,-3.0216,-3.0216,-3.0216,-3.0216,-3.056,-3.0847,-3.0847,-3.118,-3.1467,-3.1582,-3.1652,-3.1789,-3.2282,-3.2328,-3.2535,-3.3063,-3.3212,-3.3281,-3.3281,-3.3281,-3.3281,-3.3281,-3.3281,-3.3281,-3.3281,-3.3281,-3.3281,-3.3281,-3.3281,-3.3281,-3.3281,-3.353,-3.363,-3.363,-3.3878,-3.4113,-3.4249,-3.4286,-3.4482,-3.4726,-3.4726,-3.4726,-3.4775,-3.4775,-3.4775,-3.4835,-3.503,-3.5126,-3.5271,-3.5668,-3.6038,-3.6323,-3.6358,-3.6405,-3.6405,-3.6405,-3.6405,-3.6405,-3.6405,-3.6405,-3.6405,-3.6405,-3.6317,-3.6182,-3.6182,-3.6094,-3.5881,-3.5408,-3.532,-3.5194,-3.4756,-3.4625,-3.455,-3.455,-3.4449,-3.4361,-3.4361,-3.3985,-3.3721,-3.3721,-3.3345,-3.3124,-3.3124,-3.324,-3.3313,-3.3313,-3.3471,-3.3556,-3.3556,-3.3556,-3.3598,-3.3641,-3.3641,-3.367,-3.3713,-3.3779,-3.3431,-3.2659,-3.2292,-3.2167,-3.234,-3.2487,-3.2646,-3.283,-3.3132,-3.3327,-3.3483,-3.3754,-3.3984,-3.4175,-3.4403,-3.4592,-3.478,-3.4817,-3.5335,-3.6128,-3.0549,-3.0595,-3.0675,-3.0916,-3.118,-3.1364,-3.1375,-3.1582,-3.1834,-3.2076,-3.211,-3.2294,-3.281,-3.2868,-3.2982,-3.3258,-3.3281,-3.3281,-3.3281,-3.3281,-3.3281,-3.3281,-3.3281,-3.3281,-3.3281,-3.3281,-3.3281,-3.3281,-3.3281,-3.3381,-3.3481,-3.363,-3.3779,-3.3878,-3.4162,-3.4298,-3.4433,-3.4531,-3.4677,-3.4775,-3.4775,-3.4775,-3.4775,-3.4775,-3.4884,-3.503,-3.5126,-3.5368,-3.5668,-3.6038,-3.6275,-3.6405,-3.6405,-3.6405,-3.6405,-3.6405,-3.6405,-3.6405,-3.6405,-3.6405,-3.6405,-3.6546,-3.6534,-3.6546,-3.6405,-3.6452,-3.6458,-3.6121,-3.6164,-3.6168,-3.5877,-3.5656,-3.5466,-3.5466,-3.525,-3.5073,-3.5073,-3.4819,-3.4641,-3.4641,-3.4432,-3.4152,-3.3842,-3.3636,-3.3556,-3.3556,-3.3641,-3.3713,-3.3713,-3.3713,-3.3768,-3.3894,-3.3894,-3.3937,-3.4008,-3.4189,-3.4087,-3.3788,-3.3394,-3.3305,-3.3575,-3.3643,-3.3792,-3.4033,-3.4246,-3.4485,-3.4683,-3.4932,-3.5128,-3.5308,-3.5502,-3.5669,-3.5784,-3.5961,-3.65,-3.7182,-3.1054,-3.1146,-3.1272,-3.1744,-3.1812,-3.1869,-3.1928,-3.1949,-3.2144,-3.2569,-3.2627,-3.2787,-3.3235,-3.3281,-3.3281,-3.3281,-3.3281,-3.3281,-3.3281,-3.3281,-3.3327,-3.3407,-3.3407,-3.3453,-3.3545,-3.3545,-3.3499,-3.3407,-3.3457,-3.3654,-3.3985,-3.4035,-3.4234,-3.4433,-3.4657,-3.4744,-3.4756,-3.5002,-3.5051,-3.5051,-3.5051,-3.5051,-3.5051,-3.5051,-3.5247,-3.5503,-3.5551,-3.5891,-3.6385,-3.6599,-3.6681,-3.6681,-3.6681,-3.6681,-3.6681,-3.6681,-3.6681,-3.6669,-3.6568,-3.6556,-3.6565,-3.6653,-3.6709,-3.6675,-3.6546,-3.664,-3.6769,-3.6769,-3.6968,-3.7108,-3.7108,-3.6737,-3.6462,-3.6462,-3.6064,-3.5756,-3.5756,-3.5679,-3.5615,-3.5615,-3.5583,-3.5294,-3.4789,-3.4332,-3.4012,-3.3909,-3.3951,-3.3913,-3.3852,-3.3797,-3.3937,-3.416,-3.416,-3.4243,-3.4397,-3.4452,-3.4577,-3.4797,-3.4618,-3.466,-3.4839,-3.488,-3.5003,-3.5168,-3.5399,-3.5602,-3.5804,-3.6072,-3.6286,-3.6484,-3.6668,-3.6786,-3.6864,-3.724,-3.7625,-3.7891,-3.1698,-3.1651,-3.1662,-3.1802,-3.211,-3.2386,-3.2386,-3.2776,-3.3097,-3.3166,-3.3178,-3.3201,-3.3281,-3.3281,-3.3281,-3.3281,-3.3281,-3.3281,-3.3281,-3.3281,-3.3465,-3.3889,-3.3901,-3.4119,-3.459,-3.4601,-3.4372,-3.3901,-3.4155,-3.4539,-3.5021,-3.5471,-3.5687,-3.5738,-3.5992,-3.6144,-3.6144,-3.6194,-3.6194,-3.6194,-3.6194,-3.6194,-3.6194,-3.6194,-3.6345,-3.6597,-3.686,-3.7246,-3.774,-3.7789,-3.7789,-3.7789,-3.7789,-3.7789,-3.7789,-3.7789,-3.7789,-3.7676,-3.7199,-3.7073,-3.7056,-3.6754,-3.6709,-3.6769,-3.6968,-3.7015,-3.7062,-3.7062,-3.7062,-3.7108,-3.7108,-3.7044,-3.6993,-3.6993,-3.6929,-3.6878,-3.6878,-3.6468,-3.6205,-3.6205,-3.5769,-3.5448,-3.5371,-3.5458,-3.5287,-3.4796,-3.4942,-3.4862,-3.434,-3.4314,-3.4314,-3.4356,-3.4356,-3.4356,-3.4397,-3.4618,-3.4756,-3.4797,-3.4962,-3.5031,-3.5086,-3.5236,-3.5318,-3.5399,-3.5831,-3.6032,-3.6072,-3.6484,-3.6642,-3.6668,-3.6889,-3.707,-3.7264,-3.7663,-3.7853,-3.7929,-3.2121,-3.2156,-3.2248,-3.2558,-3.2787,-3.2925,-3.2925,-3.3132,-3.3281,-3.3281,-3.3281,-3.3281,-3.3281,-3.3281,-3.3281,-3.3281,-3.3281,-3.3396,-3.366,-3.3683,-3.3912,-3.4418,-3.4452,-3.4555,-3.4796,-3.4941,-3.5057,-3.5126,-3.4929,-3.51,-3.5631,-3.5888,-3.6093,-3.6246,-3.636,-3.6411,-3.6411,-3.6411,-3.6411,-3.6411,-3.6411,-3.6411,-3.6411,-3.6563,-3.6765,-3.708,-3.7518,-3.7817,-3.8002,-3.8002,-3.8002,-3.8002,-3.8002,-3.8002,-3.8002,-3.8002,-3.8002,-3.7952,-3.7713,-3.7651,-3.7673,-3.7868,-3.7887,-3.7906,-3.7976,-3.8005,-3.7868,-3.7418,-3.7459,-3.7551,-3.7551,-3.7551,-3.7551,-3.7551,-3.7551,-3.7551,-3.7551,-3.7344,-3.7176,-3.7176,-3.6715,-3.6352,-3.6352,-3.6129,-3.5874,-3.5583,-3.57,-3.5626,-3.5365,-3.5064,-3.4894,-3.4894,-3.458,-3.4481,-3.4618,-3.4756,-3.4921,-3.5113,-3.5236,-3.5277,-3.5277,-3.5358,-3.548,-3.5602,-3.5952,-3.6166,-3.6286,-3.6603,-3.6786,-3.6889,-3.6954,-3.7187,-3.7495,-3.7777,-3.7967,-3.8066]},{"header":{"parameterUnit":"m.s-1","parameterCategory":1,"la1":30.6,"la2":28.766,"lo1":-90.7593,"lo2":-88.6598,"dy":0.0162,"dx":0.0183,"nx":116,"ny":114,"refTime":"2024-03-01T18:00:00:Z","depth":0,"parameterNumber":3,"parameterNumberName":"V-component_of_WINDS"},"data":[0.0,0.0,0.0,0.0,0.0,0.0,0.0,0.0,0.0,0.0,0.0,0.0,0.0,0.0,0.0,0.0,0.0,0.0,0.0,0.0,0.0,0.0,0.0,0.0,0.0,0.0,0.0,0.0,0.0,0.0,0.0,0.0,0.0,0.0,0.0,0.0,0.0,0.0,0.0,0.0,0.0,0.0,0.0,0.0,0.0,0.0,0.0,0.0,0.0,0.0,0.0,0.0,0.0,0.0,0.0,0.0,0.0,0.0,0.0,0.0,0.0,0.0,0.0,0.0,0.0,0.0,0.0,0.0,0.0,0.0,0.0,0.0,0.0,0.0,0.0,0.0,0.0,0.0,0.0,0.0,0.0,0.0,0.0,0.0,0.0,0.0,0.0,0.0,0.0,0.0,0.0,0.0,0.0,0.0,0.0,0.0,0.0,0.0,0.0,0.0,0.0,0.0,0.0,0.0,0.0,0.0,0.0,0.0,0.0,0.0,0.0,0.0,0.0,0.0,0.0,0.0,0.0,0.0,0.0,0.0,0.0,0.0,0.0,0.0,0.0,0.0,0.0,0.0,0.0,0.0,0.0,0.0,0.0,0.0,0.0,0.0,0.0,0.0,0.0,0.0,0.0,0.0,0.0,0.0,0.0,0.0,0.0,0.0,0.0,0.0,0.0,0.0,0.0,0.0,0.0,0.0,0.0,0.0,0.0,0.0,0.0,0.0,0.0,0.0,0.0,0.0,0.0,0.0,0.0,0.0,0.0,0.0,0.0,0.0,0.0,0.0,0.0,0.0,0.0,0.0,0.0,0.0,0.0,0.0,0.0,0.0,0.0,0.0,0.0,0.0,0.0,0.0,0.0,0.0,0.0,0.0,0.0,0.0,0.0,0.0,0.0,0.0,0.0,0.0,0.0,0.0,0.0,0.0,0.0,0.0,0.0,0.0,0.0,0.0,0.0,0.0,0.0,0.0,0.0,0.0,0.0,0.0,0.0,0.0,0.0,0.0,0.0,0.0,0.0,0.0,0.0,0.0,0.0,0.0,0.0,0.0,0.0,0.0,0.0,0.0,0.0,0.0,0.0,0.0,0.0,0.0,0.0,0.0,0.0,0.0,0.0,0.0,0.0,0.0,0.0,0.0,0.0,0.0,0.0,0.0,0.0,0.0,0.0,0.0,0.0,0.0,0.0,0.0,0.0,0.0,0.0,0.0,0.0,0.0,0.0,0.0,0.0,0.0,0.0,0.0,0.0,0.0,0.0,0.0,0.0,0.0,0.0,0.0,0.0,0.0,0.0,0.0,0.0,0.0,0.0,0.0,0.0,0.0,0.0,0.0,0.0,0.0,0.0,0.0,0.0,0.0,0.0,0.0,0.0,0.0,0.0,0.0,0.0,0.0,0.0,0.0,0.0,0.0,0.0,0.0,0.0,0.0,0.0,0.0,0.0,0.0,0.0,0.0,0.0,0.0,0.0,0.0,0.0,0.0,0.0,0.0,0.0,0.0,0.0,0.0,0.0,0.0,0.0,0.0,0.0,0.0,0.0,0.0,0.0,0.0,0.0,0.0,0.0,0.0,0.0,0.0,0.0,0.0,0.0,0.0,0.0,0.0,0.0,0.0,0.0,0.0,0.0,0.0,0.0,0.0,0.0,0.0,0.0,0.0,0.0,0.0,0.0,0.0,0.0,0.0,0.0,0.0,0.0,0.0,0.0,0.0,0.0,0.0,0.0,0.0,0.0,0.0,0.0,0.0,0.0,0.0,0.0,0.0,0.0,0.0,0.0,0.0,0.0,0.0,0.0,0.0,0.0,0.0,0.0,0.0,0.0,0.0,0.0,0.0,0.0,0.0,0.0,0.0,0.0,0.0,0.0,0.0,0.0,0.0,0.0,0.0,0.0,0.0,0.0,0.0,0.0,0.0,0.0,0.0,0.0,0.0,0.0,0.0,0.0,0.0,0.0,0.0,0.0,0.0,0.0,0.0,0.0,0.0,0.0,0.0,0.0,0.0,0.0,0.0,0.0,0.0,0.0,0.0,0.0,0.0,0.0,0.0,0.0,0.0,0.0,0.0,0.0,0.0,0.0,0.0,0.0,0.0,0.0,0.0,0.0,0.0,0.0,0.0,0.0,0.0,0.0,0.0,0.0,0.0,0.0,0.0,0.0,0.0,0.0,0.0,0.0,0.0,0.0,0.0,0.0,0.0,0.0,0.0,0.0,0.0,0.0,0.0,0.0,0.0,0.0,0.0,0.0,0.0,0.0,0.0,0.0,0.0,0.0,0.0,0.0,0.0,0.0,0.0,0.0,0.0,0.0,0.0,0.0,0.0,0.0,0.0,0.0,0.0,0.0,0.0,0.0,0.0,0.0,0.0,0.0,0.0,0.0,0.0,0.0,0.0,0.0,0.0,0.0,0.0,0.0,0.0,0.0,0.0,0.0,0.0,0.0,0.0,0.0,0.0,0.0,0.0,0.0,0.0,0.0,0.0,0.0,0.0,0.0,0.0,0.0,0.0,0.0,0.0,0.0,0.0,0.0,0.0,0.0,0.0,0.0,0.0,0.0,0.0,0.0,0.0,0.0,0.0,0.0,0.0,0.0,0.0,0.0,0.0,0.0,0.0,0.0,0.0,0.0,0.0,0.0,0.0,0.0,0.0,0.0,0.0,0.0,0.0,0.0,0.0,0.0,0.0,0.0,0.0,0.0,0.0,0.0,0.0,0.0,0.0,0.0,0.0,0.0,0.0,0.0,0.0,0.0,0.0,0.0,0.0,0.0,0.0,0.0,0.0,0.0,0.0,0.0,0.0,0.0,0.0,0.0,0.0,0.0,0.0,0.0,0.0,0.0,0.0,0.0,0.0,0.0,0.0,0.0,0.0,0.0,0.0,0.0,0.0,0.0,0.0,0.0,0.0,0.0,0.0,0.0,0.0,0.0,0.0,0.0,0.0,0.0,0.0,0.0,0.0,0.0,0.0,0.0,0.0,0.0,0.0,0.0,0.0,0.0,0.0,0.0,0.0,0.0,0.0,0.0,0.0,0.0,0.0,0.0,0.0,0.0,0.0,0.0,0.0,0.0,0.0,0.0,0.0,0.0,0.0,0.0,0.0,0.0,0.0,0.0,0.0,0.0,0.0,0.0,0.0,0.0,0.0,0.0,0.0,0.0,0.0,0.0,0.0,0.0,0.0,0.0,0.0,0.0,0.0,0.0,0.0,0.0,0.0,0.0,0.0,0.0,0.0,0.0,0.0,0.0,0.0,0.0,0.0,0.0,0.0,0.0,0.0,0.0,0.0,0.0,0.0,0.0,0.0,0.0,0.0,0.0,0.0,0.0,0.0,0.0,0.0,0.0,0.0,0.0,0.0,0.0,0.0,0.0,0.0,0.0,0.0,0.0,0.0,0.0,0.0,0.0,0.0,0.0,0.0,0.0,0.0,0.0,0.0,0.0,0.0,0.0,0.0,0.0,0.0,0.0,0.0,0.0,0.0,0.0,0.0,0.0,0.0,0.0,0.0,0.0,0.0,0.0,0.0,0.0,0.0,0.0,0.0,0.0,0.0,0.0,0.0,0.0,0.0,0.0,0.0,0.0,0.0,0.0,0.0,0.0,0.0,0.0,0.0,0.0,0.0,0.0,0.0,0.0,0.0,0.0,0.0,0.0,0.0,0.0,0.0,0.0,0.0,0.0,0.0,0.0,0.0,0.0,0.0,0.0,0.0,0.0,0.0,0.0,0.0,0.0,0.0,0.0,0.0,0.0,0.0,0.0,0.0,0.0,0.0,0.0,0.0,0.0,0.0,0.0,0.0,0.0,0.0,0.0,0.0,0.0,0.0,0.0,0.0,0.0,0.0,0.0,0.0,0.0,0.0,0.0,0.0,0.0,0.0,0.0,0.0,0.0,0.0,0.0,0.0,0.0,0.0,0.0,0.0,0.0,0.0,0.0,0.0,0.0,0.0,0.0,0.0,0.0,0.0,0.0,0.0,0.0,0.0,0.0,0.0,0.0,0.0,0.0,0.0,0.0,0.0,0.0,0.0,0.0,0.0,0.0,0.0,0.0,0.0,0.0,0.0,0.0,0.0,0.0,0.0,0.0,0.0,0.0,0.0,0.0,0.0,0.0,0.0,0.0,0.0,0.0,0.0,0.0,0.0,0.0,0.0,0.0,0.0,0.0,0.0,0.0,0.0,0.0,0.0,0.0,0.0,0.0,0.0,0.0,0.0,0.0,0.0,0.0,0.0,0.0,0.0,0.0,0.0,0.0,0.0,0.0,0.0,0.0,0.0,0.0,0.0,0.0,0.0,0.0,0.0,0.0,0.0,0.0,0.0,0.0,0.0,0.0,0.0,0.0,0.0,0.0,0.0,0.0,0.0,0.0,0.0,0.0,0.0,0.0,0.0,0.0,0.0,0.0,0.0,0.0,0.0,0.0,0.0,0.0,0.0,0.0,0.0,0.0,0.0,0.0,0.0,0.0,0.0,0.0,0.0,0.0,0.0,0.0,0.0,0.0,0.0,0.0,0.0,0.0,0.0,0.0,0.0,0.0,0.0,0.0,0.0,0.0,0.0,0.0,0.0,0.0,0.0,0.0,0.0,0.0,0.0,0.0,0.0,0.0,0.0,0.0,0.0,0.0,0.0,0.0,0.0,0.0,0.0,0.0,0.0,0.0,0.0,0.0,0.0,0.0,0.0,0.0,0.0,0.0,0.0,0.0,0.0,0.0,0.0,0.0,0.0,0.0,0.0,0.0,0.0,0.0,0.0,0.0,0.0,0.0,0.0,0.0,0.0,0.0,0.0,0.0,0.0,0.0,0.0,0.0,0.0,0.0,0.0,0.0,0.0,0.0,0.0,0.0,0.0,0.0,0.0,0.0,0.0,0.0,0.0,0.0,0.0,0.0,0.0,0.0,0.0,0.0,0.0,0.0,0.0,0.0,0.0,0.0,0.0,0.0,0.0,0.0,0.0,0.0,0.0,0.0,0.0,0.0,0.0,0.0,0.0,0.0,0.0,0.0,0.0,0.0,0.0,0.0,0.0,0.0,0.0,0.0,0.0,0.0,0.0,0.0,0.0,0.0,0.0,0.0,0.0,0.0,0.0,0.0,0.0,0.0,0.0,0.0,0.0,0.0,0.0,0.0,0.0,0.0,0.0,0.0,0.0,0.0,0.0,0.0,0.0,0.0,0.0,0.0,0.0,0.0,0.0,0.0,0.0,0.0,0.0,0.0,0.0,0.0,0.0,0.0,0.0,0.0,0.0,0.0,0.0,0.0,0.0,0.0,0.0,0.0,0.0,0.0,0.0,0.0,0.0,0.0,0.0,0.0,0.0,0.0,0.0,0.0,0.0,0.0,0.0,0.0,0.0,0.0,0.0,0.0,0.0,0.0,0.0,0.0,0.0,0.0,0.0,0.0,0.0,0.0,0.0,0.0,0.0,0.0,0.0,0.0,0.0,0.0,0.0,0.0,0.0,0.0,0.0,0.0,0.0,0.0,0.0,0.0,0.0,0.0,0.0,0.0,0.0,0.0,0.0,0.0,0.0,0.0,0.0,0.0,0.0,0.0,0.0,0.0,0.0,0.0,0.0,0.0,0.0,0.0,0.0,0.0,0.0,0.0,0.0,0.0,0.0,0.0,0.0,0.0,0.0,0.0,0.0,0.0,0.0,0.0,0.0,0.0,0.0,0.0,0.0,0.0,0.0,0.0,0.0,0.0,0.0,0.0,0.0,0.0,0.0,0.0,0.0,0.0,0.0,0.0,0.0,0.0,0.0,0.0,0.0,0.0,0.0,0.0,0.0,0.0,0.0,0.0,0.0,0.0,0.0,0.0,0.0,0.0,0.0,0.0,0.0,0.0,0.0,0.0,0.0,0.0,0.0,0.0,0.0,0.0,0.0,0.0,0.0,0.0,0.0,0.0,0.0,0.0,0.0,0.0,0.0,0.0,0.0,0.0,0.0,0.0,0.0,0.0,0.0,0.0,0.0,0.0,0.0,0.0,0.0,0.0,0.0,0.0,0.0,0.0,0.0,0.0,0.0,0.0,0.0,0.0,0.0,0.0,0.0,0.0,0.0,0.0,0.0,0.0,0.0,0.0,0.0,0.0,0.0,0.0,0.0,1.7452,0.0,0.0,0.0,0.0,0.0,0.0,0.0,0.0,0.0,0.0,0.0,0.0,0.0,0.0,0.0,0.0,0.0,0.0,0.0,0.0,0.0,0.0,0.0,0.0,0.0,0.0,0.0,0.0,0.0,0.0,0.0,0.0,0.0,0.0,0.0,1.8022,1.8815,1.9214,1.9184,1.9564,1.9747,1.9765,1.9779,1.8954,1.7444,0.0,0.0,0.0,0.0,0.0,0.0,0.0,0.0,0.0,0.0,0.0,0.0,0.0,0.0,0.0,0.0,0.0,0.0,0.0,0.0,0.0,0.0,0.0,0.0,0.0,0.0,0.0,0.0,0.0,0.0,0.0,0.0,0.0,0.0,0.0,0.0,0.0,0.0,0.0,0.0,0.0,0.0,0.0,0.0,0.0,0.0,0.0,0.0,0.0,0.0,0.0,0.0,0.0,0.0,0.0,0.0,0.0,0.0,0.0,0.0,0.0,0.0,0.0,0.0,0.0,0.0,0.0,0.0,0.0,0.0,0.0,1.7998,0.0,0.0,0.0,0.0,0.0,0.0,0.0,0.0,0.0,0.0,0.0,0.0,0.0,0.0,0.0,0.0,0.0,0.0,0.0,0.0,0.0,0.0,0.0,1.6506,1.6829,1.7642,1.7714,1.7781,0.0,0.0,0.0,0.0,1.8734,1.9157,1.9237,2.0608,2.1318,2.1318,2.1965,2.2279,2.2272,2.2272,2.0822,1.8219,1.8238,0.0,0.0,0.0,0.0,0.0,0.0,0.0,0.0,0.0,0.0,0.0,0.0,0.0,0.0,0.0,0.0,0.0,0.0,0.0,0.0,0.0,0.0,0.0,0.0,0.0,0.0,0.0,0.0,0.0,0.0,0.0,0.0,0.0,0.0,0.0,0.0,0.0,0.0,0.0,0.0,0.0,0.0,0.0,0.0,0.0,0.0,0.0,0.0,0.0,0.0,0.0,0.0,0.0,0.0,0.0,0.0,0.0,0.0,0.0,0.0,0.0,0.0,0.0,2.2109,2.2461,2.3105,2.3101,2.3099,2.2941,2.0104,1.8885,1.8894,0.0,0.0,0.0,0.0,0.0,0.0,0.0,0.0,0.0,0.0,0.0,0.0,0.0,0.0,0.0,0.0,0.0,0.0,0.0,0.0,0.0,0.0,1.7334,1.7667,1.846,1.853,1.8846,1.9533,0.0,1.9894,2.0576,2.0708,2.1105,2.1802,2.204,2.2133,2.2133,2.2185,2.2191,2.2137,2.2137,2.1905,2.1501,2.16,2.1651,2.162,0.0,0.0,0.0,0.0,0.0,0.0,0.0,0.0,0.0,0.0,0.0,0.0,0.0,0.0,0.0,0.0,0.0,0.0,0.0,0.0,0.0,0.0,0.0,0.0,0.0,0.0,0.0,0.0,0.0,0.0,0.0,0.0,0.0,0.0,0.0,0.0,0.0,0.0,0.0,0.0,0.0,1.7959,1.8838,0.0,0.0,0.0,0.0,0.0,0.0,0.0,0.0,0.0,0.0,0.0,0.0,0.0,0.0,2.2777,2.2764,2.2827,2.2946,2.2948,2.3008,2.3105,2.3105,2.3102,2.3078,2.2628,0.0,2.2437,2.2425,0.0,0.0,0.0,0.0,0.0,0.0,0.0,0.0,0.0,0.0,0.0,0.0,0.0,0.0,0.0,0.0,0.0,0.0,0.0,0.0,0.0,1.817,1.8501,1.9295,1.9814,2.0252,2.0557,2.101,2.1413,2.1751,2.177,2.192,2.2243,2.2698,2.3352,2.4259,2.4687,2.4887,2.4843,2.4843,2.4843,2.4852,2.4917,2.3926,2.2171,2.1807,0.0,0.0,0.0,0.0,0.0,0.0,0.0,0.0,0.0,0.0,0.0,0.0,0.0,0.0,0.0,0.0,0.0,0.0,0.0,0.0,0.0,0.0,0.0,0.0,0.0,0.0,0.0,0.0,0.0,0.0,0.0,0.0,0.0,0.0,0.0,0.0,0.0,0.0,0.0,1.931,2.0082,2.0462,2.0992,2.1499,0.0,0.0,0.0,0.0,0.0,0.0,0.0,0.0,0.0,2.3104,2.3092,2.3098,2.3105,2.3109,2.3348,2.3822,2.3824,2.4099,2.455,2.4551,2.457,2.4567,2.4564,2.456,2.4497,2.3491,2.3109,2.3097,0.0,0.0,0.0,0.0,0.0,2.3007,0.0,0.0,0.0,0.0,0.0,0.0,0.0,0.0,0.0,0.0,0.0,0.0,1.8917,1.9214,1.9563,2.0153,2.099,2.1469,2.1413,2.1978,2.2373,2.2569,2.2776,2.2954,2.3124,2.3917,2.4904,2.6113,2.6701,2.699,2.6963,2.6963,2.6963,2.6963,2.6963,2.5629,2.3332,2.3126,2.294,2.2716,0.0,0.0,0.0,0.0,0.0,0.0,0.0,0.0,0.0,0.0,0.0,0.0,0.0,0.0,0.0,0.0,0.0,0.0,0.0,0.0,0.0,0.0,0.0,0.0,0.0,0.0,0.0,0.0,0.0,0.0,0.0,0.0,0.0,0.0,0.0,0.0,0.0,2.1092,2.1919,2.1929,2.2549,2.2979,0.0,0.0,0.0,0.0,0.0,0.0,2.3731,2.3949,2.4074,2.4069,2.4289,2.4394,2.4405,2.4407,2.4745,2.5398,2.54,2.5735,2.6365,2.6367,2.6367,2.6367,2.6363,2.6379,2.626,2.4728,2.4092,2.4118,2.4324,2.4392,2.4397,2.4355,2.4338,2.4322,0.0,0.0,0.0,0.0,0.0,0.0,0.0,0.0,0.0,0.0,0.0,1.8949,1.9754,2.0586,2.1066,2.1048,2.1783,2.2242,2.2246,2.2284,2.26,2.3307,2.4083,2.4834,2.5607,2.6402,2.6869,2.6944,2.6982,2.6972,2.6916,2.6916,2.6916,2.6916,2.6916,2.6851,2.6691,2.5936,2.5171,2.4406,2.3566,0.0,0.0,0.0,0.0,0.0,0.0,0.0,0.0,0.0,0.0,0.0,0.0,0.0,0.0,0.0,0.0,0.0,0.0,0.0,0.0,0.0,0.0,0.0,0.0,0.0,0.0,0.0,0.0,0.0,0.0,0.0,0.0,0.0,0.0,0.0,0.0,0.0,0.0,2.2832,2.2886,0.0,0.0,0.0,0.0,2.4178,2.4239,2.4605,2.5433,2.6267,2.67,2.6716,2.7504,2.7946,2.7938,2.7947,2.7992,2.8097,2.8104,2.8129,2.8173,2.8161,2.8163,2.8164,2.8164,2.8161,2.8096,2.7186,2.6805,2.6877,2.7647,2.7944,2.7941,2.7943,2.7949,2.7934,0.0,0.0,0.0,0.0,0.0,0.0,0.0,0.0,1.7335,1.8164,1.8963,1.9798,2.0643,2.0984,2.1331,2.1827,2.2611,2.3067,2.3065,2.4043,2.4725,2.5011,2.5745,2.6271,2.6571,2.7317,2.7986,2.8535,2.9033,2.9522,2.9983,2.9939,2.9917,2.9917,2.9917,2.9939,2.9805,2.7443,2.6247,2.5931,2.5653,2.5374,0.0,0.0,0.0,0.0,0.0,0.0,0.0,0.0,0.0,0.0,0.0,0.0,0.0,0.0,0.0,0.0,0.0,0.0,0.0,0.0,0.0,0.0,0.0,0.0,0.0,0.0,0.0,0.0,0.0,0.0,0.0,0.0,0.0,0.0,0.0,0.0,0.0,2.3662,2.4662,0.0,2.536,2.5867,2.6351,2.6724,2.676,2.6874,2.7187,2.7529,2.7737,2.7731,2.8038,2.8206,2.8197,2.8209,2.8218,2.8246,2.8272,2.8298,2.8305,2.8292,2.8297,2.83,2.8301,2.83,2.8317,2.8564,2.8339,2.7861,2.8143,2.823,2.8197,2.8196,2.8198,2.8199,0.0,0.0,0.0,0.0,0.0,0.0,0.0,0.0,1.7785,1.8595,1.9401,2.0215,2.1066,2.1362,2.1827,2.2628,2.3445,2.4013,2.4298,2.53,2.5997,2.626,2.6981,2.7643,2.8171,2.8651,2.9318,3.0131,3.0624,3.1138,3.1675,3.1609,3.1597,3.1597,3.1597,3.1592,3.1432,2.9289,2.807,2.7551,2.7592,2.728,2.6651,0.0,0.0,0.0,0.0,0.0,0.0,0.0,0.0,0.0,0.0,0.0,0.0,0.0,0.0,0.0,0.0,0.0,0.0,0.0,0.0,0.0,0.0,0.0,0.0,0.0,0.0,0.0,0.0,0.0,0.0,0.0,0.0,0.0,0.0,0.0,2.5009,2.5313,2.6372,2.7075,2.7101,2.7656,2.8021,2.8059,2.8067,2.8085,2.8103,2.8414,2.8608,2.8601,2.8891,2.9046,2.9082,2.9072,2.9082,2.9076,2.9118,2.9148,2.914,2.9144,2.9151,2.9176,2.9179,2.9336,2.9628,3.0211,3.0282,2.996,2.9364,2.9118,2.9084,2.9085,2.9065,2.908,0.0,0.0,0.0,0.0,0.0,0.0,0.0,1.6961,1.7799,1.8636,1.9433,2.023,2.1054,2.1863,2.2658,2.3476,2.4264,2.5075,2.5853,2.5886,2.6253,2.7084,2.7781,2.892,3.0506,3.0543,3.0898,3.1653,3.1641,3.1641,3.1659,3.1678,3.1678,3.1678,3.1678,3.1623,3.1581,3.1581,3.0684,2.9304,2.9267,2.8289,2.6821,0.0,0.0,0.0,0.0,0.0,0.0,0.0,0.0,0.0,0.0,0.0,0.0,0.0,0.0,0.0,0.0,0.0,0.0,0.0,0.0,0.0,0.0,0.0,0.0,0.0,0.0,0.0,0.0,0.0,0.0,0.0,0.0,0.0,2.6649,2.6544,2.6853,2.769,2.7816,2.7876,2.7933,2.8044,2.813,2.8109,2.8139,2.8198,2.8257,2.9051,2.952,2.9521,3.0335,3.0808,3.0881,3.0881,3.0874,3.0878,3.0878,3.087,3.087,3.0876,3.0921,3.0986,3.0973,3.1425,3.2148,3.2148,3.2632,3.323,3.1539,3.0879,3.0878,3.0884,3.0842,3.0889,0.0,0.0,0.0,0.0,0.0,0.0,1.6919,1.7302,1.795,1.9376,2.0275,2.1086,2.1882,2.2696,2.3494,2.4293,2.5121,2.5639,2.5811,2.6906,2.8164,2.9547,2.9763,3.0324,3.1339,3.1312,3.1683,3.2465,3.2435,3.2705,3.3276,3.3224,3.3198,3.3198,3.3198,3.3185,3.3172,3.3172,3.2585,3.1624,3.1084,3.0242,2.9241,0.0,0.0,0.0,0.0,0.0,0.0,0.0,0.0,0.0,0.0,0.0,0.0,0.0,0.0,0.0,0.0,0.0,0.0,0.0,0.0,0.0,0.0,0.0,0.0,0.0,0.0,0.0,0.0,0.0,0.0,0.0,2.7369,2.7494,2.7377,2.737,2.7483,2.7779,2.8359,2.8752,2.8777,2.9921,3.0692,3.0743,3.1347,3.1715,3.1718,3.1997,3.2158,3.2159,3.2396,3.2534,3.2616,3.2607,3.2605,3.2605,3.2613,3.2645,3.2682,3.2698,3.2709,3.2717,3.2708,3.2849,3.3046,3.3046,3.3181,3.3351,3.2874,3.2685,3.2686,3.2695,3.2647,3.26,0.0,0.0,0.0,0.0,0.0,0.0,1.7241,1.7449,1.7996,1.9681,2.0596,2.1405,2.22,2.3013,2.3818,2.4634,2.5415,2.5979,2.6291,2.781,2.9268,3.0497,3.0528,3.102,3.2108,3.209,3.2441,3.3226,3.3524,3.3897,3.4375,3.4683,3.4853,3.4835,3.4789,3.4775,3.4742,3.4366,3.395,3.3442,3.269,3.1733,3.071,3.0286,2.9623,2.8813,2.7974,2.7451,2.714,2.6809,0.0,0.0,0.0,0.0,0.0,0.0,0.0,0.0,0.0,0.0,0.0,0.0,0.0,0.0,0.0,0.0,0.0,0.0,0.0,0.0,0.0,0.0,0.0,0.0,2.8563,2.9095,2.9184,2.8928,2.8861,2.9264,3.01,3.0663,3.0694,3.1614,3.2228,3.2304,3.277,3.3062,3.3093,3.3137,3.3165,3.3149,3.3184,3.3212,3.3253,3.3287,3.3304,3.3303,3.3298,3.3312,3.3363,3.339,3.3404,0.0,3.3405,3.3607,3.3943,3.3945,3.4159,0.0,0.0,0.0,0.0,0.0,3.3557,3.3848,0.0,0.0,0.0,0.0,0.0,0.0,1.7241,1.7444,1.8005,1.9688,2.0584,2.1392,2.221,2.3018,2.381,2.4626,2.5456,2.6328,2.7214,2.8692,2.9866,3.0598,3.0717,3.1387,3.2808,3.2832,3.318,3.3935,3.4656,3.5045,3.5137,3.5922,3.627,3.6256,3.6146,3.6098,3.6043,3.5261,3.4885,3.4739,3.4025,3.2848,3.1518,3.1518,3.1011,3.0222,2.9495,2.8778,2.8026,2.7327,0.0,0.0,0.0,0.0,0.0,0.0,0.0,0.0,0.0,0.0,0.0,0.0,0.0,0.0,0.0,0.0,0.0,0.0,0.0,0.0,0.0,0.0,0.0,0.0,3.0318,3.1364,3.1414,3.0898,3.0776,3.1443,3.227,3.2819,3.2877,3.2981,3.3057,3.3127,3.3228,3.3315,3.3388,0.0,0.0,0.0,0.0,3.3475,3.348,3.3557,3.3575,3.3589,3.3573,3.359,3.3604,3.3652,3.3688,3.3697,3.3693,3.4131,3.4858,3.4842,3.5293,3.5857,3.4307,3.3688,3.3682,3.3626,3.4088,0.0,0.0,0.0,0.0,0.0,0.0,0.0,1.7241,1.7443,1.7998,1.9683,2.0552,2.1353,2.221,2.2963,2.373,2.4548,2.5936,2.7382,2.8841,2.9781,3.0628,3.1432,3.1991,3.2723,3.3655,3.3621,3.3985,3.4766,3.4931,3.5306,3.589,3.6055,3.6117,3.606,3.603,3.6012,3.6012,3.5851,3.5395,3.4794,3.463,3.3623,3.221,3.221,3.1717,3.0987,3.0823,3.027,2.9582,2.9472,2.8581,2.7523,2.7632,2.7211,0.0,0.0,0.0,0.0,0.0,0.0,0.0,0.0,0.0,0.0,0.0,0.0,0.0,0.0,0.0,0.0,0.0,0.0,0.0,3.1468,3.191,3.2173,3.2191,3.2707,3.2906,3.2427,3.2588,3.2748,3.2819,3.3465,3.3903,3.3962,3.461,3.5046,3.5121,3.5112,0.0,3.511,3.5185,3.5209,3.5214,3.5279,3.532,3.5321,0.0,0.0,3.5404,3.5402,3.5441,3.5502,3.55,3.5589,3.5752,3.5759,3.5859,3.5972,3.5629,3.5497,3.5496,3.5429,3.5499,3.5642,0.0,0.0,0.0,0.0,0.0,0.0,1.7208,1.7414,1.7987,1.9641,2.0521,2.1335,2.221,2.2955,2.3715,2.4532,2.6031,2.766,2.9295,2.9715,3.042,3.1607,3.1937,3.2654,3.3823,3.382,3.4192,3.5004,3.5365,3.5959,3.6702,3.7074,3.7244,3.72,3.7171,3.7155,3.7119,3.669,3.6038,3.5275,3.4857,3.3986,3.291,3.2962,3.2498,3.1805,3.1805,3.1276,3.0542,3.0178,2.9533,2.8785,2.8459,2.8102,2.7794,0.0,0.0,0.0,0.0,0.0,0.0,0.0,0.0,0.0,0.0,0.0,0.0,0.0,0.0,3.0468,3.1371,0.0,3.1692,3.2175,3.2647,3.2949,3.3006,3.3781,3.4054,3.3287,3.3639,3.3963,3.401,3.4435,3.4724,3.48,3.5205,3.5476,3.5554,3.5547,3.5577,3.5604,3.5632,3.5664,3.5708,3.5732,3.5775,3.5797,3.5799,3.5827,3.5859,3.5875,3.5916,3.5951,3.5997,3.5991,3.6,3.5992,3.6269,3.6654,3.6649,3.6381,3.6042,3.6414,3.6537,3.6556,0.0,0.0,0.0,0.0,0.0,0.0,0.0,1.7404,1.7977,1.9593,2.0352,2.1159,2.2192,2.2817,2.3606,2.4713,2.6097,2.7538,2.9033,2.9379,3.0128,3.1518,3.1667,3.2371,3.377,3.3807,3.4197,3.4976,3.574,3.6501,3.7277,3.8034,3.8385,3.8352,3.8305,3.8274,3.8219,3.7372,3.6544,3.5731,3.4932,3.4117,3.3408,3.352,3.3148,3.2602,3.2602,3.2074,3.1305,3.0662,3.0243,2.9873,2.9235,2.8961,2.8881,2.8881,2.8505,0.0,0.0,0.0,0.0,0.0,0.0,0.0,0.0,3.0395,3.09,3.0937,3.1488,3.2051,3.2272,3.2302,3.2389,3.2613,3.3245,3.3747,3.3799,3.4565,3.4907,3.4319,3.4798,3.523,3.5414,3.5501,3.5634,3.5856,3.589,3.5907,3.5964,3.5971,3.5946,3.5834,3.5825,3.5776,3.5672,3.5679,3.5704,3.579,3.5797,3.5799,3.5803,3.5879,3.5903,3.5911,3.6144,3.6258,3.6267,3.644,3.6914,3.7554,3.7553,3.7112,3.6555,3.7206,3.7403,3.7451,0.0,0.0,0.0,0.0,0.0,0.0,0.0,0.0,1.7977,1.9593,1.9882,2.0533,2.2135,2.2271,2.3148,2.5372,2.6396,2.7259,2.8108,2.9488,3.0651,3.1483,3.2138,3.2889,3.377,3.3807,3.4165,3.4916,3.5711,3.644,3.7139,3.7942,3.829,3.8224,3.8207,3.8209,3.8154,3.7339,3.6544,3.5731,3.4932,3.4117,3.3393,3.3408,3.3368,3.3281,3.3281,3.277,3.2081,3.2046,3.1093,2.9906,2.9891,2.9375,2.881,2.881,2.8796,2.88,2.88,2.9333,3.0118,3.0976,3.1191,3.1233,0.0,3.1529,3.1607,3.1738,3.1834,3.2143,3.2937,3.3078,3.3325,3.4113,3.4373,3.4502,3.4566,3.5323,3.5866,3.5853,3.5353,3.536,3.6183,3.633,3.6687,3.7464,3.76,3.7613,3.764,3.7685,3.7394,3.6684,3.6678,3.6324,3.5612,3.5602,3.5629,3.5718,3.5766,3.5797,3.5799,3.5868,3.5905,3.595,3.6789,3.7157,3.7205,3.7999,3.8377,3.8457,3.8453,3.8367,3.8235,3.8313,3.8311,3.8268,0.0,0.0,0.0,0.0,0.0,0.0,0.0,0.0,0.0,1.8892,1.9494,2.0245,2.1414,2.2297,2.359,2.5522,2.6442,2.7212,2.7939,2.9063,3.0023,3.0765,3.1513,3.2284,3.3091,3.3568,3.4165,3.4902,3.521,3.5705,3.6399,3.6715,3.683,3.6798,3.6798,3.6798,3.6779,3.6435,3.5838,3.5062,3.469,3.406,3.3337,3.3259,3.3226,3.3241,3.3364,3.3176,0.0,3.2389,3.1787,3.1166,3.0721,3.0366,3.0137,3.0137,3.0188,3.0246,3.0283,3.0583,3.0993,3.144,3.1537,3.1568,3.1639,3.2002,3.2359,3.2472,3.2855,3.3317,3.3764,3.3843,3.3978,0.0,3.4495,3.473,3.5262,3.5692,3.6152,3.6726,3.6534,3.6519,3.6986,3.7146,3.7352,3.771,3.78,3.786,3.7901,3.7921,3.7812,3.7509,3.7506,3.7366,3.7051,3.7088,3.7123,3.7152,3.719,3.723,3.7253,3.7322,3.7373,3.7431,3.7834,3.7991,3.8024,3.8427,3.8904,3.9355,3.9352,3.9637,3.9956,3.9447,3.9238,3.9273,0.0,0.0,0.0,0.0,0.0,0.0,0.0,0.0,0.0,0.0,1.9263,2.0107,2.0892,2.2361,2.376,2.49,2.5977,2.6868,2.7586,2.8405,2.9293,3.0237,3.0766,3.1549,3.2583,3.3156,3.3794,3.4544,3.4699,3.5045,3.555,3.5709,3.5804,3.5804,3.5804,3.5804,3.5786,3.5535,3.5103,3.4542,3.4248,3.3751,3.3229,3.315,3.3101,3.3117,3.3256,3.3319,3.3229,3.2632,3.2307,3.205,3.1482,3.1184,3.1043,3.107,3.1124,3.1245,3.1524,3.1592,3.1673,3.2008,3.2107,3.2132,3.2213,3.2699,3.3118,3.3192,3.3667,3.4111,3.4221,3.4245,3.4269,3.4351,3.4603,3.5034,3.5702,3.6216,3.681,3.751,3.7818,3.8015,3.8112,3.8051,3.8109,3.8336,3.8419,3.8482,3.8525,3.8547,3.8481,3.8316,3.8315,3.8255,3.8059,3.8119,3.8163,3.82,3.8191,3.823,3.8282,3.836,3.8443,3.8513,3.8756,3.8855,3.8874,3.9165,3.9663,4.0234,4.0233,4.0598,4.1016,4.0389,4.0145,4.0208,0.0,0.0,0.0,0.0,0.0,0.0,0.0,0.0,0.0,0.0,0.0,0.0,0.0,2.2346,2.3287,2.3285,2.4779,2.6024,2.6702,2.7551,2.8688,3.0148,3.0228,3.098,3.2564,3.2554,3.2908,3.3642,3.4338,3.4682,3.4661,3.5439,3.5804,3.5804,3.5804,3.5804,3.575,3.4893,3.4537,3.4413,3.351,3.3119,3.3101,3.3101,3.3101,3.3101,3.3101,3.3101,3.3101,3.3083,3.2613,3.2017,3.2036,3.1524,3.0906,3.0971,3.1057,3.1292,3.2142,3.237,3.2566,3.3428,3.3625,3.3666,3.3795,3.3839,3.3884,3.3948,3.3979,3.4023,3.4099,3.4111,3.4148,3.4281,3.5013,3.562,3.5776,3.7147,3.8189,3.8357,3.9122,3.9658,0.0,3.9155,3.9115,3.9954,4.009,4.0129,4.0129,4.0184,3.9874,3.9092,3.9133,3.8789,3.8007,3.8005,3.806,3.8189,3.82,3.8191,3.82,3.8341,3.8435,3.8556,3.939,3.9764,3.983,4.0673,4.1039,4.1069,4.1054,4.1073,4.1105,4.1065,4.1011,4.0968,0.0,0.0,0.0,0.0,0.0,0.0,0.0,0.0,0.0,0.0,0.0,0.0,0.0,0.0,0.0,0.0,2.4724,2.5764,2.5881,2.7218,2.8172,2.8587,2.9641,3.0448,3.0999,3.1455,3.2067,3.2807,3.3011,3.3339,3.381,3.4081,3.4208,3.4208,3.4208,3.4178,3.4117,3.3831,3.3643,3.3528,3.318,3.2719,3.2235,3.2189,3.1837,3.1372,0.0,3.1805,3.2286,3.1747,3.1765,3.2013,3.2043,3.219,3.2388,3.2495,3.2567,3.2694,3.3051,3.312,3.3207,3.3546,3.3629,3.3675,3.3753,3.3766,3.3807,3.3908,3.3934,3.3947,3.4023,3.4074,3.4309,3.4921,3.5343,3.5994,3.71,3.7766,3.839,3.9052,3.9383,0.0,0.0,0.0,0.0,4.0017,4.0106,4.0147,4.0196,4.0225,4.0127,3.9904,3.9966,3.9901,3.9661,3.9662,3.9706,3.9795,3.9844,3.9874,3.9929,4.0014,4.0066,4.0112,4.0445,4.0607,4.0622,4.0959,4.1095,4.1103,4.1093,4.1093,4.1106,4.1091,4.1087,4.1053,0.0,0.0,0.0,0.0,0.0,0.0,0.0,0.0,0.0,0.0,0.0,0.0,0.0,0.0,0.0,0.0,0.0,2.4995,2.5466,2.6509,2.7306,2.778,2.8778,2.9604,3.0191,3.0631,3.1227,3.1969,3.1901,3.2105,3.2542,3.2542,3.2542,3.2542,3.2542,3.2499,3.2444,3.2415,3.2337,3.2229,3.2153,3.1801,3.1336,3.1275,3.0957,0.0,3.0208,3.0513,3.1027,3.0779,3.103,3.1512,3.1828,3.2472,3.3117,3.3198,3.3289,3.3382,3.3408,3.3452,3.3481,3.3549,3.3563,3.3591,3.3643,3.3657,3.3698,3.382,3.3815,3.3873,3.3947,3.3998,3.4313,3.5227,3.5701,3.6427,3.7774,3.8273,3.8743,3.94,3.9483,3.9539,0.0,0.0,0.0,3.9933,3.9986,4.0057,4.0118,4.0148,4.0196,4.0252,4.0317,4.0362,4.0432,4.0444,4.0492,4.0573,4.0668,4.0713,4.0763,4.0828,4.0869,4.0893,4.0964,4.1,4.1016,4.1064,4.1106,4.1098,4.1091,4.1094,4.109,4.1099,4.1101,4.1093,0.0,0.0,0.0,0.0,0.0,0.0,0.0,0.0,0.0,0.0,0.0,0.0,0.0,0.0,0.0,0.0,0.0,0.0,2.5281,2.5466,2.6155,2.7614,2.7725,2.8466,3.0044,3.0009,3.0355,3.1144,3.1083,3.1034,3.0998,3.0998,3.0998,3.0998,3.1003,3.0961,3.0896,3.0812,3.0754,3.0682,3.054,3.0493,3.044,3.044,3.0422,3.0282,2.9601,2.9351,2.9458,3.0154,3.0407,3.0597,3.1509,3.2358,3.3032,3.3068,3.3198,3.3277,3.3277,3.3337,3.3408,3.3481,3.3477,3.3506,3.3577,3.3591,3.3601,3.3671,3.3698,3.3739,3.3855,3.3895,3.4215,3.5135,3.6028,3.6904,3.7769,3.8635,3.9242,0.0,0.0,0.0,0.0,0.0,0.0,3.9781,0.0,3.9922,3.9986,4.0057,4.0127,4.0196,4.0196,4.0224,4.0279,4.0362,4.0438,4.0496,4.0626,4.0694,4.0694,4.0779,4.0833,4.0907,4.0971,4.0995,4.099,4.1061,4.1107,4.109,4.1103,4.1092,4.1094,4.1105,4.1129,4.1168,0.0,0.0,0.0,0.0,0.0,0.0,0.0,0.0,0.0,0.0,0.0,0.0,0.0,0.0,0.0,0.0,0.0,0.0,2.3756,2.4866,2.5677,2.6078,2.6615,2.7383,2.8393,2.8343,2.8967,3.0305,3.0246,3.0472,3.0998,3.0998,3.0998,3.1003,3.0948,3.0896,3.0812,3.0754,3.065,3.0558,3.0511,3.0172,2.969,2.969,2.9301,2.8766,2.857,2.8517,2.8534,2.8731,2.9176,2.9922,3.1291,3.1905,3.2253,3.2847,3.3088,3.315,3.315,3.3229,3.3322,3.3352,3.3396,3.3437,3.3506,3.352,3.3534,3.3601,3.3657,3.3712,3.3739,3.3829,3.4202,3.5076,3.596,0.0,3.7701,3.853,0.0,3.9229,3.9269,3.9328,3.9425,3.9489,0.0,0.0,3.967,3.9792,3.9922,3.9933,4.0005,4.0127,4.0128,4.0158,4.0224,4.0344,4.0438,4.0496,4.0527,4.0605,4.0694,4.0719,4.0754,4.0833,4.0903,4.0952,4.0991,4.1029,4.1047,4.1099,4.1097,4.1109,4.1094,4.1109,4.1508,4.2077,0.0,0.0,0.0,0.0,0.0,0.0,0.0,0.0,0.0,0.0,0.0,0.0,0.0,0.0,0.0,0.0,0.0,0.0,0.0,2.3988,2.4755,2.5472,2.5872,2.6447,2.7255,2.7229,2.7613,2.842,2.8737,2.9063,2.9427,2.9789,2.9952,2.9952,2.9886,2.9805,2.9741,2.9685,2.9583,0.0,0.0,2.923,2.8873,2.8873,2.8588,2.8196,2.8196,2.8196,2.8196,2.8196,2.8731,2.9619,3.0796,3.1433,3.1908,3.2715,3.3011,3.3057,3.3057,3.3135,3.3214,3.3214,3.3274,3.3367,3.3393,3.3437,3.3481,3.3534,3.3591,3.3633,3.3643,3.3739,3.4077,3.4936,3.5846,3.6745,3.7595,3.8436,3.8993,3.9106,3.9129,3.9202,3.9301,3.9399,3.9451,0.0,3.9619,3.972,3.9811,3.9823,3.9878,4.0015,4.0015,4.0058,4.0196,4.0271,4.0351,4.0408,4.0465,4.0546,4.0612,4.0681,4.0718,4.0754,0.0,4.0921,4.0952,4.099,4.1031,4.11,4.1106,4.1104,4.1152,4.1522,4.1983,4.2456,0.0,0.0,0.0,0.0,0.0,0.0,0.0,0.0,0.0,0.0,1.8671,0.0,0.0,0.0,0.0,0.0,0.0,0.0,0.0,0.0,2.3611,2.5113,2.512,2.5503,2.6429,2.6447,2.6431,2.6407,2.7107,2.7373,2.7272,2.7948,2.8274,2.8274,2.8198,2.8134,2.8074,2.7991,2.7924,2.7874,2.7874,2.7874,2.7874,0.0,2.7874,2.7892,2.7999,2.8035,2.8053,2.816,2.8659,2.9369,3.0104,3.0903,3.1689,3.2507,3.2876,3.2997,3.2997,3.3042,3.3086,3.3086,3.3183,3.3277,3.3277,3.3337,3.3393,3.3466,3.3495,3.3524,3.3577,3.3629,3.3922,3.4627,3.555,3.6481,3.7319,3.8188,3.8795,3.8964,3.905,3.9115,3.917,3.9288,3.9373,3.9373,3.9558,3.9662,3.9677,3.9689,3.9766,3.9889,3.99,3.9994,4.0176,4.0187,4.0224,4.0298,4.0408,4.0481,4.0504,4.0615,4.0681,4.0706,0.0,0.0,4.0917,4.0976,4.1036,4.1098,4.1095,4.1175,4.1362,4.2129,4.2554,4.2855,0.0,0.0,0.0,0.0,0.0,0.0,0.0,0.0,0.0,0.0,1.9011,1.9597,0.0,0.0,0.0,0.0,0.0,0.0,0.0,0.0,0.0,2.3491,2.3456,2.4099,2.5576,2.5613,2.5894,2.6479,2.6564,2.657,2.6497,2.6578,2.662,2.6609,2.6489,2.6434,2.6422,2.6292,2.6241,2.6229,2.6229,2.6229,2.6229,2.6229,0.0,0.0,2.696,2.721,2.7299,2.7981,2.8285,2.8552,2.9351,3.0101,3.0868,3.1671,3.2382,3.2916,3.2916,3.2963,3.3011,3.3011,3.3073,3.3117,3.3117,3.3229,3.3307,3.3322,3.3422,3.3491,3.3524,3.3577,3.3684,3.3867,3.4604,3.55,3.6476,3.7315,3.8095,3.8818,3.8979,3.9021,3.9036,3.9161,0.0,0.0,0.0,3.947,3.9526,3.9644,3.9746,3.9815,3.9878,3.9943,4.0027,4.0147,4.0215,4.0224,4.0297,4.0392,4.0496,4.0527,4.0607,4.07,0.0,0.0,4.0912,4.0964,4.1006,4.1019,4.1083,4.1537,4.2197,4.2343,4.3319,4.4579,0.0,0.0,0.0,0.0,0.0,0.0,0.0,1.6628,1.7442,1.8242,1.9077,1.9609,1.9609,1.9609,1.9609,0.0,0.0,0.0,0.0,0.0,0.0,0.0,2.281,2.3364,2.4135,2.4566,2.4922,2.5246,0.0,2.5732,2.5684,2.6046,2.6204,2.6192,2.6051,2.5991,2.5979,2.5868,2.58,2.58,2.58,2.58,2.58,2.58,0.0,0.0,2.6239,2.6368,2.648,2.721,2.7463,2.769,2.8984,2.9637,3.0172,3.135,3.1972,3.2382,3.2793,3.2916,3.2948,3.2948,3.2995,3.3057,3.3057,3.3119,3.3214,3.3277,3.3352,3.3411,3.3437,3.3491,3.3563,3.3591,3.4333,3.5223,3.6123,3.7007,3.7875,3.8741,3.8881,3.8925,3.8935,3.9036,3.9106,0.0,0.0,3.9354,3.9439,3.9539,3.9637,3.975,3.9777,3.9826,3.9943,3.9996,4.0108,4.0187,4.0224,4.0325,4.0444,4.0473,4.0537,4.0649,4.0713,0.0,4.0854,4.0921,4.0976,4.1003,4.1064,4.162,4.2444,4.2908,4.3886,4.5053,0.0,0.0,0.0,0.0,0.0,0.0,0.0,1.6687,1.7467,1.8451,1.9175,1.9609,1.9609,1.9609,1.9609,0.0,0.0,0.0,0.0,0.0,0.0,0.0,0.0,0.0,2.274,0.0,0.0,2.3857,2.4592,0.0,0.0,0.0,0.0,0.0,2.5559,2.5518,2.5488,2.5368,2.5306,0.0,0.0,2.5306,0.0,0.0,0.0,0.0,0.0,2.5534,2.5633,2.6331,2.6676,2.7044,2.8411,2.9077,2.9622,3.085,3.1439,3.1831,3.2472,3.2775,3.29,3.29,3.2932,3.2979,3.2979,3.3026,3.3104,3.3198,3.3262,3.3325,3.3367,3.3437,3.3495,3.3509,3.4116,3.495,3.5937,3.674,3.7584,3.8618,3.8758,3.8822,3.8862,3.8935,0.0,0.0,0.0,0.0,3.9391,3.9452,3.9521,3.965,3.9661,3.9724,3.9856,3.9889,3.9975,4.0147,4.0177,4.0252,4.0362,4.0444,4.0512,4.0574,4.0655,0.0,0.0,4.0864,4.0948,4.1006,4.1058,4.172,4.2767,4.345,4.4375,4.5388,0.0,0.0,0.0,0.0,0.0,0.0,0.0,1.704,1.7671,1.9274,1.9553,1.9609,1.9609,1.9609,1.9609,0.0,0.0,0.0,0.0,0.0,0.0,0.0,0.0,0.0,0.0,0.0,0.0,2.3088,2.379,0.0,0.0,0.0,0.0,0.0,0.0,2.3916,2.3905,2.3759,0.0,0.0,0.0,0.0,0.0,0.0,0.0,0.0,0.0,2.4679,2.4736,2.5533,2.6247,2.6835,2.699,2.8074,2.9351,2.9551,3.06,3.1706,3.1778,3.2347,3.29,3.29,3.29,3.2916,3.2916,3.2963,3.3011,3.3028,3.3168,3.3292,3.331,3.3367,3.3422,3.3495,3.3578,3.4189,3.5775,3.6138,3.6805,3.8342,3.8698,3.8807,3.8822,3.8881,0.0,0.0,0.0,0.0,0.0,3.9418,3.9445,3.9514,3.9526,3.9575,3.9712,3.9845,3.9911,3.9922,4.0108,4.0206,4.0224,4.0362,4.0455,4.0512,0.0,0.0,0.0,4.0873,4.0939,4.1003,4.1,4.2058,4.3599,4.3675,4.4742,4.6191,0.0,0.0,0.0,0.0,0.0,0.0,1.6929,1.7504,1.8247,1.9441,1.9609,1.9609,1.9609,1.9609,1.9609,1.9609,0.0,0.0,0.0,0.0,0.0,0.0,0.0,0.0,0.0,0.0,2.2281,2.2281,2.2949,0.0,0.0,0.0,0.0,0.0,0.0,0.0,2.3689,2.3562,0.0,0.0,0.0,0.0,0.0,0.0,0.0,0.0,0.0,0.0,2.3836,2.4605,2.505,2.5456,2.6431,2.7197,2.7947,2.9016,2.9775,3.0359,3.0853,3.1207,3.1457,3.1457,3.1813,3.2186,3.2186,3.2577,3.2948,3.2979,3.306,3.317,3.3277,3.3322,3.3367,3.3422,3.3481,3.4069,3.57,3.5994,3.6653,3.8308,3.8572,0.0,0.0,0.0,0.0,0.0,0.0,0.0,0.0,3.9248,3.9341,3.9445,3.9483,3.9527,3.9575,3.9696,3.9819,3.99,3.9975,4.0089,4.0205,4.0262,4.0349,4.0516,0.0,0.0,0.0,4.0812,4.0883,4.0945,4.0983,4.2103,4.3704,4.3704,4.4796,4.6308,0.0,0.0,0.0,0.0,0.0,1.6168,1.6984,1.7782,1.8618,1.9497,1.9609,1.9609,1.9609,1.9609,1.9609,1.9609,1.9609,0.0,0.0,0.0,0.0,0.0,0.0,0.0,0.0,0.0,2.1427,2.1427,2.2356,2.2792,0.0,0.0,0.0,0.0,0.0,0.0,0.0,0.0,0.0,0.0,0.0,0.0,0.0,0.0,0.0,0.0,0.0,0.0,0.0,0.0,0.0,2.4497,2.564,2.6292,2.6968,2.8468,2.9079,2.9364,2.9971,3.0303,3.0481,3.0496,3.0939,3.135,3.135,3.1778,3.2186,3.225,3.246,3.2701,3.2823,3.31,3.3325,3.3367,3.3422,3.4043,3.5641,3.5936,3.658,3.8248,0.0,3.8525,0.0,0.0,0.0,0.0,0.0,0.0,0.0,3.9078,3.9202,3.9346,3.9386,3.9445,3.9496,3.9595,3.9715,3.9845,3.9878,3.9977,4.0158,4.0187,4.0297,4.0476,0.0,0.0,0.0,4.0767,4.0844,4.09,4.0964,4.2088,4.3673,4.3695,4.479,4.6306,0.0,0.0,0.0,0.0,0.0,0.0,1.6984,1.7782,1.8618,1.9497,1.9609,1.9609,1.9609,1.9609,1.9609,1.9609,1.9609,0.0,0.0,0.0,0.0,0.0,0.0,0.0,0.0,0.0,2.0503,2.0503,2.2054,2.2792,2.281,2.3484,2.3806,2.3795,0.0,0.0,0.0,0.0,0.0,0.0,0.0,0.0,0.0,0.0,0.0,0.0,0.0,0.0,0.0,0.0,0.0,0.0,0.0,2.5366,2.6799,2.7745,2.8517,2.9133,2.9257,2.9837,3.0421,3.0496,3.0511,3.0496,3.0496,3.0514,3.0529,3.0529,3.1211,3.1808,3.1826,3.2628,3.331,3.331,3.3352,3.3954,3.5569,3.5862,3.6505,0.0,0.0,3.851,3.851,0.0,0.0,0.0,0.0,0.0,0.0,3.8983,3.9064,3.9197,3.9197,3.9296,3.9495,3.9496,3.9575,3.9701,3.9845,3.9965,4.0098,4.0177,4.028,0.0,0.0,0.0,0.0,4.077,4.0832,4.0912,4.098,4.2068,4.3618,4.3684,4.4803,4.6303,0.0,0.0,0.0,0.0,0.0,0.0,0.0,1.7782,1.8618,1.9497,1.9609,1.9609,1.9609,1.9609,1.9609,1.9609,1.9609,0.0,0.0,0.0,0.0,0.0,0.0,0.0,0.0,1.9603,1.9675,1.9675,2.0667,2.1443,2.1999,2.2712,2.3324,2.3795,2.3725,0.0,0.0,0.0,0.0,0.0,0.0,0.0,0.0,0.0,0.0,0.0,0.0,0.0,0.0,0.0,0.0,0.0,0.0,0.0,0.0,2.6651,2.7642,2.8299,2.8386,2.8575,2.8784,2.8842,2.9279,2.9686,2.9747,3.0139,3.0496,3.0496,3.1151,3.175,3.1793,3.2519,3.3137,3.3277,3.3325,3.3912,3.5569,3.5817,0.0,3.8091,3.8417,3.851,0.0,0.0,0.0,0.0,0.0,0.0,0.0,3.891,3.8964,3.9064,3.9142,3.9269,3.9431,3.9476,3.9577,3.9698,3.9743,3.9826,3.9973,4.0087,0.0,0.0,0.0,0.0,0.0,4.07,4.0804,4.0903,4.092,4.2027,4.3601,4.367,4.4809,4.6291,0.0,0.0,0.0,0.0,0.0,0.0,0.0,1.7547,1.8466,1.901,1.9358,1.9557,1.9557,1.9583,1.9609,1.9609,1.9609,0.0,0.0,0.0,0.0,0.0,0.0,0.0,1.9509,1.9372,1.9297,1.9297,2.0346,2.1106,2.1616,2.264,2.3361,2.3795,2.3725,2.37,0.0,0.0,0.0,0.0,0.0,0.0,2.258,0.0,0.0,0.0,0.0,0.0,0.0,0.0,0.0,0.0,0.0,0.0,0.0,0.0,2.6532,2.749,2.7858,2.7957,2.7971,2.8042,2.8443,2.8827,2.8884,2.9255,2.9593,2.9622,3.0493,3.1258,3.13,3.2228,3.3044,3.317,3.3247,3.3885,3.5537,0.0,0.0,3.8091,0.0,0.0,0.0,0.0,0.0,0.0,0.0,0.0,0.0,0.0,3.9209,3.8968,3.9087,3.9215,3.9315,3.9431,3.9514,3.9619,3.9684,3.977,3.99,4.0036,0.0,0.0,0.0,0.0,0.0,4.0668,4.075,4.0858,4.0893,4.2007,4.3601,4.3657,4.4777,4.6303,0.0,0.0,0.0,0.0,0.0,0.0,0.0,1.7064,1.8073,1.8202,1.8902,1.9429,1.9485,1.9569,1.9583,1.9583,0.0,0.0,0.0,0.0,0.0,0.0,0.0,0.0,1.9483,1.9372,1.9334,1.9389,2.083,2.1562,2.1708,2.3085,2.3741,2.3795,2.3725,2.37,2.3624,2.269,2.2296,2.2225,2.1411,2.1095,0.0,0.0,0.0,0.0,0.0,0.0,0.0,0.0,0.0,0.0,0.0,0.0,0.0,0.0,0.0,0.0,0.0,2.7853,2.7903,2.7971,2.8,2.8014,2.8085,2.8099,0.0,2.8168,2.9426,3.0496,3.0496,3.186,3.2979,3.2995,3.317,3.3851,0.0,3.5863,0.0,0.0,3.8307,0.0,0.0,0.0,0.0,0.0,0.0,0.0,0.0,0.0,3.9688,3.9021,3.9054,3.9129,3.9197,3.9328,3.9432,3.9502,3.9635,3.977,3.9889,4.0036,0.0,0.0,0.0,0.0,0.0,4.0666,4.0739,4.0812,4.0864,4.2002,4.3599,4.3601,4.4731,4.6282,0.0,0.0,0.0,0.0,0.0,0.0,0.0,0.0,0.0,0.0,1.8375,1.8758,1.9431,1.9515,1.9518,0.0,0.0,0.0,0.0,0.0,0.0,0.0,0.0,0.0,1.9413,1.9338,1.9601,2.0217,2.0521,2.1316,2.2518,2.2821,2.327,2.3795,2.3725,2.3645,2.3479,2.2664,2.2296,2.2225,2.1411,2.1095,0.0,0.0,0.0,0.0,2.1802,2.2113,0.0,0.0,0.0,0.0,0.0,0.0,0.0,0.0,2.4554,2.5134,2.6521,0.0,2.778,2.7885,2.7917,2.7946,0.0,2.8071,2.8099,2.8112,2.9397,3.0496,3.0496,3.1829,3.2932,3.2979,3.3044,3.3694,3.5455,0.0,0.0,3.8171,0.0,0.0,0.0,0.0,0.0,0.0,0.0,0.0,0.0,0.0,3.9946,3.9815,3.9293,3.9092,3.9197,3.9328,3.9425,3.9502,3.9637,3.9712,3.9766,3.9994,0.0,0.0,0.0,0.0,4.0531,4.0593,4.0681,4.0818,4.0872,4.2014,4.36,4.3601,4.471,4.6221,0.0,0.0,0.0,0.0,0.0,0.0,0.0,0.0,0.0,0.0,0.0,1.8372,1.8859,1.9257,0.0,0.0,0.0,0.0,0.0,0.0,0.0,0.0,0.0,1.9438,1.9398,1.9331,1.9693,2.0503,2.0803,2.1589,2.281,2.3075,2.3415,2.3795,2.3725,2.3634,2.3468,2.2261,2.175,2.1643,2.0501,0.0,0.0,0.0,0.0,0.0,2.08,2.1164,0.0,2.2329,2.2593,2.2663,0.0,0.0,0.0,0.0,2.401,2.4554,2.5735,2.6613,2.7294,2.7707,2.781,2.7824,2.7929,2.7971,2.812,2.8561,2.9618,3.0573,3.0993,3.2061,3.2916,3.2948,3.3301,0.0,0.0,0.0,3.8209,3.8209,0.0,0.0,0.0,0.0,0.0,0.0,0.0,0.0,0.0,0.0,4.0746,4.0129,3.9712,3.9392,3.9156,3.9333,3.9418,3.9457,3.9613,3.9701,3.9701,3.9984,0.0,0.0,0.0,0.0,4.0454,4.0552,4.0662,4.0763,4.0826,4.1728,4.3017,4.344,4.4455,4.5677,0.0,0.0,0.0,0.0,0.0,0.0,0.0,0.0,0.0,0.0,0.0,0.0,0.0,0.0,0.0,0.0,0.0,0.0,0.0,0.0,0.0,0.0,1.9435,1.9398,1.939,1.9331,1.9767,2.0694,2.1296,2.2072,2.3002,2.3539,2.3795,2.3803,2.3725,2.3656,2.3477,2.1807,2.1108,2.0965,1.9421,0.0,0.0,0.0,0.0,0.0,0.0,0.0,0.0,2.1691,2.2008,2.213,2.2861,0.0,0.0,0.0,0.0,0.0,2.5173,2.5897,2.663,2.749,2.7701,2.7716,2.7842,2.7888,2.8161,2.9068,2.9876,3.0668,3.1515,3.2349,3.2936,0.0,0.0,0.0,3.6582,3.7565,3.8174,0.0,0.0,0.0,0.0,0.0,0.0,0.0,0.0,0.0,0.0,0.0,0.0,4.0332,4.0166,3.9778,3.912,3.9288,3.9405,3.9405,3.9588,3.9708,3.9701,3.9962,4.0077,0.0,0.0,0.0,4.0406,4.053,4.0648,4.0713,4.0765,4.1368,4.232,4.3241,4.4143,4.5039,0.0,0.0,0.0,0.0,0.0,0.0,0.0,0.0,0.0,0.0,0.0,0.0,0.0,0.0,0.0,0.0,0.0,0.0,0.0,0.0,0.0,1.942,1.9405,1.9364,1.9323,1.9315,2.0068,2.1592,2.1597,2.2355,2.3814,2.3793,2.3803,2.3797,2.3732,2.3656,2.3477,2.1807,2.1108,2.0965,1.9421,0.0,0.0,0.0,0.0,0.0,0.0,0.0,0.0,2.1516,2.2008,2.213,2.2861,0.0,0.0,0.0,0.0,0.0,2.5015,2.5476,2.5928,2.735,2.7701,2.7716,2.7716,2.7827,2.8118,2.8891,2.9768,3.0637,3.1473,3.2317,3.3114,0.0,0.0,3.6341,0.0,0.0,0.0,0.0,0.0,0.0,0.0,0.0,0.0,0.0,0.0,0.0,0.0,0.0,0.0,4.1132,4.0461,3.9778,3.912,3.9288,3.9405,3.9405,3.9589,3.9691,3.9701,3.9867,3.9994,0.0,0.0,4.0298,4.0413,4.0543,4.0639,4.072,4.0773,4.1368,4.2316,4.3244,4.4145,4.5024,0.0,0.0,0.0,0.0,0.0,0.0,0.0,0.0,0.0,0.0,0.0,0.0,0.0,0.0,0.0,0.0,0.0,0.0,0.0,0.0,1.9357,1.9357,1.9357,1.9331,1.9297,1.973,2.0556,2.1794,2.2109,2.2838,2.3996,2.3847,2.3803,2.38,2.3732,2.3678,2.3544,2.1828,2.1108,2.0965,0.0,0.0,0.0,0.0,0.0,0.0,0.0,0.0,0.0,0.0,2.1024,2.1481,2.2259,0.0,0.0,0.0,0.0,0.0,2.498,2.5401,2.577,2.7315,2.7701,2.7701,2.7701,2.8082,2.8675,2.9477,3.0313,3.1168,3.208,3.2572,3.3246,3.4491,0.0,0.0,0.0,0.0,0.0,0.0,0.0,0.0,0.0,0.0,0.0,0.0,0.0,0.0,0.0,0.0,0.0,0.0,4.0945,4.0207,3.912,3.9229,3.9328,3.9405,3.9608,3.971,3.9701,3.9845,3.9965,4.0098,0.0,4.028,4.0415,4.0511,4.0583,4.0641,4.0725,4.1028,4.1616,4.3069,4.4143,4.5025,0.0,0.0,0.0,0.0,0.0,0.0,0.0,0.0,0.0,0.0,0.0,0.0,0.0,0.0,0.0,0.0,0.0,0.0,0.0,1.9297,1.9297,1.9297,1.9297,1.9297,1.9297,2.0089,2.0914,2.1777,2.2465,2.3211,2.3947,2.3855,2.3806,2.3795,2.3725,2.37,2.3581,2.1838,2.1108,2.0965,0.0,0.0,0.0,0.0,0.0,0.0,0.0,0.0,0.0,0.0,0.0,0.0,0.0,0.0,0.0,2.3107,2.3107,2.344,2.498,2.5401,2.577,2.7315,2.7701,2.7736,2.7929,2.8456,2.9191,3.0221,3.0903,3.1587,3.2548,3.3058,0.0,3.5258,3.6237,0.0,0.0,0.0,0.0,0.0,0.0,0.0,0.0,0.0,0.0,0.0,0.0,0.0,0.0,0.0,0.0,0.0,4.1298,4.0596,3.912,3.917,3.9256,3.9405,3.9571,3.9674,3.9701,3.9823,3.9943,4.0098,4.0158,4.0262,4.0396,4.046,4.0534,4.0621,4.0668,4.0883,4.1329,4.2996,4.415,4.5033,0.0,0.0,0.0,0.0,0.0,0.0,0.0,0.0,0.0,0.0,0.0,0.0,0.0,0.0,0.0,0.0,0.0,0.0,0.0,1.9297,1.9297,1.9297,1.9297,1.9297,1.9297,2.0089,2.0898,2.1706,2.2446,2.3153,2.3816,2.3806,2.3806,2.3795,2.3725,2.37,2.3581,2.1838,2.1108,2.0965,1.9421,0.0,0.0,0.0,0.0,0.0,0.0,0.0,0.0,0.0,0.0,0.0,0.0,0.0,2.3107,2.3107,2.3107,2.344,2.498,2.5401,2.577,2.7315,2.7701,2.7894,2.8649,2.886,2.9316,3.0825,3.1224,3.1554,3.2365,3.3844,3.5243,3.6149,0.0,0.0,0.0,0.0,0.0,0.0,0.0,0.0,0.0,0.0,0.0,0.0,0.0,0.0,0.0,0.0,0.0,0.0,0.0,4.0596,3.912,3.917,3.9256,3.9405,3.9482,3.9589,3.9701,3.9705,3.9859,4.0106,4.0117,4.0215,4.0388,4.0408,4.0485,4.0621,4.0668,4.1275,4.2214,4.324,4.4141,4.504,0.0,0.0,0.0,0.0,0.0,0.0,0.0,0.0,0.0,0.0,0.0,0.0,0.0,0.0,0.0,0.0,0.0,0.0,0.0,1.9297,1.9297,1.9297,1.9297,1.93,1.9295,2.0099,2.0889,2.1697,2.2892,2.3595,2.3806,2.3806,2.3803,2.3789,2.3732,2.3667,2.3533,2.1817,2.1108,2.0965,1.9421,1.8797,0.0,0.0,0.0,0.0,0.0,0.0,0.0,0.0,1.9777,2.0848,2.1147,2.2101,2.3107,2.3107,2.3107,2.344,2.498,2.5401,2.577,2.7315,2.807,2.8526,2.8842,2.9299,2.9948,3.0984,3.1614,3.2228,3.3089,0.0,3.5954,3.6274,0.0,0.0,0.0,0.0,0.0,0.0,0.0,0.0,0.0,0.0,0.0,0.0,0.0,0.0,0.0,0.0,0.0,0.0,0.0,4.0566,3.9054,3.9101,3.9229,3.9405,3.9469,3.9577,3.9701,3.9701,3.9856,4.0106,4.0106,4.0206,4.0407,4.0405,4.0473,4.0602,4.0718,4.1025,4.1514,4.2453,4.3339,4.4215,0.0,0.0,0.0,0.0,0.0,0.0,0.0,0.0,0.0,0.0,0.0,0.0,0.0,0.0,0.0,0.0,0.0,0.0,1.9269,1.9269,1.9269,1.9269,1.9269,1.9272,1.9266,1.9813,2.0591,2.1634,2.3135,2.3837,2.3806,2.3806,2.3792,2.3804,2.3721,2.3656,2.3477,2.1807,2.1108,2.0965,1.9421,1.8797,0.0,0.0,0.0,0.0,0.0,0.0,0.0,0.0,1.9373,2.0479,2.0725,2.1697,2.2791,2.3037,2.3107,2.344,2.498,2.5401,2.577,2.7315,2.8298,2.8965,2.9228,2.9878,3.0668,3.1423,3.2195,3.309,3.4234,3.542,0.0,0.0,0.0,0.0,0.0,0.0,0.0,0.0,0.0,0.0,0.0,0.0,0.0,0.0,0.0,0.0,0.0,0.0,0.0,0.0,0.0,4.0551,3.903,3.9059,3.9202,3.9405,3.9444,3.9564,3.9701,3.9701,3.9826,4.0067,4.0077,4.0186,4.0344,4.0379,4.0476,4.0602,4.0718,4.0801,4.098,4.1926,4.2833,4.3711,0.0,0.0,0.0,0.0,0.0,0.0,0.0,0.0,0.0,0.0,0.0,0.0,0.0,0.0,0.0,0.0,0.0,0.0,1.9211,1.9211,1.9211,1.9211,1.9211,1.9211,1.9211,1.9211,1.9969,2.1507,2.3037,2.3777,2.3806,2.3795,2.3792,2.3804,2.3721,2.3656,2.3477,2.1807,2.1108,2.0965,1.9421,1.8797,1.8779,0.0,0.0,0.0,0.0,0.0,0.0,0.0,1.9039,1.9819,2.0567,2.134,2.2148,2.2879,2.3107,2.344,2.498,2.5401,2.577,2.7315,2.8315,2.9123,2.993,3.0668,3.1423,3.223,3.3002,3.4039,3.5678,3.6054,0.0,0.0,0.0,0.0,0.0,0.0,0.0,0.0,0.0,0.0,0.0,0.0,0.0,0.0,0.0,0.0,0.0,0.0,0.0,0.0,0.0,0.0,3.9011,3.9059,3.9202,3.9405,3.9405,3.9496,3.9701,3.9701,3.9804,3.9996,4.0067,4.0147,4.0215,4.0353,4.0476,4.0621,4.0668,4.0736,4.0915,4.1845,4.2786,4.3708,0.0,0.0,0.0,0.0,0.0,0.0,0.0,0.0,0.0,0.0,0.0,0.0,0.0,0.0,0.0,0.0,0.0,0.0,1.9211,1.9211,1.9211,1.9211,1.9211,1.9184,1.9123,1.9682,2.0472,2.1507,2.2529,2.3288,2.3795,2.38,2.3775,2.3721,2.3663,2.3596,2.3421,2.1786,2.1108,2.0965,1.9421,1.8761,1.8715,0.0,0.0,0.0,0.0,0.0,0.0,0.0,0.0,0.0,2.0567,2.134,2.2148,2.2879,2.3107,2.344,2.498,2.5401,2.577,2.7315,2.8737,2.9808,3.0053,3.0668,3.1581,3.2897,3.4213,3.5285,3.576,3.6384,0.0,0.0,0.0,0.0,0.0,0.0,0.0,0.0,0.0,0.0,0.0,0.0,0.0,0.0,0.0,0.0,0.0,0.0,0.0,0.0,0.0,0.0,3.8939,3.9031,3.9202,3.9405,3.9405,3.952,3.9698,3.9696,3.9781,3.9933,4.0046,4.0147,4.0215,4.0411,4.0519,4.0621,4.0668,4.0736,4.0837,4.116,4.1844,4.2754,0.0,0.0,0.0,0.0,0.0,0.0,0.0,0.0,0.0,0.0,1.435,1.4368,0.0,0.0,0.0,0.0,0.0,0.0,0.0,1.9162,1.9162,1.9162,1.9162,1.9135,1.9101,1.9575,2.0227,2.1025,2.2157,2.2906,2.333,2.3652,2.375,2.3663,2.3618,2.3562,2.3416,2.2125,2.1393,2.1001,1.9741,1.9018,1.8697,0.0,0.0,0.0,0.0,0.0,0.0,0.0,0.0,0.0,2.0567,2.134,2.2148,2.2879,2.3107,2.344,2.498,2.5401,2.577,2.7315,2.8912,3.0248,3.0878,3.1581,3.2476,3.3704,3.495,3.5897,3.6215,3.6732,0.0,0.0,0.0,0.0,0.0,0.0,0.0,0.0,0.0,0.0,0.0,0.0,0.0,0.0,0.0,0.0,0.0,0.0,0.0,0.0,0.0,0.0,3.891,3.9031,3.9202,3.9405,3.9405,3.9495,3.9669,3.9684,3.9758,3.9878,4.0036,4.0177,4.0289,4.0411,4.0516,4.0593,4.0636,4.07,4.0759,4.0839,4.1427,4.2319,0.0,0.0,1.4223,1.4273,0.0,0.0,0.0,0.0,0.0,0.0,1.4293,1.4323,0.0,0.0,0.0,0.0,0.0,0.0,0.0,1.9087,1.9087,1.9087,1.9105,1.9105,1.9087,1.9087,1.9449,2.0165,2.1712,2.2488,2.2509,2.3295,2.361,2.3488,2.3567,2.3551,2.3452,2.2642,2.1839,2.1026,2.0218,1.9416,1.8678,1.8627,0.0,0.0,0.0,0.0,0.0,0.0,0.0,0.0,2.0567,2.134,2.2148,2.2879,2.3107,2.344,2.4967,2.5388,2.5756,2.73,2.8881,3.0477,3.202,3.302,3.381,3.4547,3.5337,3.6145,3.6867,0.0,0.0,0.0,0.0,0.0,0.0,0.0,0.0,0.0,0.0,0.0,0.0,0.0,0.0,0.0,0.0,0.0,0.0,0.0,0.0,0.0,0.0,0.0,3.891,3.9031,3.9202,0.0,3.9405,3.9482,3.9589,3.9672,3.9747,3.9837,4.0026,4.0206,4.0379,4.0407,4.0491,4.0588,4.0593,4.0636,4.0706,4.0784,4.1348,4.2214,0.0,0.0,1.4198,1.4223,0.0,0.0,0.0,0.0,0.0,0.0,0.0,0.0,0.0,0.0,0.0,0.0,0.0,0.0,0.0,1.8992,1.9027,1.9027,1.907,1.907,1.9027,1.9027,1.9082,1.92,2.0219,2.1049,2.1663,2.2376,2.2701,2.2676,2.3265,2.3517,2.3452,2.2642,2.1836,2.1028,2.0225,1.9385,1.8617,1.8616,1.8569,0.0,0.0,0.0,0.0,0.0,0.0,0.0,2.0567,2.134,2.2148,2.2879,2.3107,2.3428,2.4931,2.532,2.5673,2.717,2.8709,3.0277,3.1882,3.3298,3.4367,3.4634,3.5795,3.6796,3.6972,0.0,0.0,0.0,0.0,0.0,0.0,0.0,0.0,0.0,0.0,0.0,0.0,0.0,0.0,0.0,0.0,0.0,0.0,0.0,0.0,0.0,0.0,3.9076,3.891,3.9031,3.9202,0.0,3.9405,3.9482,3.9589,3.9672,3.9834,4.0036,4.0077,4.0186,4.0325,4.037,4.0455,4.0531,4.0586,4.0636,4.0706,4.0784,4.0964,4.131,0.0,0.0,0.0,0.0,0.0,0.0,0.0,0.0,0.0,0.0,0.0,0.0,0.0,0.0,0.0,0.0,1.8437,0.0,0.0,0.0,1.8948,1.8948,1.8992,1.9001,1.8948,1.8948,1.894,1.8904,1.9372,1.9965,2.0748,2.148,2.2013,2.2375,2.2743,2.3131,2.347,2.3019,2.2356,2.1594,2.1139,2.0219,1.9135,1.9132,1.8866,1.8495,1.8495,0.0,0.0,0.0,0.0,0.0,0.0,0.0,2.2598,2.2947,2.3057,2.3377,2.4846,2.5251,2.5795,2.8051,2.9219,3.021,3.1795,3.3366,3.4523,3.4596,3.588,3.7007,0.0,0.0,0.0,0.0,0.0,0.0,0.0,0.0,0.0,0.0,0.0,0.0,0.0,0.0,0.0,0.0,0.0,0.0,0.0,0.0,0.0,0.0,3.9043,3.891,3.891,3.9031,3.9202,3.9405,3.9405,3.9489,3.9656,3.9684,3.9834,4.0057,4.0096,4.0167,4.0252,4.0362,4.043,4.0511,4.0569,4.0621,4.0655,4.0724,4.079,4.0974,0.0,0.0,0.0,0.0,0.0,0.0,0.0,0.0,0.0,0.0,0.0,0.0,0.0,0.0,1.7731,0.0,0.0,0.0,0.0,0.0,0.0,1.8904,1.8904,1.8895,1.8895,1.8887,1.8887,1.8878,1.887,1.9192,1.9809,2.0624,2.132,2.1904,2.2178,2.2649,2.328,2.3353,2.2922,2.2183,2.2128,2.1207,1.9882,1.9893,1.9478,1.8899,1.8899,1.8899,1.9004,1.9672,0.0,0.0,0.0,0.0,2.3082,2.302,2.2995,2.3301,2.4781,2.5376,2.6248,2.9048,2.976,3.016,3.1707,3.3311,3.4485,3.4504,3.5842,0.0,0.0,0.0,0.0,0.0,0.0,0.0,0.0,0.0,0.0,0.0,0.0,0.0,0.0,0.0,0.0,0.0,0.0,0.0,0.0,0.0,3.9386,3.8726,3.8822,3.891,3.891,3.9031,3.9202,3.9405,3.9431,3.9521,3.9701,3.9701,3.9804,3.9996,4.0067,4.0147,4.0205,4.0335,4.0424,4.0502,4.0562,4.0591,4.0602,4.0675,4.073,4.0904,0.0,0.0,0.0,0.0,0.0,0.0,0.0,0.0,0.0,0.0,1.627,1.6574,0.0,0.0,0.0,1.8601,1.8744,1.8815,1.8815,0.0,0.0,1.8904,1.8904,1.8905,1.8896,1.8896,1.887,1.8815,1.8806,1.886,1.8985,1.9779,2.0208,2.0358,2.1636,2.2273,2.2405,2.3047,2.2847,2.2105,2.2112,2.1531,2.0648,2.0638,2.0596,2.0479,2.0479,2.0479,2.0508,2.062,2.1182,0.0,0.0,0.0,2.302,2.299,2.297,2.3237,2.4715,2.6061,2.7417,2.9126,2.954,2.9955,3.1548,3.3219,3.4427,0.0,0.0,0.0,0.0,0.0,0.0,0.0,0.0,0.0,0.0,0.0,0.0,0.0,0.0,0.0,0.0,0.0,0.0,0.0,0.0,0.0,0.0,3.9127,3.8817,3.8707,3.8822,3.891,3.891,3.9031,3.9202,3.9405,3.952,3.9619,3.9701,3.9701,3.9804,3.9996,4.0067,4.0147,4.0215,4.028,4.0342,4.0424,4.0484,4.0549,4.0602,4.0675,4.0738,4.0831,0.0,0.0,0.0,0.0,0.0,0.0,0.0,0.0,0.0,0.0,0.0,1.7311,0.0,0.0,0.0,1.866,1.8724,1.8752,1.8797,1.8842,1.8843,1.8852,1.8852,1.8843,1.8833,1.8833,1.8824,1.8797,1.8761,1.8742,1.8742,1.907,1.9479,1.9988,2.1057,2.1781,2.2242,2.2941,2.3047,2.2706,2.2688,2.2189,2.1463,2.1463,2.1182,2.0807,2.0807,2.0807,2.0877,2.1323,2.1686,2.2019,2.2427,0.0,0.0,0.0,2.2868,2.3159,2.4631,2.6156,2.7644,2.9127,2.9506,2.9903,3.1492,3.2833,3.3849,3.434,0.0,0.0,0.0,0.0,0.0,0.0,0.0,0.0,0.0,0.0,0.0,0.0,0.0,0.0,0.0,0.0,0.0,0.0,0.0,0.0,3.8948,3.8779,3.8723,3.8747,3.8851,3.8925,3.8968,3.9045,3.9202,3.9405,3.9546,3.9631,3.9701,3.9701,3.9781,3.9943,4.0057,4.0127,4.0157,4.0252,4.0334,4.0415,4.0471,4.0543,4.0605,4.0641,4.0694,4.0744,0.0,0.0,0.0,0.0,0.0,0.0,0.0,0.0,0.0,0.0,0.0,0.0,0.0,0.0,0.0,0.0,1.8659,1.8697,1.876,1.876,1.876,1.876,1.876,1.876,1.876,1.876,1.876,1.876,1.8697,1.866,1.866,1.8622,1.8948,1.9607,2.0558,2.1308,2.1938,2.2811,2.318,2.318,2.3132,2.2768,2.2289,2.2289,2.192,2.1393,2.137,2.137,2.1446,2.2031,2.2205,2.2244,2.2808,2.2932,0.0,0.0,0.0,2.3594,2.4709,2.6126,2.7644,2.9127,2.9506,2.9903,3.1455,0.0,3.3411,0.0,0.0,0.0,0.0,0.0,0.0,0.0,0.0,0.0,0.0,0.0,0.0,0.0,0.0,0.0,0.0,0.0,0.0,0.0,0.0,3.9021,3.8435,3.8578,3.8719,3.8807,3.8881,3.8921,3.8993,3.912,3.9261,3.9405,3.9546,3.9631,3.9701,3.9701,3.977,3.99,4.0026,4.0077,4.0117,4.0234,4.0307,4.0379,4.0449,4.0523,4.058,4.0579,4.0641,4.0707,0.0,0.0,0.0,0.0,0.0,0.0,0.0,0.0,0.0,0.0,0.0,0.0,1.8595,1.8595,1.8595,1.8595,1.8595,1.8622,1.8604,1.8604,1.8604,1.8604,1.8604,0.0,1.8604,1.8604,1.8604,1.8604,1.8622,1.8622,1.8612,1.86,1.8624,1.8739,2.0238,2.0932,2.1055,2.2499,2.3107,2.3089,2.3107,2.3089,2.3037,2.3037,2.3019,2.2972,2.291,2.2885,0.0,0.0,0.0,0.0,0.0,2.2868,2.2803,0.0,0.0,0.0,2.4988,2.6126,2.7644,2.9127,2.9506,2.9903,0.0,0.0,0.0,0.0,0.0,0.0,0.0,0.0,0.0,0.0,0.0,0.0,0.0,0.0,0.0,0.0,0.0,0.0,0.0,0.0,0.0,0.0,0.0,3.8435,3.8399,3.8578,3.8719,3.8807,3.8881,3.8921,3.8993,3.9266,3.9391,3.9405,3.9546,3.9631,3.9701,3.9701,3.977,3.99,3.9975,4.0046,4.0117,4.0176,4.0244,4.0316,4.0379,4.0455,4.0504,4.058,4.0639,4.0707,0.0,0.0,0.0,0.0,0.0,0.0,0.0,0.0,0.0,0.0,0.0,0.0,0.0,1.8544,1.8544,1.8544,1.8581,1.8592,1.8595,1.8595,1.8595,1.8595,1.8595,1.8595,1.8595,1.8595,1.8595,1.8595,1.8592,1.86,1.86,1.8551,1.8532,1.8602,2.0149,2.0846,2.0941,2.2452,2.3082,2.3045,2.3045,2.302,2.2982,2.2982,2.2982,2.2982,2.2927,0.0,0.0,0.0,0.0,0.0,0.0,2.279,2.2824,2.3294,2.4174,2.5109,2.5592,2.6488,2.754,2.8541,2.9161,2.9782,3.0851,3.1808,0.0,0.0,0.0,0.0,0.0,0.0,0.0,0.0,0.0,0.0,0.0,0.0,0.0,0.0,0.0,0.0,0.0,0.0,0.0,0.0,0.0,0.0,3.8399,3.8578,3.875,3.8866,3.8896,3.895,3.9059,3.9293,3.9405,3.9405,3.9546,3.9626,3.971,3.9696,3.9747,3.9837,3.9911,4.0005,4.0117,4.0176,4.0234,4.0307,4.0325,4.0405,4.0495,4.0535,4.0588,4.0639,0.0,0.0,0.0,0.0,0.0,0.0,0.0,0.0,0.0,1.8375,0.0,0.0,0.0,0.0,1.8445,1.8455,1.8522,1.8561,1.8565,1.8565,1.8565,1.8565,1.8565,1.8565,1.8565,1.8565,1.8565,1.8565,1.8571,1.8559,1.853,1.8493,1.8596,1.8891,2.018,2.0751,2.0879,2.2392,2.3008,2.297,2.297,2.2944,2.2906,2.2906,2.2906,0.0,0.0,0.0,0.0,0.0,0.0,0.0,0.0,2.2911,2.3164,2.3664,2.4543,2.5488,2.5956,2.6695,2.7471,2.8213,2.8954,2.9713,3.0506,0.0,0.0,0.0,0.0,0.0,0.0,0.0,0.0,0.0,0.0,0.0,0.0,0.0,0.0,0.0,0.0,0.0,0.0,0.0,0.0,0.0,0.0,0.0,3.8399,3.8578,3.8765,3.891,3.8935,3.9021,3.9101,3.9288,3.9405,3.9405,3.9546,3.9645,3.9693,3.9696,3.9735,3.9804,3.9878,3.9954,4.0067,4.0147,4.0206,4.0262,4.0298,4.0342,4.0449,4.0487,4.0535,4.058,0.0,0.0,0.0,0.0,0.0,0.0,0.0,0.0,1.83,1.83,0.0,0.0,0.0,0.0,0.0,1.8385,1.8455,1.8485,1.8485,1.8485,1.8485,1.8485,1.8485,1.8485,1.8485,1.8485,1.8485,1.8485,1.8485,1.8455,1.8396,1.8396,1.8794,1.9519,2.0274,2.0656,2.0818,2.227,2.2906,2.2906,2.2906,2.2924,2.2941,2.2941,2.2928,0.0,2.2899,2.2855,0.0,2.2794,0.0,0.0,0.0,2.3267,2.3836,2.3871,2.4922,2.6109,0.0,0.0,0.0,2.8178,2.892,2.9679,3.0472,0.0,0.0,0.0,0.0,0.0,0.0,0.0,0.0,0.0,0.0,0.0,0.0,0.0,0.0,0.0,0.0,0.0,0.0,0.0,0.0,0.0,0.0,3.8399,3.8399,3.8578,3.8765,3.891,3.9017,3.9101,3.9101,3.9288,3.9405,3.9405,3.9546,3.9645,3.9693,3.9696,3.9735,3.9804,3.9878,3.9933,3.9996,4.0067,4.0147,4.0206,4.0271,4.0307,4.0316,4.0449,4.0487,4.0516,0.0,0.0,0.0,0.0,0.0,1.8236,1.8236,1.826,1.8291,0.0,0.0,0.0,1.83,1.83,1.83,1.8338,1.833,1.8358,1.8358,1.8358,1.8358,1.8358,1.8358,1.8358,1.8358,1.8358,1.8358,1.8358,1.8358,1.8358,1.8338,1.8338,1.8746,1.9536,2.0229,2.0848,2.1491,2.2476,2.2881,2.2829,2.2829,2.3132,2.3546,0.0,0.0,0.0,0.0,2.4395,2.4381,0.0,2.4353,2.4353,0.0,2.4505,2.4767,2.5301,2.5766,2.623,2.6816,0.0,0.0,0.0,0.0,0.0,2.9661,3.0543,0.0,0.0,0.0,0.0,0.0,0.0,0.0,0.0,0.0,0.0,0.0,0.0,0.0,0.0,0.0,0.0,0.0,0.0,0.0,0.0,3.832,3.8399,3.8399,3.8637,3.8807,3.891,3.8979,3.9064,3.9101,3.9288,3.9405,3.9405,3.9546,3.962,3.9633,3.9672,3.9712,3.9735,3.9856,3.9911,3.9933,4.0046,4.0147,4.0206,4.0263,4.029,4.0288,4.0334,4.0413,4.0507,0.0,0.0,1.807,1.8108,1.8119,1.8119,1.8119,1.8431,1.8681,0.0,0.0,0.0,1.9189,1.9193,1.9232,1.9232,1.9236,1.9247,1.9247,1.8979,1.8805,1.8805,1.8474,1.83,1.83,1.83,1.83,1.83,1.83,1.8307,1.8304,1.8607,1.9169,1.9917,2.0633,2.1399,2.2142,2.2613,2.2803,2.2799,2.3079,2.345,0.0,2.4163,2.4594,0.0,0.0,0.0,2.5005,2.5005,2.5005,0.0,0.0,0.0,2.5525,2.5956,2.635,2.6695,2.7161,2.7299,2.7299,2.7299,0.0,0.0,2.9334,3.0231,3.1133,0.0,0.0,0.0,0.0,0.0,0.0,0.0,0.0,0.0,0.0,0.0,0.0,0.0,0.0,0.0,0.0,0.0,0.0,3.718,3.7321,3.7445,3.7525,3.8021,3.8339,3.8412,3.8783,3.9036,3.9101,3.9288,3.9405,3.9405,3.9546,3.9589,3.9589,3.9668,3.9696,3.9701,3.9804,3.9878,3.9911,3.9996,4.0077,4.0137,4.0215,4.0253,4.0252,4.0289,4.0342,4.0413,0.0,0.0,1.7994,1.7994,1.8062,1.8113,1.8113,1.8802,1.9298,0.0,1.9934,2.0371,2.0371,2.043,2.0465,2.0477,2.0535,2.057,2.0582,1.9967,1.9602,1.9602,1.8906,1.8488,1.8419,1.8419,1.8367,1.8297,1.8297,1.8319,1.8433,1.9081,1.9808,2.0549,2.1285,2.2009,2.2685,2.2685,2.2737,2.2861,2.3529,2.3905,0.0,0.0,2.5178,2.5264,2.5264,2.5264,2.5264,2.5264,2.5264,0.0,0.0,0.0,0.0,0.0,2.6747,2.7299,2.7299,2.7299,2.7299,2.7299,2.7782,0.0,2.9317,3.0162,3.1028,0.0,0.0,0.0,0.0,0.0,0.0,0.0,0.0,0.0,0.0,0.0,0.0,0.0,0.0,0.0,0.0,3.5491,3.5591,3.577,3.5921,3.6087,3.6285,3.7036,3.7495,3.7548,3.8413,3.8892,3.8971,3.9251,3.9391,3.9405,3.9533,3.9577,3.9589,3.9669,3.9698,3.9689,3.977,3.9826,3.99,3.9965,3.9986,4.0007,4.0147,4.0186,4.0196,4.0252,4.0298,4.0307,1.7911,1.7922,1.7933,1.7994,1.8489,1.8893,1.8893,1.9513,2.0008,2.0008,2.0128,2.0243,2.0243,2.0255,2.0291,2.0323,2.0347,2.0371,2.043,2.0304,2.0217,2.0217,2.0068,1.9705,1.9112,1.9095,1.8802,1.8225,1.8225,1.8525,1.9107,1.9257,2.0056,2.1371,2.1539,2.1983,2.2619,2.2619,2.2922,2.3445,2.3694,2.4543,2.5663,2.5833,2.6299,2.6851,2.6851,2.6851,2.6851,2.6851,2.6851,2.6851,0.0,0.0,0.0,2.7057,0.0,0.0,0.0,0.0,0.0,0.0,0.0,0.0,2.9196,2.9763,3.0418,0.0,0.0,0.0,0.0,0.0,0.0,0.0,0.0,0.0,0.0,0.0,0.0,0.0,0.0,0.0,0.0,3.5491,3.5591,3.577,3.5921,3.6087,3.6285,3.6464,3.6609,3.6736,3.7525,3.8016,3.8135,3.8867,3.9301,3.9405,3.9482,3.9546,3.9589,3.9669,3.9705,3.9698,3.9777,3.9804,3.9826,3.99,3.9954,4.0007,4.0087,4.0127,4.0137,4.0186,4.0215,4.0224,1.7794,1.8099,1.8364,1.845,1.9061,1.9554,1.9554,2.0224,2.0743,2.0743,2.111,2.1344,2.1344,2.1344,2.1357,2.1396,2.1396,2.1409,2.1447,2.1104,2.0899,2.0899,2.0509,2.0132,1.9755,1.9755,1.9567,1.919,1.919,1.9378,1.9755,2.0161,2.0757,2.1511,2.1872,2.2253,2.2572,2.2932,2.3517,2.4154,2.4227,0.0,2.604,2.64,2.6811,2.7206,2.7566,2.7944,2.8253,2.8253,2.8303,0.0,0.0,2.7785,2.7782,0.0,2.7299,2.7299,0.0,0.0,0.0,2.7299,0.0,0.0,0.0,2.9936,3.068,0.0,0.0,0.0,0.0,0.0,0.0,0.0,0.0,0.0,0.0,0.0,0.0,0.0,0.0,0.0,0.0,3.4305,3.44,3.4637,3.4735,3.4867,3.4999,3.5412,3.5731,3.59,3.6676,3.7355,3.7894,3.837,3.8878,3.9405,3.9469,3.9533,3.9589,3.9645,3.9669,3.9693,3.9746,3.9743,3.9747,3.98,3.9826,3.9922,4.0007,4.0057,4.0057,4.0137,4.0147,4.0148,1.8089,1.8589,1.9009,1.9053,1.9689,2.0166,2.0166,2.0903,2.1528,2.1691,2.2262,2.2733,2.2869,2.2886,2.29,2.29,2.29,2.2914,2.2928,2.2228,2.1818,2.1818,2.1071,2.0581,2.0427,2.0427,2.0359,2.0193,2.0193,2.0291,2.0445,2.1105,2.1477,2.1647,2.2228,2.2556,2.2743,2.3323,2.4076,2.4878,0.0,2.5371,2.6189,2.6923,2.7213,2.7315,2.8049,2.8698,2.9211,2.9211,2.9263,2.9265,2.8596,2.8475,0.0,0.0,0.0,0.0,0.0,0.0,0.0,0.0,0.0,2.8816,0.0,0.0,0.0,0.0,0.0,0.0,0.0,0.0,0.0,0.0,0.0,0.0,0.0,0.0,0.0,0.0,0.0,0.0,0.0,3.315,3.3256,3.3477,3.3563,3.3633,3.3698,3.4376,3.4853,3.5019,3.5845,3.6652,3.7416,3.7798,3.8367,3.9136,3.9369,3.952,3.9583,3.9589,3.9633,3.9681,3.9693,3.9698,3.9708,3.9689,3.9735,3.9792,3.9903,3.9975,3.9986,4.0057,4.0077,4.0077,1.9536,1.9629,1.9696,1.9709,2.0307,2.0793,2.0793,2.1547,2.2341,2.3069,2.3236,2.3541,2.4199,2.4284,2.4299,2.4362,2.4362,2.4392,2.4452,2.3764,2.3337,2.3337,2.2638,2.1938,2.1289,2.1272,2.0918,2.0193,2.0193,2.0564,2.1272,2.1357,2.175,2.2381,2.2467,2.2832,2.3388,2.349,2.4279,0.0,2.5489,2.6044,0.0,2.7691,2.7964,2.8066,2.8818,2.9143,2.9211,0.0,2.9211,2.9211,0.0,2.9178,2.9265,2.9179,0.0,0.0,0.0,0.0,0.0,0.0,2.9317,0.0,0.0,0.0,0.0,0.0,0.0,0.0,0.0,0.0,0.0,0.0,0.0,0.0,0.0,0.0,0.0,0.0,0.0,0.0,0.0,0.0,3.3408,3.3477,3.3563,3.3633,3.3698,3.3858,3.3976,3.4055,3.495,3.5528,3.5681,3.7175,3.8003,3.818,3.9005,3.9444,3.9508,3.9583,3.9589,3.9602,3.9669,3.9693,3.9705,3.9696,3.9701,3.9712,3.9792,3.9848,3.9922,3.9986,4.0007,4.0007,1.9884,2.0097,2.0394,2.0434,2.1047,2.1546,2.1546,2.2197,2.3013,2.375,2.3866,2.3984,2.4286,2.432,2.4368,2.448,0.0,2.4509,0.0,0.0,2.4124,2.4124,2.3427,2.2869,2.2564,2.2139,2.1752,2.1417,2.1417,2.1583,2.1919,2.1919,2.2088,2.2394,2.2836,2.3178,2.3488,0.0,2.5065,0.0,0.0,0.0,0.0,2.781,2.8489,2.9304,2.961,3.0,3.0376,0.0,3.0396,0.0,0.0,0.0,0.0,0.0,0.0,0.0,0.0,0.0,0.0,0.0,0.0,0.0,3.061,0.0,3.1602,0.0,0.0,0.0,0.0,0.0,0.0,0.0,0.0,0.0,0.0,0.0,0.0,0.0,0.0,0.0,0.0,0.0,0.0,0.0,0.0,3.3601,3.3629,3.3739,3.3815,3.3895,3.4323,3.4813,3.539,3.614,3.7004,3.8,3.8398,3.888,3.9444,3.9508,3.9546,3.9546,3.962,3.9645,3.9645,3.9631,3.9656,3.9691,3.9727,3.9773,3.98,3.9823,3.9834,3.9826,2.0423,2.068,2.1088,2.1144,2.1592,2.2022,2.2237,2.2891,2.3643,2.4411,2.4494,2.4578,2.4811,2.4995,0.0,0.0,2.5144,2.5193,0.0,0.0,2.4734,0.0,0.0,0.0,0.0,2.3175,2.2801,2.2598,2.2598,2.2499,2.2296,2.2296,2.2398,2.2617,2.3156,2.3613,2.4069,0.0,2.5727,2.6015,2.7283,2.8043,2.8432,2.8432,2.9244,3.0395,3.0395,3.0751,3.119,3.119,3.1232,0.0,3.0645,0.0,0.0,0.0,0.0,0.0,3.0003,0.0,0.0,0.0,0.0,0.0,0.0,0.0,0.0,0.0,0.0,0.0,0.0,0.0,0.0,3.0966,0.0,0.0,0.0,0.0,0.0,0.0,0.0,0.0,0.0,0.0,0.0,0.0,3.2724,3.3263,3.3277,3.3584,3.3788,3.3868,3.3934,3.4306,3.5012,3.5317,3.6197,3.7657,3.7893,3.8473,3.936,3.9425,3.9469,3.9469,3.9514,3.9558,3.9558,3.9558,3.9583,3.962,3.962,3.9626,3.9625,3.9677,3.9701,3.9701,2.1539,2.1658,2.1763,2.1763,2.1796,2.2074,2.2849,2.3597,0.0,0.0,0.0,0.0,0.0,0.0,0.0,0.0,0.0,2.712,2.6486,0.0,2.5263,0.0,0.0,2.4385,0.0,0.0,2.4085,2.3359,2.3359,2.3004,2.2296,2.2296,2.2682,2.3359,2.3376,2.4188,2.5525,2.5576,2.6015,2.6725,2.7486,2.8686,3.0021,0.0,3.0497,3.1157,3.1157,0.0,0.0,3.119,3.119,0.0,0.0,0.0,0.0,0.0,0.0,0.0,0.0,0.0,0.0,3.1695,0.0,0.0,0.0,0.0,3.1948,0.0,0.0,0.0,0.0,0.0,3.1879,3.0387,3.0233,0.0,0.0,0.0,0.0,0.0,0.0,0.0,0.0,0.0,0.0,3.1053,3.1847,3.237,3.2452,3.325,3.3739,3.3807,3.3855,3.3952,3.4035,3.4944,3.5855,3.6755,3.7588,3.8415,3.921,3.9328,3.9405,3.9405,3.9405,3.9405,3.9405,3.9405,3.9418,3.9418,3.9418,3.9418,3.9425,3.9637,3.9701,3.9701,2.2179,2.2308,2.2323,2.2323,2.2402,2.2893,0.0,2.4597,0.0,0.0,0.0,0.0,0.0,2.7973,2.8025,0.0,0.0,2.8083,2.7905,2.7637,0.0,0.0,0.0,2.5497,0.0,0.0,0.0,0.0,2.3919,2.3801,2.3566,2.3566,2.3701,2.3953,2.4439,2.4943,0.0,0.0,0.0,0.0,0.0,2.9696,3.0642,0.0,0.0,3.119,3.119,3.119,0.0,3.119,3.119,3.119,3.119,3.123,3.1232,3.1232,3.131,0.0,0.0,0.0,3.1557,3.1653,0.0,0.0,0.0,0.0,0.0,0.0,0.0,0.0,0.0,3.1915,3.1282,3.0248,2.9728,2.9097,0.0,0.0,0.0,0.0,0.0,0.0,0.0,0.0,0.0,3.0201,3.1011,3.1756,0.0,3.2693,3.3163,3.3721,3.3842,3.3908,3.3934,3.4293,3.5203,3.6652,3.6925,3.7801,3.9142,3.9229,3.9269,3.9269,3.936,3.9405,3.9405,3.9405,3.9405,3.9405,3.9405,3.9405,3.9418,3.9489,3.9496,3.9496,2.2834,2.2916,2.2932,2.2982,0.0,0.0,0.0,0.0,0.0,0.0,2.7385,0.0,2.8265,0.0,2.8655,0.0,2.8685,2.8738,2.8546,2.8529,0.0,2.7829,2.7382,0.0,0.0,0.0,0.0,0.0,0.0,2.4461,2.4193,2.4193,2.4344,2.4611,2.5079,2.5464,2.5782,2.6518,2.7103,0.0,0.0,3.0185,0.0,0.0,3.1476,3.1476,0.0,3.1628,3.1847,3.1888,3.1908,3.1908,3.1985,3.1985,3.1985,3.1985,3.2009,3.2072,3.2111,3.2168,0.0,3.2327,3.2196,0.0,3.2139,0.0,0.0,0.0,0.0,0.0,0.0,0.0,3.1319,3.0615,2.9888,2.91,0.0,2.8112,0.0,0.0,0.0,0.0,0.0,0.0,2.9295,2.9329,3.0137,3.0988,0.0,0.0,3.2816,3.3662,3.3793,3.3842,3.3895,3.3947,3.47,3.6128,3.6424,3.7271,3.8623,3.8976,3.9133,3.9147,3.9248,3.9288,3.9288,3.9288,3.9288,3.9288,3.9288,3.9293,3.9266,3.936,3.9405,3.9405,2.3528,2.3577,2.3661,0.0,2.4422,0.0,0.0,0.0,2.6959,0.0,2.7614,2.8132,2.8326,2.8988,2.9176,2.8635,2.9181,2.9264,2.8588,2.8539,0.0,0.0,2.8519,2.8191,2.7478,0.0,0.0,0.0,0.0,2.5029,2.431,2.431,2.4662,2.5364,2.538,2.5832,2.6586,2.7253,2.7552,2.7719,2.9159,3.0215,3.1005,3.1708,0.0,3.2093,3.206,3.2462,3.3009,3.3156,3.3198,3.322,3.3343,3.3385,3.3385,3.3385,3.3385,3.3427,3.3549,3.359,3.3611,3.368,0.0,0.0,0.0,0.0,3.1905,0.0,0.0,0.0,0.0,0.0,3.1987,3.1301,3.0592,2.9662,2.8337,0.0,0.0,0.0,0.0,0.0,0.0,2.8419,2.8479,2.8492,2.9261,3.0137,0.0,0.0,3.2689,3.3666,3.3684,3.3766,3.3881,3.3881,3.4358,3.5304,3.6122,3.692,3.7728,3.8598,3.9011,3.8993,3.9059,3.9087,3.9087,3.9087,3.9087,3.9087,3.9087,3.9045,3.904,3.928,3.9378,3.9378,2.4144,2.4677,2.5246,0.0,2.6138,2.6292,0.0,0.0,0.0,0.0,2.8698,2.9259,3.0379,3.0674,3.0926,3.1254,3.1473,0.0,0.0,0.0,0.0,2.9201,2.9171,2.886,2.8165,2.8168,0.0,2.6789,0.0,2.6407,2.5692,2.5692,2.5792,2.5991,2.654,2.6907,2.714,2.7852,2.8467,2.8995,2.9925,3.0738,0.0,0.0,3.2386,3.3289,3.2899,3.2859,3.3009,3.3031,3.3053,3.3053,3.3074,3.3096,3.3134,3.322,3.3241,3.3284,3.3406,3.3448,3.3469,3.3611,3.3516,3.3424,0.0,0.0,0.0,0.0,0.0,0.0,0.0,0.0,0.0,3.1252,3.0104,2.9193,2.8817,0.0,0.0,2.8126,0.0,0.0,0.0,2.834,2.8375,2.8479,2.8717,0.0,0.0,0.0,0.0,3.3512,3.3605,3.3657,3.3753,3.3753,3.4256,3.5242,3.604,3.6878,3.7728,3.8555,3.8939,3.8939,3.8935,3.895,3.895,3.895,3.895,3.895,3.895,3.8935,3.8921,3.9011,3.9026,3.9026,2.5236,2.5982,0.0,2.7057,0.0,0.0,2.7297,0.0,0.0,2.9337,2.9712,0.0,3.1557,3.1694,3.1863,3.2246,3.2318,0.0,3.1829,0.0,0.0,3.0705,3.0375,2.9922,2.9254,2.8923,0.0,2.7779,0.0,2.7564,2.7164,2.7164,2.7164,2.7181,2.7597,2.7779,2.7829,2.8542,2.9433,3.0406,3.0803,0.0,0.0,3.2448,3.3077,3.3796,3.381,3.3822,3.3839,3.3907,3.3929,3.3929,3.3974,3.3996,3.4019,3.4102,3.4124,3.4147,3.4278,3.4317,3.4344,3.4452,3.4279,3.4104,3.4229,3.4018,3.3722,0.0,0.0,0.0,0.0,0.0,0.0,3.1201,3.0443,2.97,0.0,0.0,0.0,0.0,0.0,0.0,0.0,0.0,2.834,2.8419,0.0,0.0,0.0,0.0,0.0,3.3455,3.3534,3.3591,3.3675,3.3675,3.395,3.455,3.5711,3.6562,3.7131,3.8317,3.8866,3.8866,3.8896,3.891,3.891,3.891,3.891,3.891,3.8881,3.8837,3.881,3.8743,3.8803,3.891,2.6491,2.7183,0.0,0.0,0.0,0.0,0.0,2.8639,0.0,2.9945,0.0,3.1371,3.2225,3.2306,3.2385,3.2527,0.0,3.2501,3.242,3.2403,3.2394,3.2318,3.1745,3.1117,3.0443,2.9856,2.9209,0.0,0.0,2.8453,2.8373,2.8373,2.8373,2.8392,2.8492,2.8591,0.0,2.94,3.0423,3.1593,3.1676,3.2139,3.285,3.3495,3.3809,3.3975,3.462,3.4875,3.4923,3.5018,3.5065,3.5088,3.5222,3.5245,3.5245,3.5268,3.5268,3.5291,3.5446,3.5469,3.5492,3.5571,3.5187,3.48,3.4822,3.4402,3.3994,3.4014,3.3539,0.0,0.0,0.0,0.0,3.1323,0.0,0.0,0.0,0.0,0.0,0.0,0.0,0.0,0.0,0.0,0.0,0.0,0.0,0.0,0.0,0.0,0.0,3.3412,3.3481,0.0,3.3591,0.0,3.367,3.3867,3.5367,3.6201,3.6476,3.8051,3.8762,3.8743,3.8803,3.8833,3.8833,3.8833,3.8833,3.8818,3.8758,3.8701,3.8643,3.8525,3.8618,3.8803,2.7219,0.0,0.0,0.0,0.0,2.9515,2.9948,3.03,3.0581,3.071,3.1357,3.2093,3.287,3.2951,3.3178,3.3754,3.3786,0.0,0.0,0.0,0.0,3.2312,3.2204,3.181,3.115,3.1019,3.0297,0.0,0.0,0.0,2.8237,2.8237,2.8295,2.8426,2.8969,2.9566,3.0174,3.0903,0.0,3.1495,3.2111,3.2724,3.329,3.3421,3.3864,3.4389,3.4521,3.4715,3.4899,3.4923,3.4947,3.4947,3.497,3.497,3.4994,3.5088,3.5152,3.5158,3.5291,3.5354,3.536,3.5492,3.5436,3.5403,3.5564,3.5528,3.53,3.4818,3.4662,3.4452,3.3874,0.0,0.0,0.0,0.0,0.0,0.0,0.0,0.0,0.0,0.0,0.0,0.0,0.0,0.0,0.0,0.0,0.0,0.0,0.0,0.0,0.0,0.0,0.0,0.0,0.0,3.3876,3.4623,3.5571,3.6371,3.7064,3.8026,3.8462,3.8462,3.8478,3.8478,3.8478,3.8478,3.8478,3.8496,3.8462,3.8446,3.8449,3.843,3.8417,3.8403,0.0,0.0,0.0,0.0,0.0,0.0,0.0,3.1478,0.0,3.187,3.22,3.2708,3.3534,3.3615,3.3744,3.4068,3.4101,3.398,3.3673,3.3681,3.3543,3.325,3.2916,0.0,3.2292,3.1932,3.1432,3.0762,0.0,0.0,2.9814,2.942,2.9276,2.937,3.0058,3.0782,0.0,0.0,0.0,3.2469,3.2814,3.3365,3.3973,3.3973,3.4186,3.4497,3.4497,3.4841,3.5218,3.4895,3.4804,3.4804,3.4875,3.4899,3.4923,3.497,3.5276,3.5599,3.5719,3.5783,3.5806,3.5924,3.5685,3.5446,3.5611,3.5633,3.5599,3.5402,3.5075,3.4647,3.4017,3.3397,0.0,0.0,0.0,0.0,0.0,0.0,0.0,0.0,0.0,0.0,0.0,0.0,0.0,0.0,0.0,0.0,0.0,0.0,0.0,0.0,0.0,0.0,0.0,0.0,0.0,3.4712,3.5554,3.6401,3.7234,3.8018,3.8399,3.8399,3.8399,3.8399,3.8399,3.8399,3.8399,3.8399,3.8352,3.832,3.8252,3.8203,3.8138,3.8106,0.0,2.989,0.0,0.0,3.1262,0.0,3.1756,3.2306,3.2748,3.2753,3.2891,3.331,3.4145,3.4277,3.4341,3.4487,3.4529,3.457,3.457,3.457,3.4505,3.4327,3.3834,3.3421,3.3177,3.2657,3.2329,0.0,0.0,0.0,0.0,3.0904,3.0626,0.0,0.0,0.0,0.0,0.0,3.2852,3.3368,3.3532,3.39,3.444,3.4603,3.4652,3.4668,3.4823,3.5273,3.5666,3.5202,3.5079,3.5128,3.5225,3.525,3.525,3.525,3.5687,3.6216,3.6315,3.6364,3.6413,3.6551,3.6148,3.5777,3.5893,3.5799,3.575,3.5921,3.5411,3.4772,3.4216,3.3639,0.0,0.0,0.0,0.0,0.0,0.0,0.0,0.0,0.0,0.0,0.0,0.0,0.0,0.0,0.0,0.0,0.0,0.0,0.0,0.0,0.0,3.307,3.3101,0.0,3.3942,0.0,3.5654,3.6515,3.7378,3.7996,3.8303,3.8303,3.8303,3.8303,3.8303,3.8303,3.8303,3.8287,3.8239,3.8156,3.8052,3.7966,3.7898,3.7864,0.0,0.0,0.0,0.0,0.0,0.0,0.0,3.2807,3.3107,3.2668,3.3198,3.387,3.4574,3.4812,3.5148,3.5766,3.5996,3.6092,3.6092,3.6092,3.5801,3.5146,3.5049,3.4417,3.3137,3.304,3.2683,0.0,0.0,0.0,0.0,0.0,0.0,0.0,0.0,0.0,0.0,3.3023,3.3279,3.3274,3.3966,3.4185,3.4216,3.488,3.5124,3.5221,3.5876,3.6167,3.6243,3.6234,3.6326,3.6413,3.6439,3.6439,3.6439,3.6439,3.6624,3.6825,3.6825,3.6927,3.7053,3.7195,3.7153,3.7145,3.7268,3.6798,3.6343,3.6427,3.6045,3.5499,3.4916,3.4753,3.4257,0.0,0.0,0.0,0.0,0.0,0.0,0.0,0.0,0.0,0.0,0.0,0.0,0.0,0.0,0.0,0.0,0.0,0.0,3.288,0.0,3.2979,3.3101,3.3854,0.0,3.5434,3.6242,3.7052,3.7843,3.7915,3.7951,3.7951,3.7951,3.7951,3.7951,3.7951,3.7951,3.7951,3.7934,3.7934,3.7916,3.7775,3.7685,3.7613,0.0,0.0,0.0,0.0,0.0,0.0,0.0,3.3719,3.401,3.4233,3.4218,3.4473,3.5283,3.5444,3.5599,3.5872,3.6012,3.6109,3.6109,3.6233,3.6173,3.5866,3.5849,3.538,3.4385,3.4369,3.3987,0.0,0.0,0.0,0.0,0.0,0.0,0.0,0.0,3.2998,3.3405,3.3697,3.4047,3.4419,3.4737,3.5075,3.5461,3.5752,3.5849,3.5898,3.6189,3.6562,3.6902,3.6913,3.6755,3.647,3.6558,3.6584,3.66,3.6617,3.698,3.7377,3.7377,3.7429,3.7498,3.7687,3.7382,3.7119,3.732,3.7136,3.6851,3.6504,3.5996,3.5571,3.536,3.5023,3.4593,0.0,0.0,0.0,0.0,0.0,0.0,0.0,0.0,0.0,0.0,0.0,0.0,0.0,0.0,0.0,0.0,0.0,0.0,3.2721,0.0,3.2968,3.3498,3.3885,3.472,3.6039,3.6413,3.7039,3.7899,3.7899,3.7899,3.7899,3.7899,3.7899,3.7881,3.781,3.7775,3.7757,3.7667,3.7595,3.7577,3.7485,3.7392,3.728,3.1792,0.0,3.2892,0.0,3.3477,3.4067,3.4541,3.462,3.4873,3.56,3.5308,3.5292,3.5912,3.5999,3.6123,3.6346,3.6485,3.6568,3.6568,3.6738,3.6767,3.6529,3.6583,0.0,3.5525,3.5509,3.5266,3.4748,3.4262,0.0,0.0,0.0,0.0,0.0,3.3939,3.4295,3.4748,3.4748,3.504,3.5509,3.5509,3.5833,3.6335,3.6529,3.6583,3.6627,3.6837,3.7226,3.7603,3.7603,3.7345,3.7005,3.7095,3.7133,3.7149,3.7138,3.7524,3.7954,3.7954,3.7981,3.8062,3.8202,3.785,3.7524,3.7748,3.7659,3.7361,3.6785,3.6169,3.5788,3.584,3.5301,3.4832,3.4703,0.0,0.0,0.0,0.0,0.0,0.0,3.1271,3.0846,3.0846,0.0,0.0,0.0,0.0,0.0,0.0,0.0,0.0,0.0,0.0,0.0,0.0,3.4287,3.5155,3.6328,3.6613,3.7077,3.7721,3.7721,3.7721,3.7721,3.7721,3.7721,3.7721,3.7613,3.7559,3.7522,3.7374,3.7299,3.7279,3.7164,3.7068,3.6935,3.3135,3.3814,3.4273,3.4273,3.4873,3.5363,3.5379,3.5379,3.5631,3.6298,3.6377,3.6377,3.6377,3.6518,3.6874,3.7605,3.7786,3.7873,3.7873,3.8062,3.7854,0.0,0.0,3.6956,3.6303,3.6303,3.6287,3.627,0.0,0.0,3.5179,0.0,3.5179,3.5211,3.5946,3.627,3.627,3.627,3.6287,3.6303,3.6303,3.6303,3.6384,3.7048,3.7279,3.7376,3.8116,3.8375,3.8391,3.8391,3.8375,3.8375,3.8375,3.8375,3.8375,3.8375,3.8488,3.8588,3.8588,3.8694,3.8788,3.8788,3.8772,3.8799,3.8936,3.848,3.785,3.7377,3.6818,3.6396,3.6396,3.5793,3.504,3.4337,0.0,0.0,0.0,0.0,0.0,0.0,3.1925,3.1481,3.1481,0.0,0.0,0.0,0.0,0.0,0.0,0.0,0.0,3.2197,3.3055,0.0,3.36,3.5242,3.6092,3.611,3.6907,3.7297,3.7297,3.7297,3.7297,3.7297,3.7297,3.7297,3.7297,3.7314,3.7222,3.7108,3.7091,3.705,3.6987,3.6869,3.6731,3.6612,3.4589,3.4889,3.5047,3.5047,3.5236,3.5552,3.6026,3.6061,3.6342,3.7054,3.7148,3.7148,3.7148,3.7191,3.7316,0.0,3.7671,3.7759,0.0,3.7905,3.7895,3.7671,3.7684,3.7432,3.6851,3.6835,3.6664,3.6303,0.0,0.0,0.0,3.5946,3.5946,3.5963,3.6206,3.6303,3.6303,3.6303,3.6562,3.6972,3.6972,3.729,3.7732,3.7858,3.7911,3.7915,3.8026,3.8049,3.8049,3.8049,3.8049,3.8049,3.8049,3.8221,3.8391,3.8391,3.842,3.8448,3.8448,3.8504,3.8544,3.8644,3.8655,3.8683,3.8832,3.8302,3.7781,3.7767,3.7276,3.6696,3.6328,3.614,3.581,3.5073,0.0,0.0,0.0,0.0,0.0,0.0,3.2748,3.251,0.0,3.2533,0.0,0.0,0.0,0.0,0.0,0.0,0.0,0.0,3.3677,0.0,3.4904,3.5432,3.5996,3.658,3.6845,3.7007,3.7105,3.7105,3.7105,3.7105,3.7105,3.7105,3.7085,3.7007,3.693,3.6891,3.6751,3.667,3.6629,3.6527,3.636,3.626,3.53,3.56,3.5789,3.5789,3.5995,3.6327,3.6753,3.6817,3.6975,3.7447,3.751,3.7605,3.7844,3.7875,0.0,3.7526,3.7569,3.7612,3.7612,3.7759,3.7817,3.7817,3.7876,3.7754,3.742,0.0,0.0,3.6888,3.6712,3.661,3.661,3.6664,3.6691,3.6707,3.6983,3.7096,3.7096,3.7041,3.7256,3.7644,3.756,3.779,3.8193,3.8107,3.8078,3.8126,3.8267,3.8304,3.8336,3.8608,3.8688,3.8688,3.8688,3.8836,3.8885,3.8382,3.8221,3.8221,3.8221,3.8221,3.825,3.8391,3.8464,3.8504,3.8683,3.8406,3.816,3.8257,3.7745,3.7164,3.6836,3.6398,3.5957,3.5492,3.4835,3.4416,3.4462,0.0,0.0,0.0,0.0,0.0,0.0,3.3018,0.0,0.0,0.0,0.0,0.0,0.0,0.0,3.3394,3.4192,0.0,3.5322,3.5639,3.6099,3.6687,3.6728,3.6809,3.6888,3.6888,3.6869,3.6809,3.6809,3.6771,3.6731,3.665,3.6588,3.6564,3.6381,3.6276,3.6212,3.6088,3.6063,3.6186,3.5537,3.6058,0.0,0.0,3.7038,0.0,3.751,3.7541,3.7589,3.7589,3.7621,3.7859,3.8507,3.8586,3.8318,3.77,0.0,0.0,0.0,3.7771,3.7814,3.7814,3.7932,3.7987,3.7969,3.7969,3.7953,3.7905,3.742,3.7154,3.7154,3.7277,3.7365,3.7446,3.8153,3.8476,3.8509,3.8382,3.8309,3.8325,3.8107,3.8049,3.8049,3.8049,3.8049,3.8129,3.88,3.904,3.9136,3.9761,3.9984,3.9984,3.9984,3.9984,3.9713,3.8432,3.8049,3.8049,3.8049,3.8049,3.8078,3.8296,3.8277,3.8314,3.852,3.8655,3.875,3.8777,3.8237,3.7746,3.7724,3.6626,3.5725,3.5676,3.5153,3.4797,3.4918,0.0,0.0,0.0,0.0,0.0,0.0,3.31,3.31,0.0,0.0,0.0,0.0,0.0,3.3799,3.3748,3.4607,3.5063,3.5063,3.5872,3.6339,3.6482,3.6602,3.6643,3.6643,3.6643,3.6582,3.6444,3.6461,3.6381,3.6259,3.6259,3.6212,3.6144,3.6014,3.5883,3.5751,3.5667,3.59,3.6267,0.0,0.0,3.7227,3.7227,3.737,3.751,3.751,3.7923,3.827,3.827,3.8713,3.9092,3.925,3.9266,3.9202,3.9044,3.9029,3.9029,3.9029,3.906,3.9075,3.9075,3.9105,3.8913,3.8539,3.8523,3.8298,3.7905,3.7758,3.7706,3.7706,3.7735,3.8052,3.8627,3.8787,3.9127,3.964,3.958,3.958,3.958,3.9519,3.9503,3.9473,3.9398,3.9367,3.9353,3.9373,3.939,3.9421,3.9549,3.9612,3.9612,3.9612,3.9612,3.9611,3.9539,3.9503,3.9503,3.9503,3.9503,3.9503,3.955,3.9209,3.8694,3.8178,3.8221,3.8363,3.8476,3.8442,3.8231,3.7779,3.7429,3.7019,3.6462,3.5816,3.5407,3.5432,3.4832,0.0,0.0,3.4255,3.395,3.3492,3.3985,3.4114,0.0,0.0,0.0,0.0,0.0,3.4734,3.4312,3.5154,3.5611,3.5611,3.5912,3.6084,3.6105,3.6148,3.6165,3.6165,3.6165,3.6148,3.6105,3.6014,3.5949,3.5927,3.5822,3.5756,3.5711,3.5549,3.5452,3.5434,3.5735,3.5769,3.5851,3.7431,3.751,3.751,3.751,3.7733,3.7954,3.7954,3.8523,3.8965,3.8965,3.9281,3.9629,3.9977,4.0008,4.0135,4.0435,3.9866,3.9503,3.9503,3.9503,3.9503,3.9503,3.9503,3.9344,3.9057,3.9057,3.8928,3.8639,3.8715,3.8774,3.8774,3.8834,3.9072,3.9455,3.9455,3.9663,3.9984,3.9923,3.9892,3.9892,3.9814,3.9768,3.9768,3.969,3.9659,3.9691,3.9913,4.0008,4.0056,4.0356,4.0387,4.0322,4.0322,4.0273,4.0257,4.0434,4.0166,3.9768,3.9768,3.9768,3.9768,3.9892,3.9666,3.9344,3.8944,3.8713,3.8605,3.8663,3.8447,3.8177,3.7857,3.7545,3.7188,3.6799,3.6151,3.5734,3.5854,3.5538,0.0,3.5013,3.4988,3.4734,3.4077,3.4364,3.4454,3.4147,0.0,0.0,3.4828,3.4899,3.4905,3.4863,3.5324,3.5571,3.5571,3.5667,3.5734,3.5734,3.58,3.5822,3.5822,3.5822,3.5761,3.5717,3.5616,3.5526,3.5481,3.5344,3.5281,3.5291,3.5343,3.5396,3.5455,3.5892,3.6059,3.6227,3.7636,3.7668,3.77,3.7794,3.827,3.8665,3.8665,3.9234,3.9677,3.9677,3.9756,4.0056,4.0688,4.0751,4.0972,4.1541,4.0498,3.9819,3.9819,3.9819,3.9819,3.9819,3.9819,3.9771,3.9677,3.9566,3.9503,3.9503,3.9659,3.9768,3.9768,3.9876,3.9971,4.0082,4.0082,4.013,4.0226,4.0117,4.0086,4.0055,3.9898,3.9819,3.9819,3.9819,3.9819,3.9898,4.053,4.0719,4.0798,4.1366,4.1423,4.1256,4.1256,4.1187,4.1117,4.1117,4.0457,3.9724,3.9724,3.9724,3.9771,3.9849,3.9942,4.0004,3.9939,3.9521,3.9088,3.8976,3.848,3.8033,3.7921,3.7438,3.7038,3.7038,3.6446,3.6064,3.6265,0.0,3.6011,3.5671,3.5615,3.5386,3.4766,3.4701,3.4701,3.4701,3.4725,0.0,0.0,3.475,3.4972,3.5421,3.5392,3.5439,3.5556,3.5599,3.5645,3.5645,3.5761,3.5807,3.5807,3.5807,3.5738,3.5645,3.5539,3.5421,3.5302,3.5158,3.511,3.5135,3.5404,3.5522,3.5577,3.6061,3.6417,3.668,3.8239,3.8349,3.8523,3.9092,3.9281,3.9345,3.9345,3.9961,4.0435,4.0435,4.0909,4.1304,4.1415,4.143,4.1478,4.1573,4.1399,4.1257,4.1257,4.1257,4.1257,4.1257,4.1257,4.1004,4.0435,3.9819,3.9503,3.9503,3.9534,3.9534,3.9534,3.9565,3.9898,4.0499,4.0499,4.0815,4.1338,4.1338,4.1305,4.1305,4.1305,4.1257,4.1257,4.1257,4.1257,4.1288,4.1399,4.1332,4.1215,4.1309,4.1239,4.1135,4.1135,4.1117,4.1117,4.1117,4.0995,4.0841,4.0841,4.0841,4.0734,4.0319,4.0227,4.0134,3.9676,3.9642,3.9496,3.8876,3.8788,3.8654,3.8001,3.7809,3.7729,3.7729,3.7166,3.6746,3.6802,0.0,3.5856,3.577,3.5754,3.5706,3.561,3.5594,3.5594,3.5594,3.5685,3.5781,3.5781,3.5871,3.5951,3.6072,3.5843,3.6059,3.6729,3.6754,3.6738,3.6738,3.6763,3.6779,3.6779,3.6779,3.6763,3.6754,3.6494,3.6383,3.6357,3.6098,3.6019,3.5967,3.5755,3.5679,3.5732,3.6206,3.6224,3.6119,3.8981,3.9044,3.9139,3.9455,3.9835,4.0087,4.0087,4.0688,4.113,4.113,4.1399,4.1588,4.1588,4.1588,4.1588,4.1588,4.1588,4.1588,4.1588,4.1588,4.1588,4.1588,4.1588,4.1446,4.1146,4.0798,4.0625,4.0625,4.0625,4.0625,4.0625,4.0625,4.0798,4.113,4.113,4.1304,4.1588,4.1588,4.1588,4.1588,4.1588,4.1588,4.1588,4.1588,4.1522,4.1423,4.1423,4.1339,4.1187,4.1187,4.1086,4.095,4.095,4.0848,4.0796,4.0796,4.0932,4.1117,4.1117,4.1117,4.1039,4.0796,4.0718,4.0673,4.041,4.0131,3.9801,3.9456,3.9204,3.8777,3.8099,3.7957,3.7877,3.7571,3.7252,0.0,0.0,3.7023,3.6729,3.643,3.6382,3.6238,3.5854,3.5794,3.5794,3.5794,3.586,3.5888,3.5888,3.5942,3.6173,3.6559,3.6204,3.6186,3.6565,3.6565,3.6565,3.6565,3.6565,3.6565,3.6565,3.6565,3.6565,3.6565,3.6354,3.6222,3.6099,3.591,3.579,3.5728,3.577,3.5799,3.5865,3.6294,3.6273,3.6091,3.9724,3.9756,3.9803,3.9961,4.0451,4.083,4.083,4.1257,4.1588,4.1588,4.1588,4.1588,4.1588,4.1588,4.1588,4.1588,4.1588,4.1588,4.1588,4.1588,4.1588,4.1588,4.1588,4.1588,4.1588,4.1588,4.1588,4.1588,4.1588,4.1588,4.1588,4.1588,4.1588,4.1588,4.1588,4.1588,4.1588,4.1588,4.1683,4.1841,4.1841,4.1936,4.2078,4.2045,4.1929,4.176,4.1742,4.1622,4.1517,4.1517,4.1364,4.121,4.121,4.1121,4.0981,4.0981,4.1082,4.1184,4.1013,4.0966,4.0966,4.1,4.1034,4.1034,4.1083,4.0647,4.0195,4.0039,3.9572,3.9043,3.8356,3.8216,3.8107,3.7698,0.0,0.0,0.0,3.7634,3.7393,3.6969,3.6934,3.6683,3.6142,3.6094,3.6094,3.6094,3.6094,3.6094,3.6094,3.6094,3.6333,3.6918,3.6701,3.6604,3.6604,3.6604,3.6604,3.6604,3.655,3.655,3.655,3.6506,3.6479,3.6479,3.6341,3.6159,3.5987,3.5818,3.5707,3.5629,3.5865,3.5948,3.595,3.623,3.6163,3.5958,4.0388,4.0514,4.0704,4.1336,4.1478,4.1525,4.1525,4.1557,4.1588,4.1588,4.1588,4.1588,4.1588,4.1588,4.1588,4.1588,4.1588,4.1588,4.1588,4.1588,4.1588,4.1588,4.1588,4.1588,4.1588,4.1588,4.1588,4.1588,4.1588,4.1588,4.1588,4.1588,4.1588,4.1588,4.1588,4.1588,4.1588,4.1588,4.1983,4.2616,4.2616,4.2995,4.3529,4.3324,4.3273,4.3204,4.3028,4.2852,4.2674,4.2674,4.2597,4.2448,4.2448,4.2463,4.2463,4.2463,4.2017,4.1406,4.0743,4.0524,4.0593,4.0765,4.0833,4.0882,4.1068,4.107,4.0852,4.0133,3.9961,3.9712,3.9058,3.8933,3.8918,3.8855,0.0,0.0,3.7982,3.7435,3.7044,3.6997,3.6997,3.6966,3.6919,3.6904,3.6904,3.6904,3.6904,3.6904,3.6904,3.6904,3.6935,3.6982,3.7515,3.7774,3.7774,3.7774,3.7774,3.7774,3.7658,3.7571,3.7571,3.7393,3.7318,3.7288,3.7186,3.6991,3.681,3.6675,3.6538,3.6415,3.6244,3.6103,3.5961,3.58,3.5542,3.5279,4.1162,4.1209,4.1288,4.1541,4.1588,4.1588,4.1588,4.1588,4.1588,4.1588,4.1588,4.1588,4.1588,4.1588,4.1588,4.1588,4.1588,4.1588,4.1588,4.2015,4.2062,4.1604,4.2031,4.2268,4.2268,4.2695,4.2916,4.2916,4.2916,4.2916,4.2916,4.2916,4.2916,4.2916,4.2916,4.2916,4.2916,4.2884,4.3058,4.3292,4.3173,4.328,4.3481,4.329,4.3149,4.3007,4.2936,4.2808,4.2695,4.2695,4.2638,4.2602,4.2602,4.2529,4.2404,4.219,4.1971,4.1711,4.1437,4.0944,4.0524,4.0593,4.0627,4.0627,4.0712,4.0746,4.0634,4.0356,4.031,4.0109,3.9413,3.9323,3.9216,3.8911,0.0,3.8541,3.8605,3.8419,3.8247,3.8247,3.8247,3.8247,3.8247,3.7842,3.7608,3.7608,3.7218,3.7015,3.7015,3.7015,3.7015,3.7015,3.7211,3.7361,3.7361,3.7361,3.7361,3.7361,3.7301,3.7271,3.7271,3.7059,3.6983,3.6952,3.6831,3.6646,3.6476,3.6336,3.6148,3.599,3.5671,3.5557,3.5474,3.5166,3.5016,3.485,4.1588,4.1588,4.1588,4.1588,4.1588,4.1588,4.1588,4.1588,4.1588,4.1588,4.1588,4.1588,4.1588,4.1588,4.1683,4.192,4.1936,4.2015,4.227,4.2726,4.2789,4.2284,4.2726,4.2995,4.3011,4.3469,4.3687,4.3687,4.3687,4.3687,4.3687,4.3687,4.3687,4.3706,4.3687,4.3687,4.3687,4.3706,4.3797,4.3898,4.3761,4.3815,4.3948,4.3717,4.3573,4.3427,4.3406,4.3312,4.3233,4.3233,4.3196,4.3122,4.3122,4.2995,4.2794,4.2614,4.2424,4.2272,4.2272,4.1599,4.0944,4.0944,4.0791,4.0653,4.0653,4.0484,4.0331,4.0331,4.0331,4.0193,3.9719,3.9676,3.9573,3.9228,3.9,3.8879,3.8996,3.8795,3.864,3.864,3.864,3.864,3.864,3.8239,3.7976,3.7976,3.7543,3.728,3.728,3.728,3.728,3.728,3.728,3.728,3.728,3.7018,3.6877,3.6847,3.677,3.6739,3.6739,3.6569,3.6476,3.6461,3.632,3.6163,3.5973,3.5814,3.5621,3.5347,3.5148,3.4949,3.485,3.4582,3.4496,3.4395,4.1588,4.1588,4.1588,4.1588,4.1588,4.1588,4.1588,4.1588,4.1588,4.1588,4.1588,4.1588,4.1604,4.1604,4.1889,4.2631,4.2695,4.2979,4.3677,4.3722,4.3703,4.3703,4.3706,4.3706,4.3703,4.3703,4.3703,4.3703,4.3703,4.3703,4.3703,4.3703,4.3722,4.374,4.3722,4.3703,4.3703,4.3703,4.3976,4.4396,4.4396,4.471,4.5182,4.4964,4.4911,4.4874,4.4685,4.461,4.461,4.461,4.4473,4.4281,4.4281,4.4166,4.3988,4.3988,4.3517,4.3001,4.3001,4.2485,4.1917,4.1901,4.1468,4.1013,4.1013,4.0496,4.0011,4.0011,4.0011,4.0011,4.0011,4.0011,4.0011,4.0011,3.9449,3.9024,3.9024,3.8383,3.791,3.791,3.791,3.791,3.791,3.7895,3.7895,3.7895,3.7879,3.7879,3.7879,3.7879,3.7879,3.7879,3.7879,3.7879,3.7879,3.7122,3.6647,3.6492,3.632,3.6196,3.6196,3.6068,3.6005,3.5973,3.5784,3.5621,3.5472,3.5294,3.4997,3.4698,3.4698,3.4448,3.4094,3.4094,3.4005,3.3862,4.1588,4.1588,4.1588,4.1588,4.1588,4.1588,4.1588,4.1588,4.1588,4.1588,4.1588,4.1778,4.2299,4.2363,4.2647,4.3342,4.3406,4.3706,4.4354,4.4417,4.4654,4.5159,4.4685,4.4401,4.4417,4.4922,4.5191,4.5191,4.5191,4.5191,4.5191,4.5191,4.5175,4.5175,4.5175,4.5083,4.4959,4.4959,4.4976,4.4966,4.4802,4.4853,4.4964,4.4776,4.4685,4.4685,4.461,4.461,4.4587,4.4435,4.4358,4.4243,4.3988,4.3847,4.3754,4.3542,4.3352,4.3202,4.3202,4.3052,4.2739,4.2054,4.175,4.1613,4.1613,4.1462,4.1204,4.08,4.0694,4.0557,4.0087,4.0011,4.0011,4.0011,3.9844,3.9707,3.9707,3.9525,3.9354,3.9354,3.9354,3.9354,3.9354,3.8929,3.8656,3.8656,3.8201,3.7879,3.7879,3.7879,3.7879,3.7879,3.7879,3.7861,3.7775,3.7192,3.6896,3.6831,3.6297,3.599,3.5847,3.5701,3.5587,3.5442,3.5216,3.5067,3.4931,3.4716,3.4515,3.4278,3.4191,3.3985,3.373,3.3591,3.3699,3.385,4.1588,4.1588,4.1588,4.1588,4.1588,4.1588,4.1588,4.1588,4.1699,4.1983,4.2031,4.2299,4.3026,4.309,4.3358,4.4053,4.435,4.4717,4.5128,4.5144,4.5349,4.5792,4.5381,4.5144,4.5144,4.5586,4.5807,4.5807,4.5807,4.5807,4.5807,4.5807,4.5807,4.5807,4.5698,4.5625,4.5478,4.5405,4.5257,4.5092,4.4964,4.4836,4.4761,4.4663,4.461,4.461,4.461,4.4549,4.4458,4.4358,4.4205,4.4026,4.3675,4.3557,4.3518,4.3344,4.329,4.329,4.329,4.329,4.3174,4.2597,4.2266,4.2085,4.2085,4.1874,4.1587,4.1247,4.1172,4.1036,4.0643,4.0356,4.0175,4.0175,3.9928,3.9747,3.9747,3.9747,3.9747,3.9747,3.9747,3.9747,3.9747,3.9385,3.9144,3.9144,3.8752,3.8476,3.8476,3.8476,3.8441,3.8372,3.8372,3.8302,3.8127,3.7588,3.7207,3.7019,3.6565,3.6256,3.6141,3.6038,3.5952,3.5803,3.5565,3.5395,3.5307,3.503,3.4786,3.4596,3.4434,3.4257,3.4042,3.3862,3.3918,3.4113,4.1588,4.1588,4.1588,4.1588,4.1636,4.1683,4.1683,4.1746,4.2015,4.2695,4.2774,4.3042,4.3737,4.3785,4.4053,4.4749,4.5428,4.5807,4.5807,4.5807,4.5807,4.5807,4.5807,4.5807,4.5807,4.5807,4.5807,4.5807,4.5807,4.5807,4.5807,4.5771,4.5771,4.5771,4.5552,4.5478,4.5442,4.5257,4.5055,4.4874,4.4874,4.4761,4.461,4.461,4.461,4.461,4.4587,4.4473,4.4281,4.4243,4.3988,4.3596,4.3384,4.329,4.329,4.329,4.329,4.329,4.329,4.329,4.329,4.329,4.2895,4.2485,4.2485,4.2021,4.1534,4.1512,4.1512,4.1444,4.1384,4.0891,4.0487,4.0487,3.9993,3.9589,3.9589,3.9544,3.9514,3.9514,3.9454,3.9388,3.9388,3.9388,3.9373,3.9373,3.9337,3.9337,3.9337,3.9337,3.9265,3.9068,3.9068,3.898,3.8782,3.8171,3.7624,3.7164,3.693,3.6781,3.6781,3.6746,3.6746,3.6711,3.6372,3.6244,3.6194,3.5812,3.5534,3.5337,3.5115,3.4929,3.4742,3.4554,3.4469,3.4448,4.1588,4.1588,4.1588,4.1588,4.2062,4.2457,4.2457,4.2916,4.3311,4.3469,4.3466,4.3753,4.4433,4.4496,4.478,4.5507,4.5713,4.5807,4.5807,4.5807,4.5807,4.5807,4.5807,4.5807,4.5807,4.5807,4.5807,4.5807,4.5807,4.5807,4.5807,4.5625,4.5552,4.5552,4.5368,4.5167,4.5039,4.4986,4.4836,4.4648,4.4648,4.4648,4.461,4.461,4.461,4.4587,4.4435,4.4358,4.4243,4.3949,4.3621,4.3384,4.3329,4.329,4.329,4.329,4.329,4.329,4.329,4.329,4.329,4.329,4.3185,4.312,4.312,4.3015,4.2761,4.2291,4.2186,4.2036,4.1512,4.1265,4.1175,4.1175,4.1055,4.095,4.095,4.0502,4.0187,4.0187,3.9738,3.9388,3.9388,3.9265,3.9177,3.9177,3.9017,3.8943,3.8943,3.8943,3.8907,3.887,3.887,3.8819,3.8782,3.8517,3.8121,3.7653,3.7066,3.6761,3.6635,3.6479,3.6336,3.6143,3.592,3.5739,3.5593,3.5337,3.5115,3.4929,3.4705,3.4517,3.4327,3.4289,3.4347,3.4509,4.2047,4.211,4.222,4.2552,4.2916,4.3169,4.3184,4.3469,4.3816,4.4148,4.4196,4.4448,4.5159,4.5238,4.5396,4.5776,4.5807,4.5807,4.5807,4.5807,4.5807,4.5807,4.5807,4.5807,4.5807,4.5807,4.5807,4.5807,4.5807,4.5735,4.5662,4.5552,4.5442,4.5368,4.5129,4.5002,4.4874,4.4799,4.4685,4.461,4.461,4.461,4.461,4.461,4.4549,4.4435,4.4358,4.4166,4.3949,4.3621,4.3423,4.329,4.329,4.329,4.329,4.329,4.329,4.329,4.329,4.329,4.329,4.317,4.3155,4.317,4.329,4.325,4.3066,4.2762,4.2624,4.2441,4.2099,4.1748,4.1525,4.1525,4.1273,4.1065,4.1065,4.0768,4.056,4.056,4.0225,3.9899,3.9624,3.9209,3.8943,3.8943,3.887,3.8782,3.8782,3.8782,3.876,3.8649,3.8649,3.8612,3.8523,3.8389,3.8192,3.7856,3.758,3.7397,3.7208,3.712,3.6958,3.6736,3.6564,3.6339,3.6151,3.5937,3.5746,3.554,3.5347,3.5205,3.5089,3.4879,3.4713,3.4673,4.2742,4.2868,4.3042,4.3592,4.3785,4.3864,4.3845,4.3974,4.4243,4.4828,4.4907,4.5128,4.5744,4.5807,4.5807,4.5807,4.5807,4.5807,4.5807,4.5807,4.5871,4.5981,4.5981,4.6044,4.6171,4.6171,4.6108,4.5981,4.5945,4.5898,4.5824,4.5786,4.5637,4.5488,4.5268,4.5177,4.5192,4.5002,4.4964,4.4964,4.4964,4.4964,4.4964,4.4964,4.4811,4.4633,4.4594,4.4322,4.3942,4.3713,4.3618,4.3618,4.3618,4.3618,4.3618,4.3618,4.3618,4.3604,4.3484,4.3469,4.3384,4.3105,4.2981,4.3036,4.317,4.309,4.2955,4.2955,4.2809,4.2688,4.2688,4.2261,4.1852,4.1852,4.1396,4.1042,4.1042,4.0954,4.088,4.088,4.0753,4.0512,4.002,3.9408,3.904,3.8922,3.8885,3.8841,3.8686,3.8708,3.8612,3.8441,3.8441,3.8366,3.8202,3.8179,3.8066,3.7891,3.8028,3.7991,3.7853,3.7815,3.7701,3.7548,3.7303,3.7109,3.6915,3.6707,3.6524,3.6325,3.6112,3.5992,3.5912,3.5494,3.5086,3.4797,4.3529,4.3564,4.3579,4.3671,4.4196,4.4575,4.4575,4.5112,4.5555,4.5649,4.5665,4.5697,4.5807,4.5807,4.5807,4.5807,4.5807,4.5807,4.5807,4.5807,4.606,4.6645,4.6661,4.6961,4.7609,4.7624,4.7308,4.6661,4.6475,4.6677,4.722,4.6858,4.6718,4.6679,4.6484,4.6366,4.6366,4.6326,4.6326,4.6326,4.6326,4.6326,4.6326,4.6326,4.6208,4.6009,4.5824,4.5485,4.5076,4.5035,4.5035,4.5035,4.5035,4.5035,4.5035,4.5035,4.5035,4.49,4.4332,4.4182,4.3967,4.3224,4.2981,4.2955,4.2809,4.2769,4.2729,4.2729,4.2729,4.2688,4.2688,4.2614,4.2555,4.2555,4.2482,4.2423,4.2423,4.1951,4.1558,4.1558,4.1057,4.0689,4.0601,4.0343,3.9973,3.9417,3.9235,3.8888,3.8306,3.8277,3.8277,3.824,3.824,3.824,3.8202,3.8028,3.7929,3.7891,3.7739,3.7649,3.7625,3.7457,3.738,3.7303,3.6943,3.6747,3.6707,3.6325,3.6166,3.6112,3.5858,3.5642,3.544,3.5044,3.4839,3.4756,4.4211,4.4259,4.4385,4.4812,4.5128,4.5317,4.5317,4.5602,4.5807,4.5807,4.5807,4.5807,4.5807,4.5807,4.5807,4.5807,4.5807,4.5965,4.6329,4.636,4.6676,4.7372,4.7419,4.7561,4.7893,4.7763,4.7703,4.7797,4.7312,4.7112,4.7177,4.6982,4.6825,4.6707,4.6643,4.6603,4.6603,4.6603,4.6603,4.6603,4.6603,4.6603,4.6603,4.6484,4.6324,4.6098,4.5716,4.547,4.5289,4.5289,4.5289,4.5289,4.5289,4.5289,4.5289,4.5289,4.5289,4.5229,4.4945,4.487,4.4698,4.4045,4.3874,4.3702,4.3019,4.2863,4.2802,4.2573,4.2433,4.2351,4.2351,4.2351,4.2351,4.2351,4.2351,4.2351,4.2351,4.2117,4.1927,4.1927,4.1317,4.0908,4.0908,4.0479,4.0105,3.9867,3.9736,3.9567,3.9276,3.8942,3.8754,3.8754,3.8405,3.8127,3.8028,3.7929,3.7777,3.7572,3.7457,3.7419,3.7419,3.7341,3.7226,3.7109,3.6825,3.6642,3.6524,3.6206,3.5992,3.5858,3.5764,3.5521,3.5195,3.4921,3.4714,3.4577]}]]